﻿<?xml version="1.0" encoding="utf-8"?><gpx creator="Garmin Desktop App" version="1.1" xsi:schemaLocation="http://www.topografix.com/GPX/1/1 http://www.topografix.com/GPX/1/1/gpx.xsd http://www.garmin.com/xmlschemas/WaypointExtension/v1 http://www8.garmin.com/xmlschemas/WaypointExtensionv1.xsd http://www.garmin.com/xmlschemas/TrackPointExtension/v1 http://www.garmin.com/xmlschemas/TrackPointExtensionv1.xsd http://www.garmin.com/xmlschemas/GpxExtensions/v3 http://www8.garmin.com/xmlschemas/GpxExtensionsv3.xsd http://www.garmin.com/xmlschemas/ActivityExtension/v1 http://www8.garmin.com/xmlschemas/ActivityExtensionv1.xsd http://www.garmin.com/xmlschemas/AdventuresExtensions/v1 http://www8.garmin.com/xmlschemas/AdventuresExtensionv1.xsd http://www.garmin.com/xmlschemas/PressureExtension/v1 http://www.garmin.com/xmlschemas/PressureExtensionv1.xsd http://www.garmin.com/xmlschemas/TripExtensions/v1 http://www.garmin.com/xmlschemas/TripExtensionsv1.xsd http://www.garmin.com/xmlschemas/TripMetaDataExtensions/v1 http://www.garmin.com/xmlschemas/TripMetaDataExtensionsv1.xsd http://www.garmin.com/xmlschemas/ViaPointTransportationModeExtensions/v1 http://www.garmin.com/xmlschemas/ViaPointTransportationModeExtensionsv1.xsd http://www.garmin.com/xmlschemas/CreationTimeExtensions/v1 http://www.garmin.com/xmlschemas/CreationTimeExtensionsv1.xsd" xmlns="http://www.topografix.com/GPX/1/1" xmlns:xsi="http://www.w3.org/2001/XMLSchema-instance" xmlns:wptx1="http://www.garmin.com/xmlschemas/WaypointExtension/v1" xmlns:gpxtrx="http://www.garmin.com/xmlschemas/GpxExtensions/v3" xmlns:gpxtpx="http://www.garmin.com/xmlschemas/TrackPointExtension/v1" xmlns:gpxx="http://www.garmin.com/xmlschemas/GpxExtensions/v3" xmlns:trp="http://www.garmin.com/xmlschemas/TripExtensions/v1" xmlns:adv="http://www.garmin.com/xmlschemas/AdventuresExtensions/v1" xmlns:prs="http://www.garmin.com/xmlschemas/PressureExtension/v1" xmlns:tmd="http://www.garmin.com/xmlschemas/TripMetaDataExtensions/v1" xmlns:vptm="http://www.garmin.com/xmlschemas/ViaPointTransportationModeExtensions/v1" xmlns:ctx="http://www.garmin.com/xmlschemas/CreationTimeExtension/v1">

  <metadata>
    <link href="http://www.garmin.com">
      <text>Garmin International</text>
    </link>
    <time>2014-03-21T08:17:04Z</time>
    <bounds maxlat="46.358776325359941" maxlon="8.302251286804676" minlat="46.314469082280993" minlon="8.260388122871518" />
  </metadata>

  <wpt lat="46.327232038602233" lon="8.279457958415151">
    <ele>1777.8203120000001</ele>
    <time>2014-03-20T12:51:31Z</time>
    <name>Crampiolo</name>
    <sym>Flag, Blue</sym>
    <type>user</type>
    <extensions>
      <gpxx:WaypointExtension>
        <gpxx:DisplayMode>SymbolAndName</gpxx:DisplayMode>
        <gpxx:Categories>
          <gpxx:Category>alpe devero</gpxx:Category>
        </gpxx:Categories>
      </gpxx:WaypointExtension>
      <wptx1:WaypointExtension>
        <wptx1:DisplayMode>SymbolAndName</wptx1:DisplayMode>
        <wptx1:Categories>
          <wptx1:Category>alpe devero</wptx1:Category>
        </wptx1:Categories>
      </wptx1:WaypointExtension>
      <ctx:CreationTimeExtension>
        <ctx:CreationTime>2014-03-20T12:51:31Z</ctx:CreationTime>
      </ctx:CreationTimeExtension>
    </extensions>
  </wpt>

  <wpt lat="46.35859795846045" lon="8.302113991230726">
    <ele>1997.1082759999999</ele>
    <time>2014-03-20T10:42:20Z</time>
    <name>Lago Pianboglio</name>
    <sym>Flag, Blue</sym>
    <type>user</type>
    <extensions>
      <gpxx:WaypointExtension>
        <gpxx:DisplayMode>SymbolAndName</gpxx:DisplayMode>
        <gpxx:Categories>
          <gpxx:Category>alpe devero</gpxx:Category>
        </gpxx:Categories>
      </gpxx:WaypointExtension>
      <wptx1:WaypointExtension>
        <wptx1:DisplayMode>SymbolAndName</wptx1:DisplayMode>
        <wptx1:Categories>
          <wptx1:Category>alpe devero</wptx1:Category>
        </wptx1:Categories>
      </wptx1:WaypointExtension>
      <ctx:CreationTimeExtension>
        <ctx:CreationTime>2014-03-20T10:42:20Z</ctx:CreationTime>
      </ctx:CreationTimeExtension>
    </extensions>
  </wpt>

  <trk>
    <name>pianboglio2014-03-20</name>
    <extensions>
      <gpxx:TrackExtension>
        <gpxx:DisplayColor>Yellow</gpxx:DisplayColor>
      </gpxx:TrackExtension>
    </extensions>
    <trkseg>
      <trkpt lat="46.314527504146099" lon="8.260931856930256">
        <ele>1642.55</ele>
        <time>2014-03-20T08:07:11Z</time>
      </trkpt>
      <trkpt lat="46.314502106979489" lon="8.260919451713562">
        <ele>1642.0699999999999</ele>
        <time>2014-03-20T08:07:26Z</time>
      </trkpt>
      <trkpt lat="46.314504034817219" lon="8.260896736755967">
        <ele>1642.55</ele>
        <time>2014-03-20T08:07:48Z</time>
      </trkpt>
      <trkpt lat="46.314537394791842" lon="8.260879637673497">
        <ele>1642.0699999999999</ele>
        <time>2014-03-20T08:08:03Z</time>
      </trkpt>
      <trkpt lat="46.314574358984828" lon="8.260888690128923">
        <ele>1643.03</ele>
        <time>2014-03-20T08:08:15Z</time>
      </trkpt>
      <trkpt lat="46.314595984295011" lon="8.260858096182346">
        <ele>1642.55</ele>
        <time>2014-03-20T08:08:20Z</time>
      </trkpt>
      <trkpt lat="46.314632864668965" lon="8.260797495022416">
        <ele>1643.51</ele>
        <time>2014-03-20T08:08:26Z</time>
      </trkpt>
      <trkpt lat="46.314681898802519" lon="8.260780898854137">
        <ele>1643.51</ele>
        <time>2014-03-20T08:08:30Z</time>
      </trkpt>
      <trkpt lat="46.314859678968787" lon="8.260774780064821">
        <ele>1643.51</ele>
        <time>2014-03-20T08:08:46Z</time>
      </trkpt>
      <trkpt lat="46.315013570711017" lon="8.260814510285854">
        <ele>1644.47</ele>
        <time>2014-03-20T08:09:01Z</time>
      </trkpt>
      <trkpt lat="46.315163355320692" lon="8.260752651840448">
        <ele>1645.4300000000001</ele>
        <time>2014-03-20T08:09:16Z</time>
      </trkpt>
      <trkpt lat="46.315322695299983" lon="8.260697834193707">
        <ele>1646.4000000000001</ele>
        <time>2014-03-20T08:09:31Z</time>
      </trkpt>
      <trkpt lat="46.315474156290293" lon="8.260760279372335">
        <ele>1645.9100000000001</ele>
        <time>2014-03-20T08:09:45Z</time>
      </trkpt>
      <trkpt lat="46.31550089456141" lon="8.260763296857476">
        <ele>1645.9100000000001</ele>
        <time>2014-03-20T08:10:00Z</time>
      </trkpt>
      <trkpt lat="46.31548723205924" lon="8.26077276840806">
        <ele>1645.4300000000001</ele>
        <time>2014-03-20T08:10:24Z</time>
      </trkpt>
      <trkpt lat="46.315483963117003" lon="8.260764554142952">
        <ele>1645.4300000000001</ele>
        <time>2014-03-20T08:10:48Z</time>
      </trkpt>
      <trkpt lat="46.315480777993798" lon="8.260773941874504">
        <ele>1645.9100000000001</ele>
        <time>2014-03-20T08:11:07Z</time>
      </trkpt>
      <trkpt lat="46.315468875691295" lon="8.260781904682517">
        <ele>1645.4300000000001</ele>
        <time>2014-03-20T08:11:20Z</time>
      </trkpt>
      <trkpt lat="46.315483544021845" lon="8.260781820863485">
        <ele>1645.4300000000001</ele>
        <time>2014-03-20T08:11:52Z</time>
      </trkpt>
      <trkpt lat="46.315498631447554" lon="8.260760614648461">
        <ele>1645.4300000000001</ele>
        <time>2014-03-20T08:12:22Z</time>
      </trkpt>
      <trkpt lat="46.315512377768755" lon="8.260766062885523">
        <ele>1645.4300000000001</ele>
        <time>2014-03-20T08:12:39Z</time>
      </trkpt>
      <trkpt lat="46.315561747178435" lon="8.260767571628094">
        <ele>1645.9100000000001</ele>
        <time>2014-03-20T08:12:43Z</time>
      </trkpt>
      <trkpt lat="46.315608266741037" lon="8.260768409818411">
        <ele>1645.9100000000001</ele>
        <time>2014-03-20T08:12:47Z</time>
      </trkpt>
      <trkpt lat="46.315725697204471" lon="8.260722644627094">
        <ele>1647.3599999999999</ele>
        <time>2014-03-20T08:13:01Z</time>
      </trkpt>
      <trkpt lat="46.315770875662565" lon="8.260675622150302">
        <ele>1647.8399999999999</ele>
        <time>2014-03-20T08:13:07Z</time>
      </trkpt>
      <trkpt lat="46.31586835719645" lon="8.260480239987373">
        <ele>1646.8800000000001</ele>
        <time>2014-03-20T08:13:23Z</time>
      </trkpt>
      <trkpt lat="46.316020824015141" lon="8.260388122871518">
        <ele>1646.8800000000001</ele>
        <time>2014-03-20T08:13:38Z</time>
      </trkpt>
      <trkpt lat="46.31618058308959" lon="8.260411508381367">
        <ele>1645.9100000000001</ele>
        <time>2014-03-20T08:13:52Z</time>
      </trkpt>
      <trkpt lat="46.316323997452855" lon="8.260525166988373">
        <ele>1646.4000000000001</ele>
        <time>2014-03-20T08:14:07Z</time>
      </trkpt>
      <trkpt lat="46.316491300240159" lon="8.260616697371006">
        <ele>1646.4000000000001</ele>
        <time>2014-03-20T08:14:23Z</time>
      </trkpt>
      <trkpt lat="46.316628931090236" lon="8.260702108964324">
        <ele>1647.3599999999999</ele>
        <time>2014-03-20T08:14:38Z</time>
      </trkpt>
      <trkpt lat="46.316636307165027" lon="8.260717950761318">
        <ele>1646.8800000000001</ele>
        <time>2014-03-20T08:14:40Z</time>
      </trkpt>
      <trkpt lat="46.316830348223448" lon="8.260781401768327">
        <ele>1646.8800000000001</ele>
        <time>2014-03-20T08:14:57Z</time>
      </trkpt>
      <trkpt lat="46.317003099247813" lon="8.260850217193365">
        <ele>1646.8800000000001</ele>
        <time>2014-03-20T08:15:12Z</time>
      </trkpt>
      <trkpt lat="46.317155649885535" lon="8.260936886072159">
        <ele>1647.3599999999999</ele>
        <time>2014-03-20T08:15:28Z</time>
      </trkpt>
      <trkpt lat="46.317314738407731" lon="8.261018190532923">
        <ele>1647.3599999999999</ele>
        <time>2014-03-20T08:15:43Z</time>
      </trkpt>
      <trkpt lat="46.317491261288524" lon="8.261140650138259">
        <ele>1647.3599999999999</ele>
        <time>2014-03-20T08:16:00Z</time>
      </trkpt>
      <trkpt lat="46.317627970129251" lon="8.261258248239756">
        <ele>1646.8800000000001</ele>
        <time>2014-03-20T08:16:14Z</time>
      </trkpt>
      <trkpt lat="46.31776375696063" lon="8.261331506073475">
        <ele>1647.3599999999999</ele>
        <time>2014-03-20T08:16:27Z</time>
      </trkpt>
      <trkpt lat="46.317928042262793" lon="8.261341648176312">
        <ele>1647.3599999999999</ele>
        <time>2014-03-20T08:16:41Z</time>
      </trkpt>
      <trkpt lat="46.318075815215707" lon="8.261382384225726">
        <ele>1647.3599999999999</ele>
        <time>2014-03-20T08:16:56Z</time>
      </trkpt>
      <trkpt lat="46.318202884867787" lon="8.261369643732905">
        <ele>1647.8399999999999</ele>
        <time>2014-03-20T08:17:08Z</time>
      </trkpt>
      <trkpt lat="46.318391477689147" lon="8.261346677318215">
        <ele>1647.8399999999999</ele>
        <time>2014-03-20T08:17:25Z</time>
      </trkpt>
      <trkpt lat="46.31856800056994" lon="8.261354472488165">
        <ele>1647.8399999999999</ele>
        <time>2014-03-20T08:17:41Z</time>
      </trkpt>
      <trkpt lat="46.318732956424356" lon="8.261430161073804">
        <ele>1648.3199999999999</ele>
        <time>2014-03-20T08:17:57Z</time>
      </trkpt>
      <trkpt lat="46.318882238119841" lon="8.261530492454767">
        <ele>1648.3199999999999</ele>
        <time>2014-03-20T08:18:11Z</time>
      </trkpt>
      <trkpt lat="46.319025652483106" lon="8.261593356728554">
        <ele>1648.3199999999999</ele>
        <time>2014-03-20T08:18:25Z</time>
      </trkpt>
      <trkpt lat="46.319195134565234" lon="8.261726964265108">
        <ele>1648.8</ele>
        <time>2014-03-20T08:18:42Z</time>
      </trkpt>
      <trkpt lat="46.319345170632005" lon="8.261893345043063">
        <ele>1649.76</ele>
        <time>2014-03-20T08:18:59Z</time>
      </trkpt>
      <trkpt lat="46.319480454549193" lon="8.26207690872252">
        <ele>1649.76</ele>
        <time>2014-03-20T08:19:14Z</time>
      </trkpt>
      <trkpt lat="46.319619091227651" lon="8.2623007055372">
        <ele>1649.76</ele>
        <time>2014-03-20T08:19:33Z</time>
      </trkpt>
      <trkpt lat="46.319737108424306" lon="8.26245560310781">
        <ele>1649.76</ele>
        <time>2014-03-20T08:19:47Z</time>
      </trkpt>
      <trkpt lat="46.319870632141829" lon="8.262638077139854">
        <ele>1650.72</ele>
        <time>2014-03-20T08:20:03Z</time>
      </trkpt>
      <trkpt lat="46.320044891908765" lon="8.262794064357877">
        <ele>1651.2</ele>
        <time>2014-03-20T08:20:20Z</time>
      </trkpt>
      <trkpt lat="46.320217894390225" lon="8.262866567820311">
        <ele>1650.72</ele>
        <time>2014-03-20T08:20:37Z</time>
      </trkpt>
      <trkpt lat="46.320380754768848" lon="8.262921134009957">
        <ele>1652.1600000000001</ele>
        <time>2014-03-20T08:20:52Z</time>
      </trkpt>
      <trkpt lat="46.320505058392882" lon="8.262963211163878">
        <ele>1653.5999999999999</ele>
        <time>2014-03-20T08:21:06Z</time>
      </trkpt>
      <trkpt lat="46.320645455271006" lon="8.262998498976231">
        <ele>1656.01</ele>
        <time>2014-03-20T08:21:22Z</time>
      </trkpt>
      <trkpt lat="46.320679653435946" lon="8.26304049231112">
        <ele>1656.97</ele>
        <time>2014-03-20T08:21:36Z</time>
      </trkpt>
      <trkpt lat="46.320738913491368" lon="8.263001013547182">
        <ele>1657.45</ele>
        <time>2014-03-20T08:21:54Z</time>
      </trkpt>
      <trkpt lat="46.320893308147788" lon="8.263052646070719">
        <ele>1660.8099999999999</ele>
        <time>2014-03-20T08:22:09Z</time>
      </trkpt>
      <trkpt lat="46.320904958993196" lon="8.263087011873722">
        <ele>1660.8099999999999</ele>
        <time>2014-03-20T08:22:22Z</time>
      </trkpt>
      <trkpt lat="46.320890206843615" lon="8.263115426525474">
        <ele>1659.8499999999999</ele>
        <time>2014-03-20T08:22:40Z</time>
      </trkpt>
      <trkpt lat="46.320892721414566" lon="8.263081228360534">
        <ele>1660.3299999999999</ele>
        <time>2014-03-20T08:23:09Z</time>
      </trkpt>
      <trkpt lat="46.320889117196202" lon="8.263077372685075">
        <ele>1659.8499999999999</ele>
        <time>2014-03-20T08:23:43Z</time>
      </trkpt>
      <trkpt lat="46.320886351168156" lon="8.26311525888741">
        <ele>1659.8499999999999</ele>
        <time>2014-03-20T08:24:08Z</time>
      </trkpt>
      <trkpt lat="46.320893643423915" lon="8.263110732659698">
        <ele>1660.8099999999999</ele>
        <time>2014-03-20T08:24:10Z</time>
      </trkpt>
      <trkpt lat="46.320917699486017" lon="8.263098746538162">
        <ele>1660.8099999999999</ele>
        <time>2014-03-20T08:24:19Z</time>
      </trkpt>
      <trkpt lat="46.320934714749455" lon="8.263090113177896">
        <ele>1661.3</ele>
        <time>2014-03-20T08:24:21Z</time>
      </trkpt>
      <trkpt lat="46.321060610935092" lon="8.263146858662367">
        <ele>1663.7</ele>
        <time>2014-03-20T08:24:36Z</time>
      </trkpt>
      <trkpt lat="46.321219615638256" lon="8.263182900846005">
        <ele>1666.0999999999999</ele>
        <time>2014-03-20T08:24:51Z</time>
      </trkpt>
      <trkpt lat="46.321375351399183" lon="8.263262026011944">
        <ele>1668.99</ele>
        <time>2014-03-20T08:25:09Z</time>
      </trkpt>
      <trkpt lat="46.321497894823551" lon="8.263334613293409">
        <ele>1671.8699999999999</ele>
        <time>2014-03-20T08:25:26Z</time>
      </trkpt>
      <trkpt lat="46.321583725512028" lon="8.263404183089733">
        <ele>1674.75</ele>
        <time>2014-03-20T08:25:41Z</time>
      </trkpt>
      <trkpt lat="46.321674669161439" lon="8.263461096212268">
        <ele>1677.6400000000001</ele>
        <time>2014-03-20T08:25:57Z</time>
      </trkpt>
      <trkpt lat="46.321776509284973" lon="8.263514991849661">
        <ele>1680.04</ele>
        <time>2014-03-20T08:26:13Z</time>
      </trkpt>
      <trkpt lat="46.321856305003166" lon="8.263576766476035">
        <ele>1683.4100000000001</ele>
        <time>2014-03-20T08:26:25Z</time>
      </trkpt>
      <trkpt lat="46.321922773495317" lon="8.263635607436299">
        <ele>1686.29</ele>
        <time>2014-03-20T08:26:38Z</time>
      </trkpt>
      <trkpt lat="46.322019081562757" lon="8.263655388727784">
        <ele>1689.1700000000001</ele>
        <time>2014-03-20T08:26:53Z</time>
      </trkpt>
      <trkpt lat="46.322108851745725" lon="8.263706350699067">
        <ele>1692.0599999999999</ele>
        <time>2014-03-20T08:27:08Z</time>
      </trkpt>
      <trkpt lat="46.322186049073935" lon="8.263752702623606">
        <ele>1694.9400000000001</ele>
        <time>2014-03-20T08:27:21Z</time>
      </trkpt>
      <trkpt lat="46.322245644405484" lon="8.263772903010249">
        <ele>1697.3399999999999</ele>
        <time>2014-03-20T08:27:35Z</time>
      </trkpt>
      <trkpt lat="46.322320075705647" lon="8.263809364289045">
        <ele>1700.71</ele>
        <time>2014-03-20T08:27:49Z</time>
      </trkpt>
      <trkpt lat="46.322397775948048" lon="8.263875581324101">
        <ele>1703.5899999999999</ele>
        <time>2014-03-20T08:28:05Z</time>
      </trkpt>
      <trkpt lat="46.322458796203136" lon="8.263955628499389">
        <ele>1706.48</ele>
        <time>2014-03-20T08:28:21Z</time>
      </trkpt>
      <trkpt lat="46.322533395141363" lon="8.264021342620254">
        <ele>1710.3199999999999</ele>
        <time>2014-03-20T08:28:37Z</time>
      </trkpt>
      <trkpt lat="46.322615956887603" lon="8.264110609889031">
        <ele>1712.25</ele>
        <time>2014-03-20T08:28:53Z</time>
      </trkpt>
      <trkpt lat="46.32267639040947" lon="8.264193506911397">
        <ele>1714.6500000000001</ele>
        <time>2014-03-20T08:29:07Z</time>
      </trkpt>
      <trkpt lat="46.322759035974741" lon="8.264277325943112">
        <ele>1718.01</ele>
        <time>2014-03-20T08:29:22Z</time>
      </trkpt>
      <trkpt lat="46.322797341272235" lon="8.264311524108052">
        <ele>1718.49</ele>
        <time>2014-03-20T08:29:27Z</time>
      </trkpt>
      <trkpt lat="46.322821984067559" lon="8.264334490522742">
        <ele>1719.46</ele>
        <time>2014-03-20T08:29:31Z</time>
      </trkpt>
      <trkpt lat="46.322895409539342" lon="8.264403054490686">
        <ele>1721.3800000000001</ele>
        <time>2014-03-20T08:29:43Z</time>
      </trkpt>
      <trkpt lat="46.323007978498936" lon="8.264497015625238">
        <ele>1723.78</ele>
        <time>2014-03-20T08:29:57Z</time>
      </trkpt>
      <trkpt lat="46.323013845831156" lon="8.264505732804537">
        <ele>1724.26</ele>
        <time>2014-03-20T08:29:58Z</time>
      </trkpt>
      <trkpt lat="46.323039745911956" lon="8.264539679512382">
        <ele>1724.74</ele>
        <time>2014-03-20T08:30:02Z</time>
      </trkpt>
      <trkpt lat="46.323094479739666" lon="8.264677813276649">
        <ele>1727.1500000000001</ele>
        <time>2014-03-20T08:30:16Z</time>
      </trkpt>
      <trkpt lat="46.323116775602102" lon="8.26472332701087">
        <ele>1728.1099999999999</ele>
        <time>2014-03-20T08:30:20Z</time>
      </trkpt>
      <trkpt lat="46.32313814945519" lon="8.264818377792835">
        <ele>1729.0699999999999</ele>
        <time>2014-03-20T08:30:32Z</time>
      </trkpt>
      <trkpt lat="46.323137981817126" lon="8.264822568744421">
        <ele>1729.0699999999999</ele>
        <time>2014-03-20T08:30:33Z</time>
      </trkpt>
      <trkpt lat="46.323126330971718" lon="8.26495885848999">
        <ele>1729.55</ele>
        <time>2014-03-20T08:30:47Z</time>
      </trkpt>
      <trkpt lat="46.323086265474558" lon="8.264979645609856">
        <ele>1730.03</ele>
        <time>2014-03-20T08:30:51Z</time>
      </trkpt>
      <trkpt lat="46.323014767840505" lon="8.265019040554762">
        <ele>1731.47</ele>
        <time>2014-03-20T08:31:02Z</time>
      </trkpt>
      <trkpt lat="46.322953579947352" lon="8.265063213184476">
        <ele>1732.4300000000001</ele>
        <time>2014-03-20T08:31:18Z</time>
      </trkpt>
      <trkpt lat="46.322908317670226" lon="8.265047455206513">
        <ele>1733.8800000000001</ele>
        <time>2014-03-20T08:31:30Z</time>
      </trkpt>
      <trkpt lat="46.322850063443184" lon="8.265115180984139">
        <ele>1733.3900000000001</ele>
        <time>2014-03-20T08:31:39Z</time>
      </trkpt>
      <trkpt lat="46.322754174470901" lon="8.265227666124702">
        <ele>1734.8399999999999</ele>
        <time>2014-03-20T08:31:52Z</time>
      </trkpt>
      <trkpt lat="46.322753671556711" lon="8.265229761600494">
        <ele>1735.3199999999999</ele>
        <time>2014-03-20T08:31:53Z</time>
      </trkpt>
      <trkpt lat="46.322721987962723" lon="8.265365464612842">
        <ele>1736.76</ele>
        <time>2014-03-20T08:32:08Z</time>
      </trkpt>
      <trkpt lat="46.322786444798112" lon="8.265417851507664">
        <ele>1738.2</ele>
        <time>2014-03-20T08:32:21Z</time>
      </trkpt>
      <trkpt lat="46.322848554700613" lon="8.265462443232536">
        <ele>1739.6400000000001</ele>
        <time>2014-03-20T08:32:35Z</time>
      </trkpt>
      <trkpt lat="46.322924662381411" lon="8.265565205365419">
        <ele>1739.6400000000001</ele>
        <time>2014-03-20T08:32:51Z</time>
      </trkpt>
      <trkpt lat="46.32300085388124" lon="8.265652293339372">
        <ele>1740.5999999999999</ele>
        <time>2014-03-20T08:33:07Z</time>
      </trkpt>
      <trkpt lat="46.323047792539001" lon="8.265720186755061">
        <ele>1741.0799999999999</ele>
        <time>2014-03-20T08:33:21Z</time>
      </trkpt>
      <trkpt lat="46.323083834722638" lon="8.26577047817409">
        <ele>1741.5699999999999</ele>
        <time>2014-03-20T08:33:26Z</time>
      </trkpt>
      <trkpt lat="46.3232187833637" lon="8.265947168692946">
        <ele>1742.53</ele>
        <time>2014-03-20T08:33:43Z</time>
      </trkpt>
      <trkpt lat="46.323279049247503" lon="8.266028724610806">
        <ele>1743.01</ele>
        <time>2014-03-20T08:33:56Z</time>
      </trkpt>
      <trkpt lat="46.323382817208767" lon="8.266106173396111">
        <ele>1743.49</ele>
        <time>2014-03-20T08:34:12Z</time>
      </trkpt>
      <trkpt lat="46.323507288470864" lon="8.266216227784753">
        <ele>1743.49</ele>
        <time>2014-03-20T08:34:27Z</time>
      </trkpt>
      <trkpt lat="46.323582055047154" lon="8.266339609399438">
        <ele>1742.53</ele>
        <time>2014-03-20T08:34:41Z</time>
      </trkpt>
      <trkpt lat="46.323613068088889" lon="8.266441700980067">
        <ele>1742.05</ele>
        <time>2014-03-20T08:34:55Z</time>
      </trkpt>
      <trkpt lat="46.32369127124548" lon="8.266545385122299">
        <ele>1742.53</ele>
        <time>2014-03-20T08:35:07Z</time>
      </trkpt>
      <trkpt lat="46.32375530898571" lon="8.266673712059856">
        <ele>1743.97</ele>
        <time>2014-03-20T08:35:20Z</time>
      </trkpt>
      <trkpt lat="46.323790177702904" lon="8.266813438385725">
        <ele>1744.9300000000001</ele>
        <time>2014-03-20T08:35:34Z</time>
      </trkpt>
      <trkpt lat="46.323842313140631" lon="8.26694319024682">
        <ele>1745.4100000000001</ele>
        <time>2014-03-20T08:35:50Z</time>
      </trkpt>
      <trkpt lat="46.323940465226769" lon="8.267089622095227">
        <ele>1745.8900000000001</ele>
        <time>2014-03-20T08:36:07Z</time>
      </trkpt>
      <trkpt lat="46.323987152427435" lon="8.267193390056491">
        <ele>1746.3699999999999</ele>
        <time>2014-03-20T08:36:21Z</time>
      </trkpt>
      <trkpt lat="46.324049178510904" lon="8.267283411696553">
        <ele>1746.8499999999999</ele>
        <time>2014-03-20T08:36:36Z</time>
      </trkpt>
      <trkpt lat="46.324120424687862" lon="8.26735457405448">
        <ele>1747.3299999999999</ele>
        <time>2014-03-20T08:36:49Z</time>
      </trkpt>
      <trkpt lat="46.324195023626089" lon="8.267439901828766">
        <ele>1749.26</ele>
        <time>2014-03-20T08:37:04Z</time>
      </trkpt>
      <trkpt lat="46.324278255924582" lon="8.267537802457809">
        <ele>1749.74</ele>
        <time>2014-03-20T08:37:21Z</time>
      </trkpt>
      <trkpt lat="46.324353357776999" lon="8.267664285376668">
        <ele>1751.6600000000001</ele>
        <time>2014-03-20T08:37:37Z</time>
      </trkpt>
      <trkpt lat="46.32440222427249" lon="8.267745338380337">
        <ele>1751.6600000000001</ele>
        <time>2014-03-20T08:37:50Z</time>
      </trkpt>
      <trkpt lat="46.324443547055125" lon="8.267813231796026">
        <ele>1752.1400000000001</ele>
        <time>2014-03-20T08:38:02Z</time>
      </trkpt>
      <trkpt lat="46.324466429650784" lon="8.267869809642434">
        <ele>1752.6199999999999</ele>
        <time>2014-03-20T08:38:17Z</time>
      </trkpt>
      <trkpt lat="46.32447456009686" lon="8.267970979213715">
        <ele>1754.54</ele>
        <time>2014-03-20T08:38:37Z</time>
      </trkpt>
      <trkpt lat="46.324492497369647" lon="8.268092013895512">
        <ele>1757.9100000000001</ele>
        <time>2014-03-20T08:38:52Z</time>
      </trkpt>
      <trkpt lat="46.324495011940598" lon="8.268094277009368">
        <ele>1757.9100000000001</ele>
        <time>2014-03-20T08:38:55Z</time>
      </trkpt>
      <trkpt lat="46.32446575909853" lon="8.268139371648431">
        <ele>1758.3900000000001</ele>
        <time>2014-03-20T08:39:10Z</time>
      </trkpt>
      <trkpt lat="46.324401637539268" lon="8.268186310306191">
        <ele>1760.79</ele>
        <time>2014-03-20T08:39:26Z</time>
      </trkpt>
      <trkpt lat="46.32434899918735" lon="8.268307344987989">
        <ele>1763.6800000000001</ele>
        <time>2014-03-20T08:39:41Z</time>
      </trkpt>
      <trkpt lat="46.324385041370988" lon="8.268445394933224">
        <ele>1765.1199999999999</ele>
        <time>2014-03-20T08:39:56Z</time>
      </trkpt>
      <trkpt lat="46.324417814612389" lon="8.268519155681133">
        <ele>1766.5599999999999</ele>
        <time>2014-03-20T08:40:10Z</time>
      </trkpt>
      <trkpt lat="46.324492497369647" lon="8.268676903098822">
        <ele>1768</ele>
        <time>2014-03-20T08:40:26Z</time>
      </trkpt>
      <trkpt lat="46.32453759200871" lon="8.268783772364259">
        <ele>1768</ele>
        <time>2014-03-20T08:40:38Z</time>
      </trkpt>
      <trkpt lat="46.324578747153282" lon="8.268857700750232">
        <ele>1768.96</ele>
        <time>2014-03-20T08:40:52Z</time>
      </trkpt>
      <trkpt lat="46.324610011652112" lon="8.268903382122517">
        <ele>1768</ele>
        <time>2014-03-20T08:41:05Z</time>
      </trkpt>
      <trkpt lat="46.324615627527237" lon="8.268928192555904">
        <ele>1768</ele>
        <time>2014-03-20T08:41:22Z</time>
      </trkpt>
      <trkpt lat="46.324713360518217" lon="8.268984518945217">
        <ele>1765.5999999999999</ele>
        <time>2014-03-20T08:41:36Z</time>
      </trkpt>
      <trkpt lat="46.324742948636413" lon="8.269135560840368">
        <ele>1768</ele>
        <time>2014-03-20T08:41:52Z</time>
      </trkpt>
      <trkpt lat="46.324805058538914" lon="8.269205549731851">
        <ele>1768</ele>
        <time>2014-03-20T08:42:06Z</time>
      </trkpt>
      <trkpt lat="46.324845291674137" lon="8.269348964095116">
        <ele>1770.4100000000001</ele>
        <time>2014-03-20T08:42:26Z</time>
      </trkpt>
      <trkpt lat="46.324806148186326" lon="8.269483493641019">
        <ele>1772.3299999999999</ele>
        <time>2014-03-20T08:42:42Z</time>
      </trkpt>
      <trkpt lat="46.324859373271465" lon="8.269609892740846">
        <ele>1773.77</ele>
        <time>2014-03-20T08:42:56Z</time>
      </trkpt>
      <trkpt lat="46.324882674962282" lon="8.269807957112789">
        <ele>1774.73</ele>
        <time>2014-03-20T08:43:13Z</time>
      </trkpt>
      <trkpt lat="46.324903462082148" lon="8.269869228824973">
        <ele>1775.6900000000001</ele>
        <time>2014-03-20T08:43:20Z</time>
      </trkpt>
      <trkpt lat="46.324890637770295" lon="8.269950952380896">
        <ele>1775.6900000000001</ele>
        <time>2014-03-20T08:43:28Z</time>
      </trkpt>
      <trkpt lat="46.324867755174637" lon="8.270076597109437">
        <ele>1777.6099999999999</ele>
        <time>2014-03-20T08:43:45Z</time>
      </trkpt>
      <trkpt lat="46.324808411300182" lon="8.270197380334139">
        <ele>1780.02</ele>
        <time>2014-03-20T08:44:02Z</time>
      </trkpt>
      <trkpt lat="46.324836490675807" lon="8.270328305661678">
        <ele>1781.46</ele>
        <time>2014-03-20T08:44:17Z</time>
      </trkpt>
      <trkpt lat="46.324848309159279" lon="8.270427798852325">
        <ele>1784.3399999999999</ele>
        <time>2014-03-20T08:44:31Z</time>
      </trkpt>
      <trkpt lat="46.324843280017376" lon="8.270501811057329">
        <ele>1786.27</ele>
        <time>2014-03-20T08:44:47Z</time>
      </trkpt>
      <trkpt lat="46.324777565896511" lon="8.270625360310078">
        <ele>1789.1500000000001</ele>
        <time>2014-03-20T08:45:04Z</time>
      </trkpt>
      <trkpt lat="46.32471889257431" lon="8.270696774125099">
        <ele>1791.0699999999999</ele>
        <time>2014-03-20T08:45:19Z</time>
      </trkpt>
      <trkpt lat="46.324702464044094" lon="8.270770199596882">
        <ele>1792.03</ele>
        <time>2014-03-20T08:45:27Z</time>
      </trkpt>
      <trkpt lat="46.324677402153611" lon="8.270858125761151">
        <ele>1792.52</ele>
        <time>2014-03-20T08:45:34Z</time>
      </trkpt>
      <trkpt lat="46.324658375233412" lon="8.271062644198537">
        <ele>1792.52</ele>
        <time>2014-03-20T08:45:49Z</time>
      </trkpt>
      <trkpt lat="46.324637085199356" lon="8.271204046905041">
        <ele>1793.96</ele>
        <time>2014-03-20T08:46:05Z</time>
      </trkpt>
      <trkpt lat="46.324611101299524" lon="8.271368751302362">
        <ele>1793.48</ele>
        <time>2014-03-20T08:46:19Z</time>
      </trkpt>
      <trkpt lat="46.324599953368306" lon="8.271528342738748">
        <ele>1793.96</ele>
        <time>2014-03-20T08:46:34Z</time>
      </trkpt>
      <trkpt lat="46.324573382735252" lon="8.271668571978807">
        <ele>1793</ele>
        <time>2014-03-20T08:46:53Z</time>
      </trkpt>
      <trkpt lat="46.324564581736922" lon="8.271681144833565">
        <ele>1793</ele>
        <time>2014-03-20T08:47:03Z</time>
      </trkpt>
      <trkpt lat="46.324584363028407" lon="8.271821876987815">
        <ele>1792.03</ele>
        <time>2014-03-20T08:47:15Z</time>
      </trkpt>
      <trkpt lat="46.324579333886504" lon="8.271949281916022">
        <ele>1791.0699999999999</ele>
        <time>2014-03-20T08:47:29Z</time>
      </trkpt>
      <trkpt lat="46.324556032195687" lon="8.272044416517019">
        <ele>1790.5899999999999</ele>
        <time>2014-03-20T08:47:41Z</time>
      </trkpt>
      <trkpt lat="46.3245312217623" lon="8.272090516984463">
        <ele>1790.1099999999999</ele>
        <time>2014-03-20T08:47:56Z</time>
      </trkpt>
      <trkpt lat="46.324439607560635" lon="8.27224038541317">
        <ele>1790.1099999999999</ele>
        <time>2014-03-20T08:48:10Z</time>
      </trkpt>
      <trkpt lat="46.324431644752622" lon="8.272273913025856">
        <ele>1790.1099999999999</ele>
        <time>2014-03-20T08:48:13Z</time>
      </trkpt>
      <trkpt lat="46.324402811005712" lon="8.272404000163078">
        <ele>1793</ele>
        <time>2014-03-20T08:48:27Z</time>
      </trkpt>
      <trkpt lat="46.32440373301506" lon="8.272448843345046">
        <ele>1793</ele>
        <time>2014-03-20T08:48:31Z</time>
      </trkpt>
      <trkpt lat="46.324410522356629" lon="8.272593514993787">
        <ele>1792.03</ele>
        <time>2014-03-20T08:48:42Z</time>
      </trkpt>
      <trkpt lat="46.324449749663472" lon="8.272679513320327">
        <ele>1791.0699999999999</ele>
        <time>2014-03-20T08:48:50Z</time>
      </trkpt>
      <trkpt lat="46.324543794617057" lon="8.272838685661554">
        <ele>1790.5899999999999</ele>
        <time>2014-03-20T08:49:07Z</time>
      </trkpt>
      <trkpt lat="46.324604395776987" lon="8.272928204387426">
        <ele>1790.1099999999999</ele>
        <time>2014-03-20T08:49:18Z</time>
      </trkpt>
      <trkpt lat="46.32472911849618" lon="8.273043539375067">
        <ele>1790.1099999999999</ele>
        <time>2014-03-20T08:49:33Z</time>
      </trkpt>
      <trkpt lat="46.324792401865125" lon="8.273188630118966">
        <ele>1791.0699999999999</ele>
        <time>2014-03-20T08:49:48Z</time>
      </trkpt>
      <trkpt lat="46.324803717434406" lon="8.273215452209115">
        <ele>1790.5899999999999</ele>
        <time>2014-03-20T08:49:50Z</time>
      </trkpt>
      <trkpt lat="46.324794581159949" lon="8.273269515484572">
        <ele>1791.0699999999999</ele>
        <time>2014-03-20T08:49:59Z</time>
      </trkpt>
      <trkpt lat="46.32488208822906" lon="8.273441260680556">
        <ele>1791.0699999999999</ele>
        <time>2014-03-20T08:50:14Z</time>
      </trkpt>
      <trkpt lat="46.324944952502847" lon="8.273665979504585">
        <ele>1790.1099999999999</ele>
        <time>2014-03-20T08:50:27Z</time>
      </trkpt>
      <trkpt lat="46.324953753501177" lon="8.273748876526952">
        <ele>1788.6700000000001</ele>
        <time>2014-03-20T08:50:34Z</time>
      </trkpt>
      <trkpt lat="46.325038159266114" lon="8.273916179314256">
        <ele>1785.3099999999999</ele>
        <time>2014-03-20T08:50:47Z</time>
      </trkpt>
      <trkpt lat="46.325048971921206" lon="8.273951383307576">
        <ele>1785.3099999999999</ele>
        <time>2014-03-20T08:50:49Z</time>
      </trkpt>
      <trkpt lat="46.325139412656426" lon="8.274164367467165">
        <ele>1783.8599999999999</ele>
        <time>2014-03-20T08:51:04Z</time>
      </trkpt>
      <trkpt lat="46.325167827308178" lon="8.274235110729933">
        <ele>1783.8599999999999</ele>
        <time>2014-03-20T08:51:09Z</time>
      </trkpt>
      <trkpt lat="46.325196325778961" lon="8.274266794323921">
        <ele>1784.3399999999999</ele>
        <time>2014-03-20T08:51:22Z</time>
      </trkpt>
      <trkpt lat="46.325199594721198" lon="8.274270314723253">
        <ele>1783.8599999999999</ele>
        <time>2014-03-20T08:51:25Z</time>
      </trkpt>
      <trkpt lat="46.325217867270112" lon="8.274357905611396">
        <ele>1784.3399999999999</ele>
        <time>2014-03-20T08:51:31Z</time>
      </trkpt>
      <trkpt lat="46.32527980953455" lon="8.274606848135591">
        <ele>1784.3399999999999</ele>
        <time>2014-03-20T08:51:48Z</time>
      </trkpt>
      <trkpt lat="46.325312498956919" lon="8.274702066555619">
        <ele>1783.8599999999999</ele>
        <time>2014-03-20T08:51:56Z</time>
      </trkpt>
      <trkpt lat="46.325383996590972" lon="8.274844223633409">
        <ele>1783.8599999999999</ele>
        <time>2014-03-20T08:52:10Z</time>
      </trkpt>
      <trkpt lat="46.32548357360065" lon="8.275022339075804">
        <ele>1784.8199999999999</ele>
        <time>2014-03-20T08:52:25Z</time>
      </trkpt>
      <trkpt lat="46.325502516701818" lon="8.275065757334232">
        <ele>1784.8199999999999</ele>
        <time>2014-03-20T08:52:29Z</time>
      </trkpt>
      <trkpt lat="46.325562363490462" lon="8.275223756209016">
        <ele>1784.3399999999999</ele>
        <time>2014-03-20T08:52:43Z</time>
      </trkpt>
      <trkpt lat="46.325550293549895" lon="8.275222834199667">
        <ele>1783.8599999999999</ele>
        <time>2014-03-20T08:52:54Z</time>
      </trkpt>
      <trkpt lat="46.325569069013" lon="8.275233479216695">
        <ele>1783.8599999999999</ele>
        <time>2014-03-20T08:52:56Z</time>
      </trkpt>
      <trkpt lat="46.325743664056063" lon="8.275498012080789">
        <ele>1783.3800000000001</ele>
        <time>2014-03-20T08:53:16Z</time>
      </trkpt>
      <trkpt lat="46.325837876647711" lon="8.275718791410327">
        <ele>1782.4200000000001</ele>
        <time>2014-03-20T08:53:32Z</time>
      </trkpt>
      <trkpt lat="46.32591993547976" lon="8.275938481092453">
        <ele>1781.9400000000001</ele>
        <time>2014-03-20T08:53:47Z</time>
      </trkpt>
      <trkpt lat="46.325986320152879" lon="8.276124810799956">
        <ele>1781.9400000000001</ele>
        <time>2014-03-20T08:54:01Z</time>
      </trkpt>
      <trkpt lat="46.326067624613643" lon="8.276307033374906">
        <ele>1781.46</ele>
        <time>2014-03-20T08:54:17Z</time>
      </trkpt>
      <trkpt lat="46.326184803619981" lon="8.276520520448685">
        <ele>1782.4200000000001</ele>
        <time>2014-03-20T08:54:36Z</time>
      </trkpt>
      <trkpt lat="46.32630449719727" lon="8.276692181825638">
        <ele>1782.9000000000001</ele>
        <time>2014-03-20T08:54:52Z</time>
      </trkpt>
      <trkpt lat="46.326395105570555" lon="8.276833416894078">
        <ele>1782.4200000000001</ele>
        <time>2014-03-20T08:55:07Z</time>
      </trkpt>
      <trkpt lat="46.326410612091422" lon="8.276853114366531">
        <ele>1782.4200000000001</ele>
        <time>2014-03-20T08:55:10Z</time>
      </trkpt>
      <trkpt lat="46.326427292078733" lon="8.276864346116781">
        <ele>1782.4200000000001</ele>
        <time>2014-03-20T08:55:12Z</time>
      </trkpt>
      <trkpt lat="46.326506836339831" lon="8.276983117684722">
        <ele>1782.4200000000001</ele>
        <time>2014-03-20T08:55:27Z</time>
      </trkpt>
      <trkpt lat="46.326510943472385" lon="8.277002731338143">
        <ele>1782.4200000000001</ele>
        <time>2014-03-20T08:55:43Z</time>
      </trkpt>
      <trkpt lat="46.326502058655024" lon="8.276997618377209">
        <ele>1781.9400000000001</ele>
        <time>2014-03-20T08:56:11Z</time>
      </trkpt>
      <trkpt lat="46.326587051153183" lon="8.277100045233965">
        <ele>1781.9400000000001</ele>
        <time>2014-03-20T08:56:26Z</time>
      </trkpt>
      <trkpt lat="46.326674977317452" lon="8.277206746861339">
        <ele>1782.4200000000001</ele>
        <time>2014-03-20T08:56:42Z</time>
      </trkpt>
      <trkpt lat="46.326789306476712" lon="8.27734655700624">
        <ele>1781.9400000000001</ele>
        <time>2014-03-20T08:56:56Z</time>
      </trkpt>
      <trkpt lat="46.326891062781215" lon="8.27745501883328">
        <ele>1781.9400000000001</ele>
        <time>2014-03-20T08:57:09Z</time>
      </trkpt>
      <trkpt lat="46.326923416927457" lon="8.277497598901391">
        <ele>1781.9400000000001</ele>
        <time>2014-03-20T08:57:14Z</time>
      </trkpt>
      <trkpt lat="46.327018802985549" lon="8.277619387954474">
        <ele>1781.9400000000001</ele>
        <time>2014-03-20T08:57:28Z</time>
      </trkpt>
      <trkpt lat="46.32707747630775" lon="8.277673870325089">
        <ele>1781.9400000000001</ele>
        <time>2014-03-20T08:57:42Z</time>
      </trkpt>
      <trkpt lat="46.327205551788211" lon="8.277815943583846">
        <ele>1781.46</ele>
        <time>2014-03-20T08:57:57Z</time>
      </trkpt>
      <trkpt lat="46.327360868453979" lon="8.277967488393188">
        <ele>1781.46</ele>
        <time>2014-03-20T08:58:14Z</time>
      </trkpt>
      <trkpt lat="46.32748257368803" lon="8.27806287445128">
        <ele>1781.46</ele>
        <time>2014-03-20T08:58:30Z</time>
      </trkpt>
      <trkpt lat="46.327586257830262" lon="8.278147196397185">
        <ele>1781.46</ele>
        <time>2014-03-20T08:58:43Z</time>
      </trkpt>
      <trkpt lat="46.327710226178169" lon="8.278254400938749">
        <ele>1781.9400000000001</ele>
        <time>2014-03-20T08:59:00Z</time>
      </trkpt>
      <trkpt lat="46.327817346900702" lon="8.278348613530397">
        <ele>1781.46</ele>
        <time>2014-03-20T08:59:15Z</time>
      </trkpt>
      <trkpt lat="46.327922204509377" lon="8.278433103114367">
        <ele>1782.4200000000001</ele>
        <time>2014-03-20T08:59:28Z</time>
      </trkpt>
      <trkpt lat="46.32803862914443" lon="8.278531758114696">
        <ele>1782.4200000000001</ele>
        <time>2014-03-20T08:59:43Z</time>
      </trkpt>
      <trkpt lat="46.328126722946763" lon="8.278616750612855">
        <ele>1781.9400000000001</ele>
        <time>2014-03-20T08:59:56Z</time>
      </trkpt>
      <trkpt lat="46.328177936375141" lon="8.278650613501668">
        <ele>1782.4200000000001</ele>
        <time>2014-03-20T09:00:03Z</time>
      </trkpt>
      <trkpt lat="46.328284638002515" lon="8.278745077550411">
        <ele>1783.3800000000001</ele>
        <time>2014-03-20T09:00:17Z</time>
      </trkpt>
      <trkpt lat="46.328403241932392" lon="8.278862340375781">
        <ele>1783.8599999999999</ele>
        <time>2014-03-20T09:00:32Z</time>
      </trkpt>
      <trkpt lat="46.32851455360651" lon="8.278953200206161">
        <ele>1783.3800000000001</ele>
        <time>2014-03-20T09:00:46Z</time>
      </trkpt>
      <trkpt lat="46.328617734834552" lon="8.279035175219178">
        <ele>1784.3399999999999</ele>
        <time>2014-03-20T09:01:01Z</time>
      </trkpt>
      <trkpt lat="46.328743547201157" lon="8.279136596247554">
        <ele>1784.8199999999999</ele>
        <time>2014-03-20T09:01:17Z</time>
      </trkpt>
      <trkpt lat="46.328831221908331" lon="8.279216224327683">
        <ele>1786.27</ele>
        <time>2014-03-20T09:01:30Z</time>
      </trkpt>
      <trkpt lat="46.328948652371764" lon="8.279309934005141">
        <ele>1786.75</ele>
        <time>2014-03-20T09:01:45Z</time>
      </trkpt>
      <trkpt lat="46.329072620719671" lon="8.27941638417542">
        <ele>1787.71</ele>
        <time>2014-03-20T09:02:02Z</time>
      </trkpt>
      <trkpt lat="46.329153422266245" lon="8.27945351600647">
        <ele>1788.1900000000001</ele>
        <time>2014-03-20T09:02:18Z</time>
      </trkpt>
      <trkpt lat="46.329151578247547" lon="8.279441194608808">
        <ele>1788.1900000000001</ele>
        <time>2014-03-20T09:02:32Z</time>
      </trkpt>
      <trkpt lat="46.329151578247547" lon="8.27943691983819">
        <ele>1788.1900000000001</ele>
        <time>2014-03-20T09:02:45Z</time>
      </trkpt>
      <trkpt lat="46.329155853018165" lon="8.27947162091732">
        <ele>1787.23</ele>
        <time>2014-03-20T09:02:58Z</time>
      </trkpt>
      <trkpt lat="46.329150069504976" lon="8.279505399987102">
        <ele>1787.23</ele>
        <time>2014-03-20T09:03:20Z</time>
      </trkpt>
      <trkpt lat="46.329141519963741" lon="8.279524762183428">
        <ele>1787.23</ele>
        <time>2014-03-20T09:03:43Z</time>
      </trkpt>
      <trkpt lat="46.329131294041872" lon="8.279473297297955">
        <ele>1788.1900000000001</ele>
        <time>2014-03-20T09:04:04Z</time>
      </trkpt>
      <trkpt lat="46.329148728400469" lon="8.27945594675839">
        <ele>1788.6700000000001</ele>
        <time>2014-03-20T09:04:22Z</time>
      </trkpt>
      <trkpt lat="46.329167922958732" lon="8.279470531269908">
        <ele>1788.6700000000001</ele>
        <time>2014-03-20T09:04:40Z</time>
      </trkpt>
      <trkpt lat="46.32917957380414" lon="8.279478494077921">
        <ele>1788.6700000000001</ele>
        <time>2014-03-20T09:04:53Z</time>
      </trkpt>
      <trkpt lat="46.329162055626512" lon="8.279464580118656">
        <ele>1788.6700000000001</ele>
        <time>2014-03-20T09:05:12Z</time>
      </trkpt>
      <trkpt lat="46.329155853018165" lon="8.279480505734682">
        <ele>1788.1900000000001</ele>
        <time>2014-03-20T09:05:34Z</time>
      </trkpt>
      <trkpt lat="46.329168509691954" lon="8.279489558190107">
        <ele>1788.6700000000001</ele>
        <time>2014-03-20T09:05:56Z</time>
      </trkpt>
      <trkpt lat="46.329155266284943" lon="8.279487378895283">
        <ele>1788.6700000000001</ele>
        <time>2014-03-20T09:06:17Z</time>
      </trkpt>
      <trkpt lat="46.329147890210152" lon="8.279479248449206">
        <ele>1788.6700000000001</ele>
        <time>2014-03-20T09:06:39Z</time>
      </trkpt>
      <trkpt lat="46.329157948493958" lon="8.279470112174749">
        <ele>1789.1500000000001</ele>
        <time>2014-03-20T09:07:02Z</time>
      </trkpt>
      <trkpt lat="46.329144285991788" lon="8.279489893466234">
        <ele>1789.1500000000001</ele>
        <time>2014-03-20T09:07:22Z</time>
      </trkpt>
      <trkpt lat="46.329158116132021" lon="8.279527025297284">
        <ele>1788.6700000000001</ele>
        <time>2014-03-20T09:07:48Z</time>
      </trkpt>
      <trkpt lat="46.329160965979099" lon="8.279512356966734">
        <ele>1789.1500000000001</ele>
        <time>2014-03-20T09:08:14Z</time>
      </trkpt>
      <trkpt lat="46.329147135838866" lon="8.279481595382094">
        <ele>1789.1500000000001</ele>
        <time>2014-03-20T09:08:35Z</time>
      </trkpt>
      <trkpt lat="46.329254591837525" lon="8.279515039175749">
        <ele>1790.1099999999999</ele>
        <time>2014-03-20T09:08:49Z</time>
      </trkpt>
      <trkpt lat="46.329372022300959" lon="8.279525516554713">
        <ele>1790.5899999999999</ele>
        <time>2014-03-20T09:09:02Z</time>
      </trkpt>
      <trkpt lat="46.329527758061886" lon="8.279551584273577">
        <ele>1791.0699999999999</ele>
        <time>2014-03-20T09:09:18Z</time>
      </trkpt>
      <trkpt lat="46.329654408618808" lon="8.279581172391772">
        <ele>1792.52</ele>
        <time>2014-03-20T09:09:33Z</time>
      </trkpt>
      <trkpt lat="46.329772509634495" lon="8.279603468254209">
        <ele>1793.96</ele>
        <time>2014-03-20T09:09:47Z</time>
      </trkpt>
      <trkpt lat="46.329765804111958" lon="8.27960791066289">
        <ele>1793.48</ele>
        <time>2014-03-20T09:10:02Z</time>
      </trkpt>
      <trkpt lat="46.329766307026148" lon="8.279588129371405">
        <ele>1793.96</ele>
        <time>2014-03-20T09:10:22Z</time>
      </trkpt>
      <trkpt lat="46.329751303419471" lon="8.279590308666229">
        <ele>1793.96</ele>
        <time>2014-03-20T09:10:45Z</time>
      </trkpt>
      <trkpt lat="46.329754069447517" lon="8.279614364728332">
        <ele>1793.96</ele>
        <time>2014-03-20T09:11:05Z</time>
      </trkpt>
      <trkpt lat="46.329865716397762" lon="8.279631715267897">
        <ele>1794.4400000000001</ele>
        <time>2014-03-20T09:11:21Z</time>
      </trkpt>
      <trkpt lat="46.329886838793755" lon="8.279642527922988">
        <ele>1794.9200000000001</ele>
        <time>2014-03-20T09:11:36Z</time>
      </trkpt>
      <trkpt lat="46.329992702230811" lon="8.279665494337678">
        <ele>1795.8800000000001</ele>
        <time>2014-03-20T09:11:52Z</time>
      </trkpt>
      <trkpt lat="46.330060763284564" lon="8.279701117426157">
        <ele>1795.4000000000001</ele>
        <time>2014-03-20T09:11:58Z</time>
      </trkpt>
      <trkpt lat="46.330197807401419" lon="8.279764987528324">
        <ele>1796.8399999999999</ele>
        <time>2014-03-20T09:12:12Z</time>
      </trkpt>
      <trkpt lat="46.330337449908257" lon="8.279819972813129">
        <ele>1797.8</ele>
        <time>2014-03-20T09:12:27Z</time>
      </trkpt>
      <trkpt lat="46.330473739653826" lon="8.279842855408788">
        <ele>1799.73</ele>
        <time>2014-03-20T09:12:43Z</time>
      </trkpt>
      <trkpt lat="46.330604078248143" lon="8.27992063947022">
        <ele>1802.1300000000001</ele>
        <time>2014-03-20T09:12:59Z</time>
      </trkpt>
      <trkpt lat="46.330719999969006" lon="8.279965398833156">
        <ele>1804.05</ele>
        <time>2014-03-20T09:13:13Z</time>
      </trkpt>
      <trkpt lat="46.330765429884195" lon="8.279980150982738">
        <ele>1805.49</ele>
        <time>2014-03-20T09:13:21Z</time>
      </trkpt>
      <trkpt lat="46.33087120950222" lon="8.280018121004105">
        <ele>1807.4200000000001</ele>
        <time>2014-03-20T09:13:34Z</time>
      </trkpt>
      <trkpt lat="46.330998614430428" lon="8.280017366632819">
        <ele>1809.8199999999999</ele>
        <time>2014-03-20T09:13:52Z</time>
      </trkpt>
      <trkpt lat="46.331126019358635" lon="8.28007067553699">
        <ele>1812.7</ele>
        <time>2014-03-20T09:14:08Z</time>
      </trkpt>
      <trkpt lat="46.331240851432085" lon="8.280107891187072">
        <ele>1814.1500000000001</ele>
        <time>2014-03-20T09:14:24Z</time>
      </trkpt>
      <trkpt lat="46.331320814788342" lon="8.280130522325635">
        <ele>1815.5899999999999</ele>
        <time>2014-03-20T09:14:37Z</time>
      </trkpt>
      <trkpt lat="46.331423157826066" lon="8.280145777389407">
        <ele>1817.99</ele>
        <time>2014-03-20T09:14:52Z</time>
      </trkpt>
      <trkpt lat="46.33153329603374" lon="8.280165391042829">
        <ele>1821.3499999999999</ele>
        <time>2014-03-20T09:15:08Z</time>
      </trkpt>
      <trkpt lat="46.331625413149595" lon="8.280190201476216">
        <ele>1824.24</ele>
        <time>2014-03-20T09:15:22Z</time>
      </trkpt>
      <trkpt lat="46.331639662384987" lon="8.280187854543328">
        <ele>1824.24</ele>
        <time>2014-03-20T09:15:24Z</time>
      </trkpt>
      <trkpt lat="46.331767318770289" lon="8.28021040186286">
        <ele>1826.6400000000001</ele>
        <time>2014-03-20T09:15:40Z</time>
      </trkpt>
      <trkpt lat="46.331838816404343" lon="8.28025583177805">
        <ele>1828.5599999999999</ele>
        <time>2014-03-20T09:15:55Z</time>
      </trkpt>
      <trkpt lat="46.331914253532887" lon="8.280350128188729">
        <ele>1830.01</ele>
        <time>2014-03-20T09:16:10Z</time>
      </trkpt>
      <trkpt lat="46.332007125020027" lon="8.280418021604419">
        <ele>1831.9300000000001</ele>
        <time>2014-03-20T09:16:27Z</time>
      </trkpt>
      <trkpt lat="46.332090189680457" lon="8.280481640249491">
        <ele>1833.3699999999999</ele>
        <time>2014-03-20T09:16:42Z</time>
      </trkpt>
      <trkpt lat="46.33219781331718" lon="8.280472503975034">
        <ele>1835.29</ele>
        <time>2014-03-20T09:16:58Z</time>
      </trkpt>
      <trkpt lat="46.33224424906075" lon="8.280530674383044">
        <ele>1837.22</ele>
        <time>2014-03-20T09:17:14Z</time>
      </trkpt>
      <trkpt lat="46.332402499392629" lon="8.280605105683208">
        <ele>1840.0999999999999</ele>
        <time>2014-03-20T09:17:32Z</time>
      </trkpt>
      <trkpt lat="46.332452455535531" lon="8.280696636065841">
        <ele>1842.02</ele>
        <time>2014-03-20T09:17:50Z</time>
      </trkpt>
      <trkpt lat="46.332553122192621" lon="8.280785903334618">
        <ele>1842.98</ele>
        <time>2014-03-20T09:18:06Z</time>
      </trkpt>
      <trkpt lat="46.332655046135187" lon="8.28081532381475">
        <ele>1844.9100000000001</ele>
        <time>2014-03-20T09:18:22Z</time>
      </trkpt>
      <trkpt lat="46.332739200443029" lon="8.280845750123262">
        <ele>1848.27</ele>
        <time>2014-03-20T09:18:39Z</time>
      </trkpt>
      <trkpt lat="46.332858977839351" lon="8.280856059864163">
        <ele>1850.6800000000001</ele>
        <time>2014-03-20T09:18:57Z</time>
      </trkpt>
      <trkpt lat="46.332933325320482" lon="8.280908362939954">
        <ele>1852.1199999999999</ele>
        <time>2014-03-20T09:19:12Z</time>
      </trkpt>
      <trkpt lat="46.332947490736842" lon="8.280951026827097">
        <ele>1852.1199999999999</ele>
        <time>2014-03-20T09:19:18Z</time>
      </trkpt>
      <trkpt lat="46.333084786310792" lon="8.281013555824757">
        <ele>1853.5599999999999</ele>
        <time>2014-03-20T09:19:36Z</time>
      </trkpt>
      <trkpt lat="46.333172544836998" lon="8.281042641028762">
        <ele>1854.52</ele>
        <time>2014-03-20T09:19:47Z</time>
      </trkpt>
      <trkpt lat="46.333293160423636" lon="8.281095614656806">
        <ele>1855.96</ele>
        <time>2014-03-20T09:20:01Z</time>
      </trkpt>
      <trkpt lat="46.333431378006935" lon="8.281149426475167">
        <ele>1857.8900000000001</ele>
        <time>2014-03-20T09:20:16Z</time>
      </trkpt>
      <trkpt lat="46.333542689681053" lon="8.281170884147286">
        <ele>1859.8099999999999</ele>
        <time>2014-03-20T09:20:31Z</time>
      </trkpt>
      <trkpt lat="46.333670429885387" lon="8.281172392889857">
        <ele>1861.73</ele>
        <time>2014-03-20T09:20:47Z</time>
      </trkpt>
      <trkpt lat="46.333694402128458" lon="8.281180439516902">
        <ele>1862.21</ele>
        <time>2014-03-20T09:21:01Z</time>
      </trkpt>
      <trkpt lat="46.333689289167523" lon="8.281190330162644">
        <ele>1862.21</ele>
        <time>2014-03-20T09:21:26Z</time>
      </trkpt>
      <trkpt lat="46.333749890327454" lon="8.281207345426083">
        <ele>1863.1700000000001</ele>
        <time>2014-03-20T09:21:45Z</time>
      </trkpt>
      <trkpt lat="46.333893220871687" lon="8.281251098960638">
        <ele>1864.1300000000001</ele>
        <time>2014-03-20T09:21:59Z</time>
      </trkpt>
      <trkpt lat="46.334058344364166" lon="8.281318489462137">
        <ele>1866.0599999999999</ele>
        <time>2014-03-20T09:22:15Z</time>
      </trkpt>
      <trkpt lat="46.334217181429267" lon="8.281396022066474">
        <ele>1867.5</ele>
        <time>2014-03-20T09:22:32Z</time>
      </trkpt>
      <trkpt lat="46.334382556378841" lon="8.281434327363968">
        <ele>1868.46</ele>
        <time>2014-03-20T09:22:48Z</time>
      </trkpt>
      <trkpt lat="46.334469560533762" lon="8.281385209411383">
        <ele>1871.3399999999999</ele>
        <time>2014-03-20T09:23:02Z</time>
      </trkpt>
      <trkpt lat="46.334550529718399" lon="8.281335504725575">
        <ele>1872.79</ele>
        <time>2014-03-20T09:23:23Z</time>
      </trkpt>
      <trkpt lat="46.334617836400867" lon="8.281388729810715">
        <ele>1875.1900000000001</ele>
        <time>2014-03-20T09:23:39Z</time>
      </trkpt>
      <trkpt lat="46.334627643227577" lon="8.281410438939929">
        <ele>1874.71</ele>
        <time>2014-03-20T09:24:06Z</time>
      </trkpt>
      <trkpt lat="46.334592858329415" lon="8.281426699832082">
        <ele>1874.71</ele>
        <time>2014-03-20T09:24:27Z</time>
      </trkpt>
      <trkpt lat="46.334596378728747" lon="8.281380264088512">
        <ele>1875.1900000000001</ele>
        <time>2014-03-20T09:24:32Z</time>
      </trkpt>
      <trkpt lat="46.334674162790179" lon="8.28134304843843">
        <ele>1875.1900000000001</ele>
        <time>2014-03-20T09:24:42Z</time>
      </trkpt>
      <trkpt lat="46.334711126983166" lon="8.281402727589011">
        <ele>1874.71</ele>
        <time>2014-03-20T09:24:46Z</time>
      </trkpt>
      <trkpt lat="46.334713054820895" lon="8.281484618782997">
        <ele>1873.75</ele>
        <time>2014-03-20T09:24:58Z</time>
      </trkpt>
      <trkpt lat="46.33472353219986" lon="8.281503478065133">
        <ele>1873.27</ele>
        <time>2014-03-20T09:25:02Z</time>
      </trkpt>
      <trkpt lat="46.33472353219986" lon="8.281531138345599">
        <ele>1872.79</ele>
        <time>2014-03-20T09:25:19Z</time>
      </trkpt>
      <trkpt lat="46.334710959345102" lon="8.281520577147603">
        <ele>1873.27</ele>
        <time>2014-03-20T09:25:40Z</time>
      </trkpt>
      <trkpt lat="46.334716491401196" lon="8.281518565490842">
        <ele>1873.27</ele>
        <time>2014-03-20T09:25:55Z</time>
      </trkpt>
      <trkpt lat="46.334704589098692" lon="8.281507082283497">
        <ele>1873.75</ele>
        <time>2014-03-20T09:26:15Z</time>
      </trkpt>
      <trkpt lat="46.334733758121729" lon="8.281528288498521">
        <ele>1872.79</ele>
        <time>2014-03-20T09:26:33Z</time>
      </trkpt>
      <trkpt lat="46.334725124761462" lon="8.281544130295515">
        <ele>1873.27</ele>
        <time>2014-03-20T09:26:50Z</time>
      </trkpt>
      <trkpt lat="46.334739457815886" lon="8.281483696773648">
        <ele>1872.79</ele>
        <time>2014-03-20T09:27:11Z</time>
      </trkpt>
      <trkpt lat="46.334751276299357" lon="8.281508674845099">
        <ele>1872.79</ele>
        <time>2014-03-20T09:27:28Z</time>
      </trkpt>
      <trkpt lat="46.334749348461628" lon="8.281541028991342">
        <ele>1873.27</ele>
        <time>2014-03-20T09:27:47Z</time>
      </trkpt>
      <trkpt lat="46.334729483351111" lon="8.281536754220724">
        <ele>1873.27</ele>
        <time>2014-03-20T09:28:08Z</time>
      </trkpt>
      <trkpt lat="46.334750102832913" lon="8.281686119735241">
        <ele>1872.3</ele>
        <time>2014-03-20T09:28:25Z</time>
      </trkpt>
      <trkpt lat="46.334765022620559" lon="8.281823080033064">
        <ele>1871.3399999999999</ele>
        <time>2014-03-20T09:28:38Z</time>
      </trkpt>
      <trkpt lat="46.334757395088673" lon="8.281865660101175">
        <ele>1869.9000000000001</ele>
        <time>2014-03-20T09:28:47Z</time>
      </trkpt>
      <trkpt lat="46.334776170551777" lon="8.281932296231389">
        <ele>1868.9400000000001</ele>
        <time>2014-03-20T09:28:52Z</time>
      </trkpt>
      <trkpt lat="46.334814308211207" lon="8.282125582918525">
        <ele>1867.5</ele>
        <time>2014-03-20T09:29:07Z</time>
      </trkpt>
      <trkpt lat="46.334844650700688" lon="8.282267153263092">
        <ele>1865.0899999999999</ele>
        <time>2014-03-20T09:29:22Z</time>
      </trkpt>
      <trkpt lat="46.334874490275979" lon="8.282396150752902">
        <ele>1863.6500000000001</ele>
        <time>2014-03-20T09:29:34Z</time>
      </trkpt>
      <trkpt lat="46.33489552885294" lon="8.282606536522508">
        <ele>1860.77</ele>
        <time>2014-03-20T09:29:51Z</time>
      </trkpt>
      <trkpt lat="46.334916483610868" lon="8.282775180414319">
        <ele>1857.8900000000001</ele>
        <time>2014-03-20T09:30:06Z</time>
      </trkpt>
      <trkpt lat="46.334927044808865" lon="8.282921696081758">
        <ele>1855.96</ele>
        <time>2014-03-20T09:30:20Z</time>
      </trkpt>
      <trkpt lat="46.334931319579482" lon="8.282919265329838">
        <ele>1855.96</ele>
        <time>2014-03-20T09:30:23Z</time>
      </trkpt>
      <trkpt lat="46.334934504702687" lon="8.28294281847775">
        <ele>1855.48</ele>
        <time>2014-03-20T09:30:25Z</time>
      </trkpt>
      <trkpt lat="46.334938947111368" lon="8.283066786825657">
        <ele>1855.96</ele>
        <time>2014-03-20T09:30:38Z</time>
      </trkpt>
      <trkpt lat="46.334967697039247" lon="8.283073911443353">
        <ele>1855.96</ele>
        <time>2014-03-20T09:30:50Z</time>
      </trkpt>
      <trkpt lat="46.335007259622216" lon="8.283092267811298">
        <ele>1855.96</ele>
        <time>2014-03-20T09:30:55Z</time>
      </trkpt>
      <trkpt lat="46.33502310141921" lon="8.283107522875071">
        <ele>1855.96</ele>
        <time>2014-03-20T09:30:57Z</time>
      </trkpt>
      <trkpt lat="46.335154278203845" lon="8.28328681178391">
        <ele>1854.52</ele>
        <time>2014-03-20T09:31:13Z</time>
      </trkpt>
      <trkpt lat="46.335191074758768" lon="8.283352106809616">
        <ele>1854.52</ele>
        <time>2014-03-20T09:31:24Z</time>
      </trkpt>
      <trkpt lat="46.335276653990149" lon="8.283475656062365">
        <ele>1853.5599999999999</ele>
        <time>2014-03-20T09:31:40Z</time>
      </trkpt>
      <trkpt lat="46.335368016734719" lon="8.283588225021958">
        <ele>1853.0799999999999</ele>
        <time>2014-03-20T09:31:55Z</time>
      </trkpt>
      <trkpt lat="46.335444459691644" lon="8.283688388764858">
        <ele>1853.0799999999999</ele>
        <time>2014-03-20T09:32:05Z</time>
      </trkpt>
      <trkpt lat="46.335542276501656" lon="8.283858457580209">
        <ele>1853.0799999999999</ele>
        <time>2014-03-20T09:32:21Z</time>
      </trkpt>
      <trkpt lat="46.335600782185793" lon="8.283937079831958">
        <ele>1853.0799999999999</ele>
        <time>2014-03-20T09:32:34Z</time>
      </trkpt>
      <trkpt lat="46.335677644237876" lon="8.284050989896059">
        <ele>1852.5999999999999</ele>
        <time>2014-03-20T09:32:47Z</time>
      </trkpt>
      <trkpt lat="46.335775041952729" lon="8.284186106175184">
        <ele>1852.5999999999999</ele>
        <time>2014-03-20T09:33:01Z</time>
      </trkpt>
      <trkpt lat="46.335782250389457" lon="8.284195745363832">
        <ele>1852.5999999999999</ele>
        <time>2014-03-20T09:33:02Z</time>
      </trkpt>
      <trkpt lat="46.33586891926825" lon="8.284337399527431">
        <ele>1853.5599999999999</ele>
        <time>2014-03-20T09:33:16Z</time>
      </trkpt>
      <trkpt lat="46.335969837382436" lon="8.284496823325753">
        <ele>1853.0799999999999</ele>
        <time>2014-03-20T09:33:31Z</time>
      </trkpt>
      <trkpt lat="46.336078634485602" lon="8.284640070050955">
        <ele>1853.0799999999999</ele>
        <time>2014-03-20T09:33:46Z</time>
      </trkpt>
      <trkpt lat="46.336126578971744" lon="8.284780383110046">
        <ele>1853.0799999999999</ele>
        <time>2014-03-20T09:34:01Z</time>
      </trkpt>
      <trkpt lat="46.336136804893613" lon="8.28474878333509">
        <ele>1853.5599999999999</ele>
        <time>2014-03-20T09:34:18Z</time>
      </trkpt>
      <trkpt lat="46.336187347769737" lon="8.284844420850277">
        <ele>1853.5599999999999</ele>
        <time>2014-03-20T09:34:36Z</time>
      </trkpt>
      <trkpt lat="46.336290528997779" lon="8.285026140511036">
        <ele>1853.5599999999999</ele>
        <time>2014-03-20T09:34:50Z</time>
      </trkpt>
      <trkpt lat="46.336421454325318" lon="8.285257397219539">
        <ele>1853.5599999999999</ele>
        <time>2014-03-20T09:35:07Z</time>
      </trkpt>
      <trkpt lat="46.336436877027154" lon="8.285282291471958">
        <ele>1853.5599999999999</ele>
        <time>2014-03-20T09:35:09Z</time>
      </trkpt>
      <trkpt lat="46.33648406714201" lon="8.285383377224207">
        <ele>1853.5599999999999</ele>
        <time>2014-03-20T09:35:17Z</time>
      </trkpt>
      <trkpt lat="46.336622117087245" lon="8.285563001409173">
        <ele>1853.5599999999999</ele>
        <time>2014-03-20T09:35:32Z</time>
      </trkpt>
      <trkpt lat="46.336701745167375" lon="8.28575586900115">
        <ele>1853.5599999999999</ele>
        <time>2014-03-20T09:35:45Z</time>
      </trkpt>
      <trkpt lat="46.336742481216788" lon="8.285841783508658">
        <ele>1853.0799999999999</ele>
        <time>2014-03-20T09:35:51Z</time>
      </trkpt>
      <trkpt lat="46.336761089041829" lon="8.285903725773096">
        <ele>1853.5599999999999</ele>
        <time>2014-03-20T09:35:55Z</time>
      </trkpt>
      <trkpt lat="46.336875334382057" lon="8.286125678569078">
        <ele>1852.5999999999999</ele>
        <time>2014-03-20T09:36:12Z</time>
      </trkpt>
      <trkpt lat="46.336954962462187" lon="8.286325754597783">
        <ele>1853.0799999999999</ele>
        <time>2014-03-20T09:36:27Z</time>
      </trkpt>
      <trkpt lat="46.336972815915942" lon="8.286358276382089">
        <ele>1852.5999999999999</ele>
        <time>2014-03-20T09:36:30Z</time>
      </trkpt>
      <trkpt lat="46.337044313549995" lon="8.286556592211127">
        <ele>1853.0799999999999</ele>
        <time>2014-03-20T09:36:45Z</time>
      </trkpt>
      <trkpt lat="46.337065268307924" lon="8.28662951476872">
        <ele>1853.0799999999999</ele>
        <time>2014-03-20T09:37:00Z</time>
      </trkpt>
      <trkpt lat="46.337114050984383" lon="8.286784747615457">
        <ele>1853.0799999999999</ele>
        <time>2014-03-20T09:37:19Z</time>
      </trkpt>
      <trkpt lat="46.33711882866919" lon="8.286795895546675">
        <ele>1852.5999999999999</ele>
        <time>2014-03-20T09:37:25Z</time>
      </trkpt>
      <trkpt lat="46.337154200300574" lon="8.28685138374567">
        <ele>1853.0799999999999</ele>
        <time>2014-03-20T09:37:37Z</time>
      </trkpt>
      <trkpt lat="46.337173311039805" lon="8.286927491426468">
        <ele>1852.5999999999999</ele>
        <time>2014-03-20T09:37:50Z</time>
      </trkpt>
      <trkpt lat="46.337221842259169" lon="8.28705950640142">
        <ele>1852.5999999999999</ele>
        <time>2014-03-20T09:38:06Z</time>
      </trkpt>
      <trkpt lat="46.337288226932287" lon="8.287294702604413">
        <ele>1852.5999999999999</ele>
        <time>2014-03-20T09:38:22Z</time>
      </trkpt>
      <trkpt lat="46.337383110076189" lon="8.287500143051148">
        <ele>1852.5999999999999</ele>
        <time>2014-03-20T09:38:38Z</time>
      </trkpt>
      <trkpt lat="46.337471371516585" lon="8.287678090855479">
        <ele>1853.0799999999999</ele>
        <time>2014-03-20T09:38:52Z</time>
      </trkpt>
      <trkpt lat="46.337553933262825" lon="8.287858301773667">
        <ele>1853.0799999999999</ele>
        <time>2014-03-20T09:39:08Z</time>
      </trkpt>
      <trkpt lat="46.337616797536612" lon="8.288011020049453">
        <ele>1853.0799999999999</ele>
        <time>2014-03-20T09:39:24Z</time>
      </trkpt>
      <trkpt lat="46.337666418403387" lon="8.288167342543602">
        <ele>1852.5999999999999</ele>
        <time>2014-03-20T09:39:39Z</time>
      </trkpt>
      <trkpt lat="46.337712518870831" lon="8.288319977000356">
        <ele>1853.0799999999999</ele>
        <time>2014-03-20T09:39:53Z</time>
      </trkpt>
      <trkpt lat="46.337746968492866" lon="8.288498092442751">
        <ele>1852.5999999999999</ele>
        <time>2014-03-20T09:40:07Z</time>
      </trkpt>
      <trkpt lat="46.337801199406385" lon="8.28867981210351">
        <ele>1852.5999999999999</ele>
        <time>2014-03-20T09:40:22Z</time>
      </trkpt>
      <trkpt lat="46.337879989296198" lon="8.288890616968274">
        <ele>1852.5999999999999</ele>
        <time>2014-03-20T09:40:37Z</time>
      </trkpt>
      <trkpt lat="46.337952073663473" lon="8.289075521752238">
        <ele>1852.5999999999999</ele>
        <time>2014-03-20T09:40:52Z</time>
      </trkpt>
      <trkpt lat="46.338015524670482" lon="8.289242992177606">
        <ele>1853.0799999999999</ele>
        <time>2014-03-20T09:41:06Z</time>
      </trkpt>
      <trkpt lat="46.338102864101529" lon="8.289439212530851">
        <ele>1852.5999999999999</ele>
        <time>2014-03-20T09:41:21Z</time>
      </trkpt>
      <trkpt lat="46.338164890184999" lon="8.289611209183931">
        <ele>1852.5999999999999</ele>
        <time>2014-03-20T09:41:36Z</time>
      </trkpt>
      <trkpt lat="46.338239153847098" lon="8.289847411215305">
        <ele>1852.5999999999999</ele>
        <time>2014-03-20T09:41:54Z</time>
      </trkpt>
      <trkpt lat="46.338310316205025" lon="8.290005745366216">
        <ele>1852.5999999999999</ele>
        <time>2014-03-20T09:42:08Z</time>
      </trkpt>
      <trkpt lat="46.338319703936577" lon="8.290016055107117">
        <ele>1852.5999999999999</ele>
        <time>2014-03-20T09:42:09Z</time>
      </trkpt>
      <trkpt lat="46.338401343673468" lon="8.2902189809829">
        <ele>1852.5999999999999</ele>
        <time>2014-03-20T09:42:26Z</time>
      </trkpt>
      <trkpt lat="46.338461190462112" lon="8.290400449186564">
        <ele>1853.0799999999999</ele>
        <time>2014-03-20T09:42:41Z</time>
      </trkpt>
      <trkpt lat="46.338532520458102" lon="8.290577055886388">
        <ele>1852.5999999999999</ele>
        <time>2014-03-20T09:42:56Z</time>
      </trkpt>
      <trkpt lat="46.338604688644409" lon="8.290765900164843">
        <ele>1852.5999999999999</ele>
        <time>2014-03-20T09:43:11Z</time>
      </trkpt>
      <trkpt lat="46.338682053610682" lon="8.2909270003438">
        <ele>1852.5999999999999</ele>
        <time>2014-03-20T09:43:25Z</time>
      </trkpt>
      <trkpt lat="46.338755898177624" lon="8.291066056117415">
        <ele>1852.5999999999999</ele>
        <time>2014-03-20T09:43:39Z</time>
      </trkpt>
      <trkpt lat="46.338760005310178" lon="8.291074438020587">
        <ele>1852.5999999999999</ele>
        <time>2014-03-20T09:43:40Z</time>
      </trkpt>
      <trkpt lat="46.338840471580625" lon="8.29124215990305">
        <ele>1853.0799999999999</ele>
        <time>2014-03-20T09:43:55Z</time>
      </trkpt>
      <trkpt lat="46.338906185701489" lon="8.291388172656298">
        <ele>1853.5599999999999</ele>
        <time>2014-03-20T09:44:09Z</time>
      </trkpt>
      <trkpt lat="46.338958237320185" lon="8.291488084942102">
        <ele>1853.5599999999999</ele>
        <time>2014-03-20T09:44:20Z</time>
      </trkpt>
      <trkpt lat="46.338990340009332" lon="8.291531000286341">
        <ele>1854.04</ele>
        <time>2014-03-20T09:44:28Z</time>
      </trkpt>
      <trkpt lat="46.339008193463087" lon="8.291573161259294">
        <ele>1853.5599999999999</ele>
        <time>2014-03-20T09:44:32Z</time>
      </trkpt>
      <trkpt lat="46.339119672775269" lon="8.291755216196179">
        <ele>1852.5999999999999</ele>
        <time>2014-03-20T09:44:46Z</time>
      </trkpt>
      <trkpt lat="46.339143561199307" lon="8.291818080469966">
        <ele>1853.0799999999999</ele>
        <time>2014-03-20T09:44:58Z</time>
      </trkpt>
      <trkpt lat="46.339147752150893" lon="8.291857894510031">
        <ele>1852.1199999999999</ele>
        <time>2014-03-20T09:45:01Z</time>
      </trkpt>
      <trkpt lat="46.339260321110487" lon="8.291980102658272">
        <ele>1852.5999999999999</ele>
        <time>2014-03-20T09:45:17Z</time>
      </trkpt>
      <trkpt lat="46.339286472648382" lon="8.291993597522378">
        <ele>1853.5599999999999</ele>
        <time>2014-03-20T09:45:32Z</time>
      </trkpt>
      <trkpt lat="46.339353360235691" lon="8.292076997458935">
        <ele>1853.0799999999999</ele>
        <time>2014-03-20T09:45:42Z</time>
      </trkpt>
      <trkpt lat="46.339482609182596" lon="8.292236672714353">
        <ele>1853.0799999999999</ele>
        <time>2014-03-20T09:45:58Z</time>
      </trkpt>
      <trkpt lat="46.339548574760556" lon="8.292351504787803">
        <ele>1852.1199999999999</ele>
        <time>2014-03-20T09:46:08Z</time>
      </trkpt>
      <trkpt lat="46.339628370478749" lon="8.292392827570438">
        <ele>1853.0799999999999</ele>
        <time>2014-03-20T09:46:17Z</time>
      </trkpt>
      <trkpt lat="46.339803216978908" lon="8.292483268305659">
        <ele>1853.0799999999999</ele>
        <time>2014-03-20T09:46:35Z</time>
      </trkpt>
      <trkpt lat="46.339919306337833" lon="8.292554682120681">
        <ele>1853.0799999999999</ele>
        <time>2014-03-20T09:46:50Z</time>
      </trkpt>
      <trkpt lat="46.34006280452013" lon="8.292639506980777">
        <ele>1853.0799999999999</ele>
        <time>2014-03-20T09:47:06Z</time>
      </trkpt>
      <trkpt lat="46.340193562209606" lon="8.292720979079604">
        <ele>1854.04</ele>
        <time>2014-03-20T09:47:21Z</time>
      </trkpt>
      <trkpt lat="46.340215019881725" lon="8.292731288820505">
        <ele>1853.0799999999999</ele>
        <time>2014-03-20T09:47:37Z</time>
      </trkpt>
      <trkpt lat="46.340241674333811" lon="8.292746460065246">
        <ele>1853.0799999999999</ele>
        <time>2014-03-20T09:47:52Z</time>
      </trkpt>
      <trkpt lat="46.340227425098419" lon="8.292736485600472">
        <ele>1853.0799999999999</ele>
        <time>2014-03-20T09:48:08Z</time>
      </trkpt>
      <trkpt lat="46.340217115357518" lon="8.292729277163744">
        <ele>1853.5599999999999</ele>
        <time>2014-03-20T09:48:34Z</time>
      </trkpt>
      <trkpt lat="46.340354830026627" lon="8.292815778404474">
        <ele>1853.5599999999999</ele>
        <time>2014-03-20T09:48:52Z</time>
      </trkpt>
      <trkpt lat="46.34055339731276" lon="8.292898843064904">
        <ele>1854.52</ele>
        <time>2014-03-20T09:49:11Z</time>
      </trkpt>
      <trkpt lat="46.340709635987878" lon="8.292978471145034">
        <ele>1854.52</ele>
        <time>2014-03-20T09:49:26Z</time>
      </trkpt>
      <trkpt lat="46.340868724510074" lon="8.293082322925329">
        <ele>1855.48</ele>
        <time>2014-03-20T09:49:42Z</time>
      </trkpt>
      <trkpt lat="46.341004930436611" lon="8.293130854144692">
        <ele>1855.96</ele>
        <time>2014-03-20T09:49:56Z</time>
      </trkpt>
      <trkpt lat="46.341159911826253" lon="8.293185336515307">
        <ele>1856.4400000000001</ele>
        <time>2014-03-20T09:50:12Z</time>
      </trkpt>
      <trkpt lat="46.341296033933759" lon="8.293197154998779">
        <ele>1856.9200000000001</ele>
        <time>2014-03-20T09:50:26Z</time>
      </trkpt>
      <trkpt lat="46.341424444690347" lon="8.29320453107357">
        <ele>1857.4000000000001</ele>
        <time>2014-03-20T09:50:39Z</time>
      </trkpt>
      <trkpt lat="46.341505832970142" lon="8.293232610449195">
        <ele>1857.8900000000001</ele>
        <time>2014-03-20T09:50:52Z</time>
      </trkpt>
      <trkpt lat="46.341629214584827" lon="8.293281896039844">
        <ele>1858.8499999999999</ele>
        <time>2014-03-20T09:51:06Z</time>
      </trkpt>
      <trkpt lat="46.341708423569798" lon="8.293320033699274">
        <ele>1859.3299999999999</ele>
        <time>2014-03-20T09:51:20Z</time>
      </trkpt>
      <trkpt lat="46.341840773820877" lon="8.293390860781074">
        <ele>1859.8099999999999</ele>
        <time>2014-03-20T09:51:34Z</time>
      </trkpt>
      <trkpt lat="46.341988295316696" lon="8.293463112786412">
        <ele>1860.29</ele>
        <time>2014-03-20T09:51:49Z</time>
      </trkpt>
      <trkpt lat="46.342120729386806" lon="8.293495299294591">
        <ele>1859.8099999999999</ele>
        <time>2014-03-20T09:52:02Z</time>
      </trkpt>
      <trkpt lat="46.342291636392474" lon="8.293564366176724">
        <ele>1860.29</ele>
        <time>2014-03-20T09:52:19Z</time>
      </trkpt>
      <trkpt lat="46.342454580590129" lon="8.293641982600093">
        <ele>1859.8099999999999</ele>
        <time>2014-03-20T09:52:34Z</time>
      </trkpt>
      <trkpt lat="46.342631690204144" lon="8.293707612901926">
        <ele>1859.3299999999999</ele>
        <time>2014-03-20T09:52:50Z</time>
      </trkpt>
      <trkpt lat="46.342748533934355" lon="8.293747259303927">
        <ele>1859.8099999999999</ele>
        <time>2014-03-20T09:53:01Z</time>
      </trkpt>
      <trkpt lat="46.342908293008804" lon="8.293814985081554">
        <ele>1859.3299999999999</ele>
        <time>2014-03-20T09:53:17Z</time>
      </trkpt>
      <trkpt lat="46.343093952164054" lon="8.293887823820114">
        <ele>1858.8499999999999</ele>
        <time>2014-03-20T09:53:34Z</time>
      </trkpt>
      <trkpt lat="46.343243736773729" lon="8.293923446908593">
        <ele>1857.8900000000001</ele>
        <time>2014-03-20T09:53:50Z</time>
      </trkpt>
      <trkpt lat="46.343239964917302" lon="8.293949346989393">
        <ele>1857.8900000000001</ele>
        <time>2014-03-20T09:54:04Z</time>
      </trkpt>
      <trkpt lat="46.34337080642581" lon="8.293981198221445">
        <ele>1857.4000000000001</ele>
        <time>2014-03-20T09:54:17Z</time>
      </trkpt>
      <trkpt lat="46.343527464196086" lon="8.294048840180039">
        <ele>1857.4000000000001</ele>
        <time>2014-03-20T09:54:33Z</time>
      </trkpt>
      <trkpt lat="46.343703148886561" lon="8.294110866263509">
        <ele>1856.4400000000001</ele>
        <time>2014-03-20T09:54:48Z</time>
      </trkpt>
      <trkpt lat="46.34386089630425" lon="8.294153530150652">
        <ele>1855.96</ele>
        <time>2014-03-20T09:55:02Z</time>
      </trkpt>
      <trkpt lat="46.344015123322606" lon="8.294236846268177">
        <ele>1855.48</ele>
        <time>2014-03-20T09:55:17Z</time>
      </trkpt>
      <trkpt lat="46.34418879635632" lon="8.294330891221762">
        <ele>1855.48</ele>
        <time>2014-03-20T09:55:33Z</time>
      </trkpt>
      <trkpt lat="46.344370767474174" lon="8.294420912861824">
        <ele>1855</ele>
        <time>2014-03-20T09:55:49Z</time>
      </trkpt>
      <trkpt lat="46.344532622024417" lon="8.294504396617413">
        <ele>1855</ele>
        <time>2014-03-20T09:56:04Z</time>
      </trkpt>
      <trkpt lat="46.344696907326579" lon="8.294578827917576">
        <ele>1854.52</ele>
        <time>2014-03-20T09:56:20Z</time>
      </trkpt>
      <trkpt lat="46.344732362776995" lon="8.294587209820747">
        <ele>1854.52</ele>
        <time>2014-03-20T09:56:34Z</time>
      </trkpt>
      <trkpt lat="46.344837304204702" lon="8.294633477926254">
        <ele>1855</ele>
        <time>2014-03-20T09:56:53Z</time>
      </trkpt>
      <trkpt lat="46.345016257837415" lon="8.294710088521242">
        <ele>1855</ele>
        <time>2014-03-20T09:57:09Z</time>
      </trkpt>
      <trkpt lat="46.345172580331564" lon="8.294781418517232">
        <ele>1854.52</ele>
        <time>2014-03-20T09:57:24Z</time>
      </trkpt>
      <trkpt lat="46.345246257260442" lon="8.294815616682172">
        <ele>1854.52</ele>
        <time>2014-03-20T09:57:36Z</time>
      </trkpt>
      <trkpt lat="46.345412218943238" lon="8.294897424057126">
        <ele>1854.52</ele>
        <time>2014-03-20T09:57:51Z</time>
      </trkpt>
      <trkpt lat="46.345573235303164" lon="8.294959533959627">
        <ele>1854.04</ele>
        <time>2014-03-20T09:58:05Z</time>
      </trkpt>
      <trkpt lat="46.345736095681787" lon="8.295020051300526">
        <ele>1854.52</ele>
        <time>2014-03-20T09:58:20Z</time>
      </trkpt>
      <trkpt lat="46.345894346013665" lon="8.295086352154613">
        <ele>1855</ele>
        <time>2014-03-20T09:58:35Z</time>
      </trkpt>
      <trkpt lat="46.346096098423004" lon="8.295177044346929">
        <ele>1854.52</ele>
        <time>2014-03-20T09:58:53Z</time>
      </trkpt>
      <trkpt lat="46.346151418983936" lon="8.295191964134574">
        <ele>1854.52</ele>
        <time>2014-03-20T09:59:01Z</time>
      </trkpt>
      <trkpt lat="46.346329115331173" lon="8.295258181169629">
        <ele>1854.52</ele>
        <time>2014-03-20T09:59:18Z</time>
      </trkpt>
      <trkpt lat="46.346426429226995" lon="8.295287601649761">
        <ele>1854.52</ele>
        <time>2014-03-20T09:59:27Z</time>
      </trkpt>
      <trkpt lat="46.346581075340509" lon="8.295352812856436">
        <ele>1855.48</ele>
        <time>2014-03-20T09:59:43Z</time>
      </trkpt>
      <trkpt lat="46.346759023144841" lon="8.295418862253428">
        <ele>1855.48</ele>
        <time>2014-03-20T10:00:00Z</time>
      </trkpt>
      <trkpt lat="46.346867987886071" lon="8.295462699607015">
        <ele>1855.48</ele>
        <time>2014-03-20T10:00:12Z</time>
      </trkpt>
      <trkpt lat="46.34701207280159" lon="8.295513326302171">
        <ele>1855.48</ele>
        <time>2014-03-20T10:00:27Z</time>
      </trkpt>
      <trkpt lat="46.347192535176873" lon="8.295580800622702">
        <ele>1855.96</ele>
        <time>2014-03-20T10:00:45Z</time>
      </trkpt>
      <trkpt lat="46.347314156591892" lon="8.295646598562598">
        <ele>1855.96</ele>
        <time>2014-03-20T10:01:00Z</time>
      </trkpt>
      <trkpt lat="46.347422869876027" lon="8.295687669888139">
        <ele>1855.96</ele>
        <time>2014-03-20T10:01:11Z</time>
      </trkpt>
      <trkpt lat="46.347583131864667" lon="8.295727148652077">
        <ele>1855.96</ele>
        <time>2014-03-20T10:01:27Z</time>
      </trkpt>
      <trkpt lat="46.347711123526096" lon="8.295779284089804">
        <ele>1855.96</ele>
        <time>2014-03-20T10:01:40Z</time>
      </trkpt>
      <trkpt lat="46.347851771861315" lon="8.295822953805327">
        <ele>1855.48</ele>
        <time>2014-03-20T10:01:55Z</time>
      </trkpt>
      <trkpt lat="46.347961826249957" lon="8.295880537480116">
        <ele>1856.4400000000001</ele>
        <time>2014-03-20T10:02:09Z</time>
      </trkpt>
      <trkpt lat="46.348090404644608" lon="8.295930242165923">
        <ele>1856.4400000000001</ele>
        <time>2014-03-20T10:02:23Z</time>
      </trkpt>
      <trkpt lat="46.348238093778491" lon="8.295993274077773">
        <ele>1855.96</ele>
        <time>2014-03-20T10:02:39Z</time>
      </trkpt>
      <trkpt lat="46.348363654688001" lon="8.296058904379606">
        <ele>1856.4400000000001</ele>
        <time>2014-03-20T10:02:54Z</time>
      </trkpt>
      <trkpt lat="46.34850924834609" lon="8.296124450862408">
        <ele>1856.4400000000001</ele>
        <time>2014-03-20T10:03:11Z</time>
      </trkpt>
      <trkpt lat="46.348630953580141" lon="8.296177173033357">
        <ele>1856.9200000000001</ele>
        <time>2014-03-20T10:03:26Z</time>
      </trkpt>
      <trkpt lat="46.348759364336729" lon="8.296244228258729">
        <ele>1856.9200000000001</ele>
        <time>2014-03-20T10:03:41Z</time>
      </trkpt>
      <trkpt lat="46.348857264965773" lon="8.296304829418659">
        <ele>1857.8900000000001</ele>
        <time>2014-03-20T10:03:55Z</time>
      </trkpt>
      <trkpt lat="46.348843853920698" lon="8.296312540769577">
        <ele>1857.8900000000001</ele>
        <time>2014-03-20T10:04:09Z</time>
      </trkpt>
      <trkpt lat="46.348839830607176" lon="8.29631513915956">
        <ele>1857.8900000000001</ele>
        <time>2014-03-20T10:04:33Z</time>
      </trkpt>
      <trkpt lat="46.348811751231551" lon="8.29631513915956">
        <ele>1857.8900000000001</ele>
        <time>2014-03-20T10:04:45Z</time>
      </trkpt>
      <trkpt lat="46.348801106214523" lon="8.296292088925839">
        <ele>1858.3699999999999</ele>
        <time>2014-03-20T10:05:14Z</time>
      </trkpt>
      <trkpt lat="46.348833376541734" lon="8.296319581568241">
        <ele>1858.3699999999999</ele>
        <time>2014-03-20T10:05:31Z</time>
      </trkpt>
      <trkpt lat="46.348808398470283" lon="8.29632394015789">
        <ele>1857.8900000000001</ele>
        <time>2014-03-20T10:05:38Z</time>
      </trkpt>
      <trkpt lat="46.348832370713353" lon="8.296297872439027">
        <ele>1858.3699999999999</ele>
        <time>2014-03-20T10:05:41Z</time>
      </trkpt>
      <trkpt lat="46.348997242748737" lon="8.296376997604966">
        <ele>1859.8099999999999</ele>
        <time>2014-03-20T10:05:59Z</time>
      </trkpt>
      <trkpt lat="46.349144680425525" lon="8.296498116105795">
        <ele>1859.8099999999999</ele>
        <time>2014-03-20T10:06:15Z</time>
      </trkpt>
      <trkpt lat="46.3492685649544" lon="8.296565422788262">
        <ele>1860.77</ele>
        <time>2014-03-20T10:06:29Z</time>
      </trkpt>
      <trkpt lat="46.349331177771091" lon="8.296606242656708">
        <ele>1861.25</ele>
        <time>2014-03-20T10:06:41Z</time>
      </trkpt>
      <trkpt lat="46.349425977095962" lon="8.296663574874401">
        <ele>1861.25</ele>
        <time>2014-03-20T10:06:58Z</time>
      </trkpt>
      <trkpt lat="46.349605266004801" lon="8.296757033094764">
        <ele>1862.21</ele>
        <time>2014-03-20T10:07:17Z</time>
      </trkpt>
      <trkpt lat="46.349779525771737" lon="8.296893490478396">
        <ele>1863.6500000000001</ele>
        <time>2014-03-20T10:07:35Z</time>
      </trkpt>
      <trkpt lat="46.349906343966722" lon="8.296958282589912">
        <ele>1864.1300000000001</ele>
        <time>2014-03-20T10:07:50Z</time>
      </trkpt>
      <trkpt lat="46.349999634549022" lon="8.297006143257022">
        <ele>1864.6099999999999</ele>
        <time>2014-03-20T10:08:04Z</time>
      </trkpt>
      <trkpt lat="46.350113544613123" lon="8.297066241502762">
        <ele>1865.0899999999999</ele>
        <time>2014-03-20T10:08:18Z</time>
      </trkpt>
      <trkpt lat="46.350104743614793" lon="8.297057105228305">
        <ele>1865.0899999999999</ele>
        <time>2014-03-20T10:08:23Z</time>
      </trkpt>
      <trkpt lat="46.350108431652188" lon="8.297072947025299">
        <ele>1863.1700000000001</ele>
        <time>2014-03-20T10:08:33Z</time>
      </trkpt>
      <trkpt lat="46.350082280114293" lon="8.297113347798586">
        <ele>1863.6500000000001</ele>
        <time>2014-03-20T10:09:05Z</time>
      </trkpt>
      <trkpt lat="46.350083621218801" lon="8.297102702781558">
        <ele>1863.1700000000001</ele>
        <time>2014-03-20T10:09:48Z</time>
      </trkpt>
      <trkpt lat="46.350090578198433" lon="8.297103038057685">
        <ele>1863.1700000000001</ele>
        <time>2014-03-20T10:10:29Z</time>
      </trkpt>
      <trkpt lat="46.350104156881571" lon="8.297119131311774">
        <ele>1863.1700000000001</ele>
        <time>2014-03-20T10:10:50Z</time>
      </trkpt>
      <trkpt lat="46.350114466622472" lon="8.297128854319453">
        <ele>1863.1700000000001</ele>
        <time>2014-03-20T10:11:13Z</time>
      </trkpt>
      <trkpt lat="46.350103570148349" lon="8.297101529315114">
        <ele>1863.6500000000001</ele>
        <time>2014-03-20T10:11:44Z</time>
      </trkpt>
      <trkpt lat="46.350103402510285" lon="8.297087950631976">
        <ele>1863.1700000000001</ele>
        <time>2014-03-20T10:12:21Z</time>
      </trkpt>
      <trkpt lat="46.35010558180511" lon="8.297104882076383">
        <ele>1863.1700000000001</ele>
        <time>2014-03-20T10:12:54Z</time>
      </trkpt>
      <trkpt lat="46.350091164931655" lon="8.297062888741493">
        <ele>1864.6099999999999</ele>
        <time>2014-03-20T10:13:15Z</time>
      </trkpt>
      <trkpt lat="46.350078089162707" lon="8.297069175168872">
        <ele>1864.1300000000001</ele>
        <time>2014-03-20T10:13:35Z</time>
      </trkpt>
      <trkpt lat="46.350049339234829" lon="8.2970798201859">
        <ele>1864.6099999999999</ele>
        <time>2014-03-20T10:13:48Z</time>
      </trkpt>
      <trkpt lat="46.350110359489918" lon="8.297066492959857">
        <ele>1865.0899999999999</ele>
        <time>2014-03-20T10:14:02Z</time>
      </trkpt>
      <trkpt lat="46.350134750828147" lon="8.297080993652344">
        <ele>1865.0899999999999</ele>
        <time>2014-03-20T10:14:22Z</time>
      </trkpt>
      <trkpt lat="46.350146736949682" lon="8.297094404697418">
        <ele>1865.0899999999999</ele>
        <time>2014-03-20T10:14:37Z</time>
      </trkpt>
      <trkpt lat="46.350156292319298" lon="8.297126004472375">
        <ele>1866.54</ele>
        <time>2014-03-20T10:15:03Z</time>
      </trkpt>
      <trkpt lat="46.350155957043171" lon="8.297123741358519">
        <ele>1866.54</ele>
        <time>2014-03-20T10:15:04Z</time>
      </trkpt>
      <trkpt lat="46.350158387795091" lon="8.29710815101862">
        <ele>1865.5799999999999</ele>
        <time>2014-03-20T10:15:09Z</time>
      </trkpt>
      <trkpt lat="46.350151933729649" lon="8.29710521735251">
        <ele>1865.5799999999999</ele>
        <time>2014-03-20T10:15:35Z</time>
      </trkpt>
      <trkpt lat="46.350142294541001" lon="8.297110162675381">
        <ele>1865.5799999999999</ele>
        <time>2014-03-20T10:15:51Z</time>
      </trkpt>
      <trkpt lat="46.350166434422135" lon="8.297117622569203">
        <ele>1865.5799999999999</ele>
        <time>2014-03-20T10:15:54Z</time>
      </trkpt>
      <trkpt lat="46.35032007470727" lon="8.297184174880385">
        <ele>1866.54</ele>
        <time>2014-03-20T10:16:11Z</time>
      </trkpt>
      <trkpt lat="46.350467847660184" lon="8.297223653644323">
        <ele>1867.98</ele>
        <time>2014-03-20T10:16:26Z</time>
      </trkpt>
      <trkpt lat="46.35057270526886" lon="8.297271681949496">
        <ele>1868.9400000000001</ele>
        <time>2014-03-20T10:16:41Z</time>
      </trkpt>
      <trkpt lat="46.350715532898903" lon="8.29731535166502">
        <ele>1870.3800000000001</ele>
        <time>2014-03-20T10:16:59Z</time>
      </trkpt>
      <trkpt lat="46.350868502631783" lon="8.297369666397572">
        <ele>1871.8199999999999</ele>
        <time>2014-03-20T10:17:17Z</time>
      </trkpt>
      <trkpt lat="46.351008899509907" lon="8.297392800450325">
        <ele>1873.75</ele>
        <time>2014-03-20T10:17:35Z</time>
      </trkpt>
      <trkpt lat="46.351124318316579" lon="8.297425154596567">
        <ele>1874.71</ele>
        <time>2014-03-20T10:17:49Z</time>
      </trkpt>
      <trkpt lat="46.351252729073167" lon="8.297469997778535">
        <ele>1876.1500000000001</ele>
        <time>2014-03-20T10:18:04Z</time>
      </trkpt>
      <trkpt lat="46.35136479511857" lon="8.297540573403239">
        <ele>1878.0699999999999</ele>
        <time>2014-03-20T10:18:20Z</time>
      </trkpt>
      <trkpt lat="46.351495971903205" lon="8.297585919499397">
        <ele>1880</ele>
        <time>2014-03-20T10:18:36Z</time>
      </trkpt>
      <trkpt lat="46.351608708500862" lon="8.29762171022594">
        <ele>1880.48</ele>
        <time>2014-03-20T10:18:52Z</time>
      </trkpt>
      <trkpt lat="46.351674925535917" lon="8.297637719660997">
        <ele>1881.4400000000001</ele>
        <time>2014-03-20T10:19:05Z</time>
      </trkpt>
      <trkpt lat="46.351790260523558" lon="8.297687927260995">
        <ele>1883.3599999999999</ele>
        <time>2014-03-20T10:19:21Z</time>
      </trkpt>
      <trkpt lat="46.35190811008215" lon="8.297744253650308">
        <ele>1885.28</ele>
        <time>2014-03-20T10:19:37Z</time>
      </trkpt>
      <trkpt lat="46.351613653823733" lon="8.297618692740798">
        <ele>1886.24</ele>
        <time>2014-03-20T10:21:40Z</time>
      </trkpt>
      <trkpt lat="46.352262664586306" lon="8.297833520919085">
        <ele>1888.1700000000001</ele>
        <time>2014-03-20T10:22:02Z</time>
      </trkpt>
      <trkpt lat="46.352283032611012" lon="8.297887500375509">
        <ele>1891.05</ele>
        <time>2014-03-20T10:22:08Z</time>
      </trkpt>
      <trkpt lat="46.352277416735888" lon="8.297881800681353">
        <ele>1886.24</ele>
        <time>2014-03-20T10:22:18Z</time>
      </trkpt>
      <trkpt lat="46.352276410907507" lon="8.297893367707729">
        <ele>1893.9300000000001</ele>
        <time>2014-03-20T10:22:19Z</time>
      </trkpt>
      <trkpt lat="46.352224191650748" lon="8.297852715477347">
        <ele>1894.9000000000001</ele>
        <time>2014-03-20T10:22:38Z</time>
      </trkpt>
      <trkpt lat="46.352232908830047" lon="8.297879453748465">
        <ele>1894.4200000000001</ele>
        <time>2014-03-20T10:22:59Z</time>
      </trkpt>
      <trkpt lat="46.352287223562598" lon="8.297913651913405">
        <ele>1895.3800000000001</ele>
        <time>2014-03-20T10:23:13Z</time>
      </trkpt>
      <trkpt lat="46.352295773103833" lon="8.297912310808897">
        <ele>1895.3800000000001</ele>
        <time>2014-03-20T10:23:14Z</time>
      </trkpt>
      <trkpt lat="46.352452849969268" lon="8.297969726845622">
        <ele>1896.8199999999999</ele>
        <time>2014-03-20T10:23:30Z</time>
      </trkpt>
      <trkpt lat="46.352573968470097" lon="8.29804633744061">
        <ele>1897.78</ele>
        <time>2014-03-20T10:23:46Z</time>
      </trkpt>
      <trkpt lat="46.352668264880776" lon="8.298123702406883">
        <ele>1899.22</ele>
        <time>2014-03-20T10:23:59Z</time>
      </trkpt>
      <trkpt lat="46.352796843275428" lon="8.298208024352789">
        <ele>1899.7</ele>
        <time>2014-03-20T10:24:14Z</time>
      </trkpt>
      <trkpt lat="46.352893318980932" lon="8.298276588320732">
        <ele>1902.1099999999999</ele>
        <time>2014-03-20T10:24:30Z</time>
      </trkpt>
      <trkpt lat="46.352972779422998" lon="8.298332579433918">
        <ele>1903.55</ele>
        <time>2014-03-20T10:24:44Z</time>
      </trkpt>
      <trkpt lat="46.352991051971912" lon="8.298339787870646">
        <ele>1904.51</ele>
        <time>2014-03-20T10:25:03Z</time>
      </trkpt>
      <trkpt lat="46.353102196007967" lon="8.298449255526066">
        <ele>1907.3900000000001</ele>
        <time>2014-03-20T10:25:19Z</time>
      </trkpt>
      <trkpt lat="46.353162378072739" lon="8.298587054014206">
        <ele>1910.28</ele>
        <time>2014-03-20T10:25:35Z</time>
      </trkpt>
      <trkpt lat="46.353145865723491" lon="8.298627203330398">
        <ele>1911.24</ele>
        <time>2014-03-20T10:25:50Z</time>
      </trkpt>
      <trkpt lat="46.353187942877412" lon="8.298746393993497">
        <ele>1912.2</ele>
        <time>2014-03-20T10:26:05Z</time>
      </trkpt>
      <trkpt lat="46.353282993659377" lon="8.298845635727048">
        <ele>1915.0799999999999</ele>
        <time>2014-03-20T10:26:21Z</time>
      </trkpt>
      <trkpt lat="46.353395478799939" lon="8.298900872468948">
        <ele>1917.97</ele>
        <time>2014-03-20T10:26:39Z</time>
      </trkpt>
      <trkpt lat="46.353451386094093" lon="8.298971448093653">
        <ele>1919.8900000000001</ele>
        <time>2014-03-20T10:26:53Z</time>
      </trkpt>
      <trkpt lat="46.353544257581234" lon="8.299043448641896">
        <ele>1922.77</ele>
        <time>2014-03-20T10:27:09Z</time>
      </trkpt>
      <trkpt lat="46.353644169867039" lon="8.299123244360089">
        <ele>1925.1800000000001</ele>
        <time>2014-03-20T10:27:25Z</time>
      </trkpt>
      <trkpt lat="46.353705693036318" lon="8.299177642911673">
        <ele>1926.1400000000001</ele>
        <time>2014-03-20T10:27:35Z</time>
      </trkpt>
      <trkpt lat="46.353777023032308" lon="8.299312088638544">
        <ele>1929.02</ele>
        <time>2014-03-20T10:27:52Z</time>
      </trkpt>
      <trkpt lat="46.35386411100626" lon="8.299439074471593">
        <ele>1930.95</ele>
        <time>2014-03-20T10:28:09Z</time>
      </trkpt>
      <trkpt lat="46.353932423517108" lon="8.299538651481271">
        <ele>1932.8699999999999</ele>
        <time>2014-03-20T10:28:24Z</time>
      </trkpt>
      <trkpt lat="46.353951953351498" lon="8.299535717815161">
        <ele>1933.8299999999999</ele>
        <time>2014-03-20T10:28:41Z</time>
      </trkpt>
      <trkpt lat="46.354061085730791" lon="8.299599336460233">
        <ele>1936.23</ele>
        <time>2014-03-20T10:28:55Z</time>
      </trkpt>
      <trkpt lat="46.354167452082038" lon="8.299692878499627">
        <ele>1939.1199999999999</ele>
        <time>2014-03-20T10:29:10Z</time>
      </trkpt>
      <trkpt lat="46.354229729622602" lon="8.299721963703632">
        <ele>1939.1199999999999</ele>
        <time>2014-03-20T10:29:18Z</time>
      </trkpt>
      <trkpt lat="46.354259569197893" lon="8.299795892089605">
        <ele>1938.6400000000001</ele>
        <time>2014-03-20T10:29:32Z</time>
      </trkpt>
      <trkpt lat="46.354327294975519" lon="8.299790024757385">
        <ele>1939.5999999999999</ele>
        <time>2014-03-20T10:29:42Z</time>
      </trkpt>
      <trkpt lat="46.354346154257655" lon="8.299809554591775">
        <ele>1940.0799999999999</ele>
        <time>2014-03-20T10:29:45Z</time>
      </trkpt>
      <trkpt lat="46.354473391547799" lon="8.299879711121321">
        <ele>1942</ele>
        <time>2014-03-20T10:30:01Z</time>
      </trkpt>
      <trkpt lat="46.354561820626259" lon="8.299904773011804">
        <ele>1945.3599999999999</ele>
        <time>2014-03-20T10:30:15Z</time>
      </trkpt>
      <trkpt lat="46.354658044874668" lon="8.299952717497945">
        <ele>1947.77</ele>
        <time>2014-03-20T10:30:30Z</time>
      </trkpt>
      <trkpt lat="46.354757454246283" lon="8.300007283687592">
        <ele>1949.6900000000001</ele>
        <time>2014-03-20T10:30:46Z</time>
      </trkpt>
      <trkpt lat="46.354845045134425" lon="8.300019102171063">
        <ele>1952.0899999999999</ele>
        <time>2014-03-20T10:31:00Z</time>
      </trkpt>
      <trkpt lat="46.354853929951787" lon="8.300014575943351">
        <ele>1952.0899999999999</ele>
        <time>2014-03-20T10:31:15Z</time>
      </trkpt>
      <trkpt lat="46.354909166693687" lon="8.30006143078208">
        <ele>1953.54</ele>
        <time>2014-03-20T10:31:30Z</time>
      </trkpt>
      <trkpt lat="46.354983933269978" lon="8.300107698887587">
        <ele>1954.5</ele>
        <time>2014-03-20T10:31:39Z</time>
      </trkpt>
      <trkpt lat="46.355100609362125" lon="8.300145668908954">
        <ele>1956.4200000000001</ele>
        <time>2014-03-20T10:31:55Z</time>
      </trkpt>
      <trkpt lat="46.355204209685326" lon="8.300154218450189">
        <ele>1959.3</ele>
        <time>2014-03-20T10:32:10Z</time>
      </trkpt>
      <trkpt lat="46.35529481805861" lon="8.300165114924312">
        <ele>1961.23</ele>
        <time>2014-03-20T10:32:24Z</time>
      </trkpt>
      <trkpt lat="46.355381738394499" lon="8.300191853195429">
        <ele>1962.6700000000001</ele>
        <time>2014-03-20T10:32:38Z</time>
      </trkpt>
      <trkpt lat="46.355504784733057" lon="8.300257064402103">
        <ele>1963.6300000000001</ele>
        <time>2014-03-20T10:32:53Z</time>
      </trkpt>
      <trkpt lat="46.355615509673953" lon="8.30032336525619">
        <ele>1966.03</ele>
        <time>2014-03-20T10:33:09Z</time>
      </trkpt>
      <trkpt lat="46.355691198259592" lon="8.300364771857858">
        <ele>1968.9200000000001</ele>
        <time>2014-03-20T10:33:23Z</time>
      </trkpt>
      <trkpt lat="46.355743166059256" lon="8.300334345549345">
        <ele>1971.8</ele>
        <time>2014-03-20T10:33:36Z</time>
      </trkpt>
      <trkpt lat="46.355837881565094" lon="8.300365274772048">
        <ele>1973.72</ele>
        <time>2014-03-20T10:33:50Z</time>
      </trkpt>
      <trkpt lat="46.355862189084291" lon="8.300366867333651">
        <ele>1973.72</ele>
        <time>2014-03-20T10:34:07Z</time>
      </trkpt>
      <trkpt lat="46.355864452198148" lon="8.300364017486572">
        <ele>1974.2</ele>
        <time>2014-03-20T10:34:21Z</time>
      </trkpt>
      <trkpt lat="46.355888759717345" lon="8.300363346934319">
        <ele>1974.2</ele>
        <time>2014-03-20T10:34:24Z</time>
      </trkpt>
      <trkpt lat="46.356021361425519" lon="8.30037709325552">
        <ele>1977.0899999999999</ele>
        <time>2014-03-20T10:34:40Z</time>
      </trkpt>
      <trkpt lat="46.356126386672258" lon="8.300381954759359">
        <ele>1977.5699999999999</ele>
        <time>2014-03-20T10:34:54Z</time>
      </trkpt>
      <trkpt lat="46.3561743311584" lon="8.3004195895046">
        <ele>1978.53</ele>
        <time>2014-03-20T10:35:07Z</time>
      </trkpt>
      <trkpt lat="46.356304669752717" lon="8.300462840124965">
        <ele>1979.49</ele>
        <time>2014-03-20T10:35:22Z</time>
      </trkpt>
      <trkpt lat="46.356424866244197" lon="8.300498630851507">
        <ele>1980.45</ele>
        <time>2014-03-20T10:35:35Z</time>
      </trkpt>
      <trkpt lat="46.356548750773072" lon="8.300535846501589">
        <ele>1981.9000000000001</ele>
        <time>2014-03-20T10:35:48Z</time>
      </trkpt>
      <trkpt lat="46.356678334996104" lon="8.300582952797413">
        <ele>1983.8199999999999</ele>
        <time>2014-03-20T10:36:02Z</time>
      </trkpt>
      <trkpt lat="46.356733655557036" lon="8.300639027729631">
        <ele>1984.3</ele>
        <time>2014-03-20T10:36:09Z</time>
      </trkpt>
      <trkpt lat="46.356849744915962" lon="8.300738940015435">
        <ele>1986.22</ele>
        <time>2014-03-20T10:36:26Z</time>
      </trkpt>
      <trkpt lat="46.356960302218795" lon="8.300817478448153">
        <ele>1987.1800000000001</ele>
        <time>2014-03-20T10:36:42Z</time>
      </trkpt>
      <trkpt lat="46.357085444033146" lon="8.300860896706581">
        <ele>1988.1400000000001</ele>
        <time>2014-03-20T10:37:00Z</time>
      </trkpt>
      <trkpt lat="46.357186362147331" lon="8.300884952768683">
        <ele>1988.1400000000001</ele>
        <time>2014-03-20T10:37:14Z</time>
      </trkpt>
      <trkpt lat="46.357336565852165" lon="8.300939854234457">
        <ele>1989.5899999999999</ele>
        <time>2014-03-20T10:37:32Z</time>
      </trkpt>
      <trkpt lat="46.357441423460841" lon="8.300999281927943">
        <ele>1990.55</ele>
        <time>2014-03-20T10:37:48Z</time>
      </trkpt>
      <trkpt lat="46.357568325474858" lon="8.301038760691881">
        <ele>1991.51</ele>
        <time>2014-03-20T10:38:05Z</time>
      </trkpt>
      <trkpt lat="46.357631860300899" lon="8.301046388223767">
        <ele>1993.4300000000001</ele>
        <time>2014-03-20T10:38:21Z</time>
      </trkpt>
      <trkpt lat="46.357681984081864" lon="8.301079832017422">
        <ele>1994.3900000000001</ele>
        <time>2014-03-20T10:38:33Z</time>
      </trkpt>
      <trkpt lat="46.357758510857821" lon="8.301168931648135">
        <ele>1995.3499999999999</ele>
        <time>2014-03-20T10:38:50Z</time>
      </trkpt>
      <trkpt lat="46.357852639630437" lon="8.301285607740283">
        <ele>1996.8</ele>
        <time>2014-03-20T10:39:09Z</time>
      </trkpt>
      <trkpt lat="46.357992198318243" lon="8.301380658522248">
        <ele>1996.8</ele>
        <time>2014-03-20T10:39:27Z</time>
      </trkpt>
      <trkpt lat="46.358094122260809" lon="8.30149557441473">
        <ele>1997.76</ele>
        <time>2014-03-20T10:39:44Z</time>
      </trkpt>
      <trkpt lat="46.35816209949553" lon="8.301610071212053">
        <ele>1998.24</ele>
        <time>2014-03-20T10:39:59Z</time>
      </trkpt>
      <trkpt lat="46.358250780031085" lon="8.301735799759626">
        <ele>1998.72</ele>
        <time>2014-03-20T10:40:14Z</time>
      </trkpt>
      <trkpt lat="46.358325378969312" lon="8.30184493213892">
        <ele>1998.24</ele>
        <time>2014-03-20T10:40:29Z</time>
      </trkpt>
      <trkpt lat="46.358335772529244" lon="8.301865886896849">
        <ele>1997.28</ele>
        <time>2014-03-20T10:40:31Z</time>
      </trkpt>
      <trkpt lat="46.35835605673492" lon="8.30190503038466">
        <ele>1997.28</ele>
        <time>2014-03-20T10:40:34Z</time>
      </trkpt>
      <trkpt lat="46.358392601832747" lon="8.301927242428064">
        <ele>1996.8</ele>
        <time>2014-03-20T10:40:39Z</time>
      </trkpt>
      <trkpt lat="46.358495112508535" lon="8.302033692598343">
        <ele>1996.8</ele>
        <time>2014-03-20T10:40:54Z</time>
      </trkpt>
      <trkpt lat="46.35849243029952" lon="8.302047774195671">
        <ele>1997.28</ele>
        <time>2014-03-20T10:41:10Z</time>
      </trkpt>
      <trkpt lat="46.35847432538867" lon="8.302068561315537">
        <ele>1996.3199999999999</ele>
        <time>2014-03-20T10:41:23Z</time>
      </trkpt>
      <trkpt lat="46.358465775847435" lon="8.302055317908526">
        <ele>1996.3199999999999</ele>
        <time>2014-03-20T10:41:34Z</time>
      </trkpt>
      <trkpt lat="46.358502740040421" lon="8.302053473889828">
        <ele>1996.8</ele>
        <time>2014-03-20T10:41:45Z</time>
      </trkpt>
      <trkpt lat="46.358596282079816" lon="8.302102759480476">
        <ele>1997.76</ele>
        <time>2014-03-20T10:41:58Z</time>
      </trkpt>
      <trkpt lat="46.358595360070467" lon="8.302090857177973">
        <ele>1997.76</ele>
        <time>2014-03-20T10:42:10Z</time>
      </trkpt>
      <trkpt lat="46.358607765287161" lon="8.302096975967288">
        <ele>1997.28</ele>
        <time>2014-03-20T10:42:22Z</time>
      </trkpt>
      <trkpt lat="46.358595192432404" lon="8.302093623206019">
        <ele>1997.76</ele>
        <time>2014-03-20T10:42:50Z</time>
      </trkpt>
      <trkpt lat="46.358589911833405" lon="8.302132599055767">
        <ele>1997.28</ele>
        <time>2014-03-20T10:43:15Z</time>
      </trkpt>
      <trkpt lat="46.358578177168965" lon="8.302119188010693">
        <ele>1997.28</ele>
        <time>2014-03-20T10:43:44Z</time>
      </trkpt>
      <trkpt lat="46.35857256129384" lon="8.302110387012363">
        <ele>1997.28</ele>
        <time>2014-03-20T10:44:01Z</time>
      </trkpt>
      <trkpt lat="46.358580272644758" lon="8.302109213545919">
        <ele>1998.24</ele>
        <time>2014-03-20T10:44:14Z</time>
      </trkpt>
      <trkpt lat="46.358614135533571" lon="8.302231170237064">
        <ele>1997.76</ele>
        <time>2014-03-20T10:44:27Z</time>
      </trkpt>
      <trkpt lat="46.358590079471469" lon="8.302213400602341">
        <ele>1997.76</ele>
        <time>2014-03-20T10:44:42Z</time>
      </trkpt>
      <trkpt lat="46.358623942360282" lon="8.302161265164614">
        <ele>1997.76</ele>
        <time>2014-03-20T10:45:03Z</time>
      </trkpt>
      <trkpt lat="46.358604747802019" lon="8.302147267386317">
        <ele>1997.76</ele>
        <time>2014-03-20T10:45:17Z</time>
      </trkpt>
      <trkpt lat="46.358640370890498" lon="8.302153050899506">
        <ele>1998.24</ele>
        <time>2014-03-20T10:45:34Z</time>
      </trkpt>
      <trkpt lat="46.358668869361281" lon="8.302152547985315">
        <ele>1997.76</ele>
        <time>2014-03-20T10:45:37Z</time>
      </trkpt>
      <trkpt lat="46.358776325359941" lon="8.302217423915863">
        <ele>1996.8</ele>
        <time>2014-03-20T10:45:50Z</time>
      </trkpt>
      <trkpt lat="46.358751263469458" lon="8.302226727828383">
        <ele>1996.8</ele>
        <time>2014-03-20T10:46:16Z</time>
      </trkpt>
      <trkpt lat="46.358745731413364" lon="8.302251286804676">
        <ele>1996.3199999999999</ele>
        <time>2014-03-20T10:46:41Z</time>
      </trkpt>
      <trkpt lat="46.358744222670794" lon="8.302110387012363">
        <ele>1997.28</ele>
        <time>2014-03-20T10:46:58Z</time>
      </trkpt>
      <trkpt lat="46.358743635937572" lon="8.302088007330895">
        <ele>1997.76</ele>
        <time>2014-03-20T10:47:00Z</time>
      </trkpt>
      <trkpt lat="46.358719579875469" lon="8.30187376588583">
        <ele>1999.6800000000001</ele>
        <time>2014-03-20T10:47:16Z</time>
      </trkpt>
      <trkpt lat="46.358689907938242" lon="8.301758766174316">
        <ele>2002.0799999999999</ele>
        <time>2014-03-20T10:47:30Z</time>
      </trkpt>
      <trkpt lat="46.358648166060448" lon="8.301760023459792">
        <ele>2004.49</ele>
        <time>2014-03-20T10:47:46Z</time>
      </trkpt>
      <trkpt lat="46.358644645661116" lon="8.301723059266806">
        <ele>2004.01</ele>
        <time>2014-03-20T10:47:56Z</time>
      </trkpt>
      <trkpt lat="46.358678257092834" lon="8.301746528595686">
        <ele>2003.52</ele>
        <time>2014-03-20T10:48:25Z</time>
      </trkpt>
      <trkpt lat="46.358668617904186" lon="8.301749546080828">
        <ele>2004.01</ele>
        <time>2014-03-20T10:48:38Z</time>
      </trkpt>
      <trkpt lat="46.358645651489496" lon="8.301765555515885">
        <ele>2002.5599999999999</ele>
        <time>2014-03-20T10:48:51Z</time>
      </trkpt>
      <trkpt lat="46.358614303171635" lon="8.301766896620393">
        <ele>2004.01</ele>
        <time>2014-03-20T10:49:17Z</time>
      </trkpt>
      <trkpt lat="46.358619080856442" lon="8.301763040944934">
        <ele>2004.01</ele>
        <time>2014-03-20T10:49:33Z</time>
      </trkpt>
      <trkpt lat="46.358603993430734" lon="8.301806794479489">
        <ele>2004.01</ele>
        <time>2014-03-20T10:50:01Z</time>
      </trkpt>
      <trkpt lat="46.358591923490167" lon="8.301797909662128">
        <ele>2003.52</ele>
        <time>2014-03-20T10:50:28Z</time>
      </trkpt>
      <trkpt lat="46.358610950410366" lon="8.301788689568639">
        <ele>2003.52</ele>
        <time>2014-03-20T10:50:48Z</time>
      </trkpt>
      <trkpt lat="46.358610866591334" lon="8.30179019831121">
        <ele>2003.52</ele>
        <time>2014-03-20T10:51:09Z</time>
      </trkpt>
      <trkpt lat="46.358611537143588" lon="8.301780475303531">
        <ele>2003.52</ele>
        <time>2014-03-20T10:51:33Z</time>
      </trkpt>
      <trkpt lat="46.358617823570967" lon="8.301755581051111">
        <ele>2003.52</ele>
        <time>2014-03-20T10:51:58Z</time>
      </trkpt>
      <trkpt lat="46.358640203252435" lon="8.301778882741928">
        <ele>2004.49</ele>
        <time>2014-03-20T10:52:10Z</time>
      </trkpt>
      <trkpt lat="46.358676496893167" lon="8.301733955740929">
        <ele>2003.52</ele>
        <time>2014-03-20T10:52:31Z</time>
      </trkpt>
      <trkpt lat="46.358669120818377" lon="8.301723059266806">
        <ele>2003.52</ele>
        <time>2014-03-20T10:53:03Z</time>
      </trkpt>
      <trkpt lat="46.358640370890498" lon="8.301734710112214">
        <ele>2004.01</ele>
        <time>2014-03-20T10:53:36Z</time>
      </trkpt>
      <trkpt lat="46.358657134696841" lon="8.301740745082498">
        <ele>2003.52</ele>
        <time>2014-03-20T10:54:24Z</time>
      </trkpt>
      <trkpt lat="46.358646405860782" lon="8.301746780052781">
        <ele>2003.52</ele>
        <time>2014-03-20T10:55:02Z</time>
      </trkpt>
      <trkpt lat="46.358643639832735" lon="8.301728088408709">
        <ele>2003.04</ele>
        <time>2014-03-20T10:55:34Z</time>
      </trkpt>
      <trkpt lat="46.358638275414705" lon="8.301758179441094">
        <ele>2003.52</ele>
        <time>2014-03-20T10:56:22Z</time>
      </trkpt>
      <trkpt lat="46.358644394204021" lon="8.301730938255787">
        <ele>2003.04</ele>
        <time>2014-03-20T10:57:06Z</time>
      </trkpt>
      <trkpt lat="46.358621846884489" lon="8.301755413413048">
        <ele>2003.04</ele>
        <time>2014-03-20T10:57:48Z</time>
      </trkpt>
      <trkpt lat="46.358638694509864" lon="8.301753317937255">
        <ele>2003.52</ele>
        <time>2014-03-20T10:58:27Z</time>
      </trkpt>
      <trkpt lat="46.358631402254105" lon="8.301761532202363">
        <ele>2003.52</ele>
        <time>2014-03-20T10:59:14Z</time>
      </trkpt>
      <trkpt lat="46.358631486073136" lon="8.301766645163298">
        <ele>2003.04</ele>
        <time>2014-03-20T10:59:50Z</time>
      </trkpt>
      <trkpt lat="46.358627211302519" lon="8.301758179441094">
        <ele>2003.04</ele>
        <time>2014-03-20T11:00:28Z</time>
      </trkpt>
      <trkpt lat="46.358632910996675" lon="8.30174770206213">
        <ele>2002.5599999999999</ele>
        <time>2014-03-20T11:01:04Z</time>
      </trkpt>
      <trkpt lat="46.35865269228816" lon="8.301763627678156">
        <ele>2002.5599999999999</ele>
        <time>2014-03-20T11:01:44Z</time>
      </trkpt>
      <trkpt lat="46.358596198260784" lon="8.301781229674816">
        <ele>2003.04</ele>
        <time>2014-03-20T11:02:25Z</time>
      </trkpt>
      <trkpt lat="46.358665432780981" lon="8.301744600757957">
        <ele>2003.04</ele>
        <time>2014-03-20T11:03:09Z</time>
      </trkpt>
      <trkpt lat="46.358674066141248" lon="8.301746612414718">
        <ele>2002.5599999999999</ele>
        <time>2014-03-20T11:03:49Z</time>
      </trkpt>
      <trkpt lat="46.358651267364621" lon="8.301734961569309">
        <ele>2003.04</ele>
        <time>2014-03-20T11:04:31Z</time>
      </trkpt>
      <trkpt lat="46.358674401417375" lon="8.30173940397799">
        <ele>2003.52</ele>
        <time>2014-03-20T11:05:10Z</time>
      </trkpt>
      <trkpt lat="46.358668534085155" lon="8.301729848608375">
        <ele>2003.52</ele>
        <time>2014-03-20T11:05:38Z</time>
      </trkpt>
      <trkpt lat="46.35866149328649" lon="8.301740409806371">
        <ele>2003.04</ele>
        <time>2014-03-20T11:06:12Z</time>
      </trkpt>
      <trkpt lat="46.35865805670619" lon="8.301752898842096">
        <ele>2003.52</ele>
        <time>2014-03-20T11:06:45Z</time>
      </trkpt>
      <trkpt lat="46.358666438609362" lon="8.301737224683166">
        <ele>2003.52</ele>
        <time>2014-03-20T11:07:24Z</time>
      </trkpt>
      <trkpt lat="46.358661158010364" lon="8.301724316552281">
        <ele>2003.52</ele>
        <time>2014-03-20T11:08:01Z</time>
      </trkpt>
      <trkpt lat="46.358632072806358" lon="8.301756335422397">
        <ele>2003.52</ele>
        <time>2014-03-20T11:08:40Z</time>
      </trkpt>
      <trkpt lat="46.358624612912536" lon="8.301806626841426">
        <ele>2003.52</ele>
        <time>2014-03-20T11:09:10Z</time>
      </trkpt>
      <trkpt lat="46.358615728095174" lon="8.301762035116553">
        <ele>2004.49</ele>
        <time>2014-03-20T11:09:37Z</time>
      </trkpt>
      <trkpt lat="46.358597120270133" lon="8.301729848608375">
        <ele>2003.52</ele>
        <time>2014-03-20T11:10:00Z</time>
      </trkpt>
      <trkpt lat="46.358601395040751" lon="8.301639910787344">
        <ele>2003.52</ele>
        <time>2014-03-20T11:10:24Z</time>
      </trkpt>
      <trkpt lat="46.358587397262454" lon="8.301808554679155">
        <ele>2003.52</ele>
        <time>2014-03-20T11:10:42Z</time>
      </trkpt>
      <trkpt lat="46.358594270423055" lon="8.301787180826068">
        <ele>2003.52</ele>
        <time>2014-03-20T11:11:05Z</time>
      </trkpt>
      <trkpt lat="46.358617907389998" lon="8.301766309887171">
        <ele>2003.52</ele>
        <time>2014-03-20T11:11:22Z</time>
      </trkpt>
      <trkpt lat="46.358623271808028" lon="8.301704786717892">
        <ele>2003.04</ele>
        <time>2014-03-20T11:12:00Z</time>
      </trkpt>
      <trkpt lat="46.358606172725558" lon="8.301779720932245">
        <ele>2003.52</ele>
        <time>2014-03-20T11:12:41Z</time>
      </trkpt>
      <trkpt lat="46.358622936531901" lon="8.301765723153949">
        <ele>2003.52</ele>
        <time>2014-03-20T11:13:13Z</time>
      </trkpt>
      <trkpt lat="46.358627295121551" lon="8.301729094237089">
        <ele>2003.52</ele>
        <time>2014-03-20T11:14:01Z</time>
      </trkpt>
      <trkpt lat="46.358627714216709" lon="8.30177117139101">
        <ele>2003.52</ele>
        <time>2014-03-20T11:14:43Z</time>
      </trkpt>
      <trkpt lat="46.358606172725558" lon="8.301767986267805">
        <ele>2003.04</ele>
        <time>2014-03-20T11:15:09Z</time>
      </trkpt>
      <trkpt lat="46.358573399484158" lon="8.301781816408038">
        <ele>2003.04</ele>
        <time>2014-03-20T11:15:40Z</time>
      </trkpt>
      <trkpt lat="46.358629977330565" lon="8.301746863871813">
        <ele>2003.04</ele>
        <time>2014-03-20T11:16:11Z</time>
      </trkpt>
      <trkpt lat="46.358660906553268" lon="8.301725909113884">
        <ele>2002.5599999999999</ele>
        <time>2014-03-20T11:16:56Z</time>
      </trkpt>
      <trkpt lat="46.358634671196342" lon="8.301739990711212">
        <ele>2003.04</ele>
        <time>2014-03-20T11:17:46Z</time>
      </trkpt>
      <trkpt lat="46.358668450266123" lon="8.301770333200693">
        <ele>2002.5599999999999</ele>
        <time>2014-03-20T11:18:41Z</time>
      </trkpt>
      <trkpt lat="46.358681945130229" lon="8.301730854436755">
        <ele>2003.52</ele>
        <time>2014-03-20T11:19:19Z</time>
      </trkpt>
      <trkpt lat="46.358670797199011" lon="8.301746696233749">
        <ele>2002.5599999999999</ele>
        <time>2014-03-20T11:19:55Z</time>
      </trkpt>
      <trkpt lat="46.358602065593004" lon="8.301797239109874">
        <ele>2003.04</ele>
        <time>2014-03-20T11:20:31Z</time>
      </trkpt>
      <trkpt lat="46.358616063371301" lon="8.301744684576988">
        <ele>2003.52</ele>
        <time>2014-03-20T11:21:17Z</time>
      </trkpt>
      <trkpt lat="46.358633665367961" lon="8.301736051216722">
        <ele>2003.52</ele>
        <time>2014-03-20T11:22:08Z</time>
      </trkpt>
      <trkpt lat="46.358654787763953" lon="8.301718700677156">
        <ele>2003.04</ele>
        <time>2014-03-20T11:22:52Z</time>
      </trkpt>
      <trkpt lat="46.358627630397677" lon="8.301765136420727">
        <ele>2003.04</ele>
        <time>2014-03-20T11:23:32Z</time>
      </trkpt>
      <trkpt lat="46.358646489679813" lon="8.301749378442764">
        <ele>2003.04</ele>
        <time>2014-03-20T11:24:06Z</time>
      </trkpt>
      <trkpt lat="46.358645232394338" lon="8.301745941862464">
        <ele>2003.04</ele>
        <time>2014-03-20T11:24:46Z</time>
      </trkpt>
      <trkpt lat="46.358624529093504" lon="8.301764214411378">
        <ele>2003.04</ele>
        <time>2014-03-20T11:25:22Z</time>
      </trkpt>
      <trkpt lat="46.358641209080815" lon="8.301749043166637">
        <ele>2003.04</ele>
        <time>2014-03-20T11:26:01Z</time>
      </trkpt>
      <trkpt lat="46.358615895733237" lon="8.301772344857454">
        <ele>2003.04</ele>
        <time>2014-03-20T11:26:40Z</time>
      </trkpt>
      <trkpt lat="46.358596617355943" lon="8.301781984046102">
        <ele>2003.04</ele>
        <time>2014-03-20T11:27:07Z</time>
      </trkpt>
      <trkpt lat="46.358631486073136" lon="8.301771506667137">
        <ele>2003.04</ele>
        <time>2014-03-20T11:27:37Z</time>
      </trkpt>
      <trkpt lat="46.358599551022053" lon="8.301799586042762">
        <ele>2003.04</ele>
        <time>2014-03-20T11:28:08Z</time>
      </trkpt>
      <trkpt lat="46.358577338978648" lon="8.301804615184665">
        <ele>2003.52</ele>
        <time>2014-03-20T11:28:31Z</time>
      </trkpt>
      <trkpt lat="46.358564179390669" lon="8.301821798086166">
        <ele>2003.52</ele>
        <time>2014-03-20T11:28:36Z</time>
      </trkpt>
      <trkpt lat="46.358568537980318" lon="8.301861109212041">
        <ele>2003.04</ele>
        <time>2014-03-20T11:28:53Z</time>
      </trkpt>
      <trkpt lat="46.35861799120903" lon="8.301840992644429">
        <ele>2002.5599999999999</ele>
        <time>2014-03-20T11:29:20Z</time>
      </trkpt>
      <trkpt lat="46.358637269586325" lon="8.301804782822728">
        <ele>2002.5599999999999</ele>
        <time>2014-03-20T11:29:46Z</time>
      </trkpt>
      <trkpt lat="46.358619248494506" lon="8.301778212189674">
        <ele>2002.5599999999999</ele>
        <time>2014-03-20T11:30:14Z</time>
      </trkpt>
      <trkpt lat="46.358607681468129" lon="8.301830179989338">
        <ele>2002.5599999999999</ele>
        <time>2014-03-20T11:30:37Z</time>
      </trkpt>
      <trkpt lat="46.358590079471469" lon="8.301787935197353">
        <ele>2004.01</ele>
        <time>2014-03-20T11:30:46Z</time>
      </trkpt>
      <trkpt lat="46.358621260151267" lon="8.301753150299192">
        <ele>2004.01</ele>
        <time>2014-03-20T11:30:58Z</time>
      </trkpt>
      <trkpt lat="46.358579937368631" lon="8.301806040108204">
        <ele>2003.04</ele>
        <time>2014-03-20T11:31:22Z</time>
      </trkpt>
      <trkpt lat="46.358579099178314" lon="8.30175993964076">
        <ele>2003.52</ele>
        <time>2014-03-20T11:31:38Z</time>
      </trkpt>
      <trkpt lat="46.358554037287831" lon="8.301805453374982">
        <ele>2004.01</ele>
        <time>2014-03-20T11:31:56Z</time>
      </trkpt>
      <trkpt lat="46.358447251841426" lon="8.301832443103194">
        <ele>2003.52</ele>
        <time>2014-03-20T11:32:09Z</time>
      </trkpt>
      <trkpt lat="46.358384555205703" lon="8.301795059815049">
        <ele>2002.0799999999999</ele>
        <time>2014-03-20T11:32:17Z</time>
      </trkpt>
      <trkpt lat="46.358311381191015" lon="8.301753737032414">
        <ele>1999.6800000000001</ele>
        <time>2014-03-20T11:32:31Z</time>
      </trkpt>
      <trkpt lat="46.358324708417058" lon="8.30178139731288">
        <ele>1999.2</ele>
        <time>2014-03-20T11:32:51Z</time>
      </trkpt>
      <trkpt lat="46.358325546607375" lon="8.301777709275484">
        <ele>1999.2</ele>
        <time>2014-03-20T11:33:07Z</time>
      </trkpt>
      <trkpt lat="46.358243487775326" lon="8.301724400371313">
        <ele>1998.24</ele>
        <time>2014-03-20T11:33:25Z</time>
      </trkpt>
      <trkpt lat="46.358116418123245" lon="8.301690621301532">
        <ele>1998.24</ele>
        <time>2014-03-20T11:33:39Z</time>
      </trkpt>
      <trkpt lat="46.35804383084178" lon="8.301575621590018">
        <ele>1998.24</ele>
        <time>2014-03-20T11:33:50Z</time>
      </trkpt>
      <trkpt lat="46.357973925769329" lon="8.301421143114567">
        <ele>1996.8</ele>
        <time>2014-03-20T11:34:02Z</time>
      </trkpt>
      <trkpt lat="46.357866721227765" lon="8.301287619397044">
        <ele>1995.8299999999999</ele>
        <time>2014-03-20T11:34:16Z</time>
      </trkpt>
      <trkpt lat="46.357780639082193" lon="8.301172871142626">
        <ele>1995.3499999999999</ele>
        <time>2014-03-20T11:34:28Z</time>
      </trkpt>
      <trkpt lat="46.357754403725266" lon="8.301143953576684">
        <ele>1995.3499999999999</ele>
        <time>2014-03-20T11:34:32Z</time>
      </trkpt>
      <trkpt lat="46.357644768431783" lon="8.301045382395387">
        <ele>1993.9100000000001</ele>
        <time>2014-03-20T11:34:44Z</time>
      </trkpt>
      <trkpt lat="46.357598081231117" lon="8.301043789833784">
        <ele>1992.47</ele>
        <time>2014-03-20T11:34:58Z</time>
      </trkpt>
      <trkpt lat="46.357509652152658" lon="8.300982266664505">
        <ele>1991.51</ele>
        <time>2014-03-20T11:35:11Z</time>
      </trkpt>
      <trkpt lat="46.357315191999078" lon="8.300877157598734">
        <ele>1989.0999999999999</ele>
        <time>2014-03-20T11:35:29Z</time>
      </trkpt>
      <trkpt lat="46.357172867283225" lon="8.300903644412756">
        <ele>1988.1400000000001</ele>
        <time>2014-03-20T11:35:43Z</time>
      </trkpt>
      <trkpt lat="46.357048144564033" lon="8.300834745168686">
        <ele>1986.7</ele>
        <time>2014-03-20T11:35:57Z</time>
      </trkpt>
      <trkpt lat="46.356925265863538" lon="8.300791410729289">
        <ele>1986.22</ele>
        <time>2014-03-20T11:36:08Z</time>
      </trkpt>
      <trkpt lat="46.356875644996762" lon="8.300753859803081">
        <ele>1985.74</ele>
        <time>2014-03-20T11:36:13Z</time>
      </trkpt>
      <trkpt lat="46.356743881478906" lon="8.30065805464983">
        <ele>1984.3</ele>
        <time>2014-03-20T11:36:28Z</time>
      </trkpt>
      <trkpt lat="46.356619577854872" lon="8.30057448707521">
        <ele>1982.8599999999999</ele>
        <time>2014-03-20T11:36:42Z</time>
      </trkpt>
      <trkpt lat="46.356504997238517" lon="8.300530146807432">
        <ele>1980.9300000000001</ele>
        <time>2014-03-20T11:36:55Z</time>
      </trkpt>
      <trkpt lat="46.356474822387099" lon="8.300528470426798">
        <ele>1980.45</ele>
        <time>2014-03-20T11:37:05Z</time>
      </trkpt>
      <trkpt lat="46.356362085789442" lon="8.300501313060522">
        <ele>1979.97</ele>
        <time>2014-03-20T11:37:19Z</time>
      </trkpt>
      <trkpt lat="46.356222191825509" lon="8.300431072711945">
        <ele>1978.05</ele>
        <time>2014-03-20T11:37:32Z</time>
      </trkpt>
      <trkpt lat="46.356041058897972" lon="8.300392096862197">
        <ele>1976.6099999999999</ele>
        <time>2014-03-20T11:37:48Z</time>
      </trkpt>
      <trkpt lat="46.355939470231533" lon="8.300406765192747">
        <ele>1975.6500000000001</ele>
        <time>2014-03-20T11:37:57Z</time>
      </trkpt>
      <trkpt lat="46.355837797746062" lon="8.300383966416121">
        <ele>1974.2</ele>
        <time>2014-03-20T11:38:07Z</time>
      </trkpt>
      <trkpt lat="46.355725144967437" lon="8.300329986959696">
        <ele>1971.3199999999999</ele>
        <time>2014-03-20T11:38:21Z</time>
      </trkpt>
      <trkpt lat="46.355714835226536" lon="8.300341721624136">
        <ele>1970.8399999999999</ele>
        <time>2014-03-20T11:38:23Z</time>
      </trkpt>
      <trkpt lat="46.355671836063266" lon="8.300365777686238">
        <ele>1969.4000000000001</ele>
        <time>2014-03-20T11:38:27Z</time>
      </trkpt>
      <trkpt lat="46.355596650391817" lon="8.300316156819463">
        <ele>1966.03</ele>
        <time>2014-03-20T11:38:35Z</time>
      </trkpt>
      <trkpt lat="46.35558458045125" lon="8.300278522074223">
        <ele>1965.55</ele>
        <time>2014-03-20T11:38:49Z</time>
      </trkpt>
      <trkpt lat="46.355476286262274" lon="8.300220854580402">
        <ele>1963.1500000000001</ele>
        <time>2014-03-20T11:39:03Z</time>
      </trkpt>
      <trkpt lat="46.355323567986488" lon="8.300149859860539">
        <ele>1961.71</ele>
        <time>2014-03-20T11:39:17Z</time>
      </trkpt>
      <trkpt lat="46.355154504999518" lon="8.300166875123978">
        <ele>1958.8199999999999</ele>
        <time>2014-03-20T11:39:31Z</time>
      </trkpt>
      <trkpt lat="46.355102956295013" lon="8.300164612010121">
        <ele>1957.3800000000001</ele>
        <time>2014-03-20T11:39:35Z</time>
      </trkpt>
      <trkpt lat="46.354965325444937" lon="8.300093784928322">
        <ele>1954.5</ele>
        <time>2014-03-20T11:39:48Z</time>
      </trkpt>
      <trkpt lat="46.354840770363808" lon="8.300016336143017">
        <ele>1952.0899999999999</ele>
        <time>2014-03-20T11:40:01Z</time>
      </trkpt>
      <trkpt lat="46.354725938290358" lon="8.299968307837844">
        <ele>1949.21</ele>
        <time>2014-03-20T11:40:12Z</time>
      </trkpt>
      <trkpt lat="46.354620158672333" lon="8.299933942034841">
        <ele>1946.3299999999999</ele>
        <time>2014-03-20T11:40:22Z</time>
      </trkpt>
      <trkpt lat="46.354595851153135" lon="8.299919776618481">
        <ele>1945.8499999999999</ele>
        <time>2014-03-20T11:40:24Z</time>
      </trkpt>
      <trkpt lat="46.354574309661984" lon="8.299909802153707">
        <ele>1944.8800000000001</ele>
        <time>2014-03-20T11:40:26Z</time>
      </trkpt>
      <trkpt lat="46.354492334648967" lon="8.299891026690602">
        <ele>1942.48</ele>
        <time>2014-03-20T11:40:34Z</time>
      </trkpt>
      <trkpt lat="46.35435520671308" lon="8.299819193780422">
        <ele>1939.1199999999999</ele>
        <time>2014-03-20T11:40:47Z</time>
      </trkpt>
      <trkpt lat="46.354304077103734" lon="8.299777787178755">
        <ele>1938.6400000000001</ele>
        <time>2014-03-20T11:40:52Z</time>
      </trkpt>
      <trkpt lat="46.354176085442305" lon="8.299701428040862">
        <ele>1937.6700000000001</ele>
        <time>2014-03-20T11:41:06Z</time>
      </trkpt>
      <trkpt lat="46.354129817336798" lon="8.299665553495288">
        <ele>1937.1900000000001</ele>
        <time>2014-03-20T11:41:16Z</time>
      </trkpt>
      <trkpt lat="46.353997969999909" lon="8.299550972878933">
        <ele>1933.8299999999999</ele>
        <time>2014-03-20T11:41:31Z</time>
      </trkpt>
      <trkpt lat="46.353854723274708" lon="8.299417030066252">
        <ele>1930.46</ele>
        <time>2014-03-20T11:41:46Z</time>
      </trkpt>
      <trkpt lat="46.353842401877046" lon="8.299377467483282">
        <ele>1929.02</ele>
        <time>2014-03-20T11:41:57Z</time>
      </trkpt>
      <trkpt lat="46.353734359145164" lon="8.299247212707996">
        <ele>1927.0999999999999</ele>
        <time>2014-03-20T11:42:11Z</time>
      </trkpt>
      <trkpt lat="46.353671243414283" lon="8.299137325957418">
        <ele>1924.7</ele>
        <time>2014-03-20T11:42:21Z</time>
      </trkpt>
      <trkpt lat="46.35362564586103" lon="8.299128105863929">
        <ele>1923.74</ele>
        <time>2014-03-20T11:42:30Z</time>
      </trkpt>
      <trkpt lat="46.353585496544838" lon="8.299079742282629">
        <ele>1923.25</ele>
        <time>2014-03-20T11:42:39Z</time>
      </trkpt>
      <trkpt lat="46.353572336956859" lon="8.299046130850911">
        <ele>1922.29</ele>
        <time>2014-03-20T11:42:53Z</time>
      </trkpt>
      <trkpt lat="46.353570241481066" lon="8.299076640978456">
        <ele>1921.8099999999999</ele>
        <time>2014-03-20T11:43:08Z</time>
      </trkpt>
      <trkpt lat="46.353459013625979" lon="8.298970609903336">
        <ele>1919.4100000000001</ele>
        <time>2014-03-20T11:43:23Z</time>
      </trkpt>
      <trkpt lat="46.353429509326816" lon="8.298905314877629">
        <ele>1917.49</ele>
        <time>2014-03-20T11:43:38Z</time>
      </trkpt>
      <trkpt lat="46.353427916765213" lon="8.298899196088314">
        <ele>1917.01</ele>
        <time>2014-03-20T11:43:40Z</time>
      </trkpt>
      <trkpt lat="46.35340042412281" lon="8.298893496394157">
        <ele>1917.01</ele>
        <time>2014-03-20T11:43:42Z</time>
      </trkpt>
      <trkpt lat="46.353353653103113" lon="8.298888467252255">
        <ele>1916.04</ele>
        <time>2014-03-20T11:43:46Z</time>
      </trkpt>
      <trkpt lat="46.353311911225319" lon="8.298857370391488">
        <ele>1915.0799999999999</ele>
        <time>2014-03-20T11:43:50Z</time>
      </trkpt>
      <trkpt lat="46.353219961747527" lon="8.298733234405518">
        <ele>1912.2</ele>
        <time>2014-03-20T11:44:02Z</time>
      </trkpt>
      <trkpt lat="46.353168413043022" lon="8.298648661002517">
        <ele>1910.28</ele>
        <time>2014-03-20T11:44:09Z</time>
      </trkpt>
      <trkpt lat="46.353174448013306" lon="8.298603566363454">
        <ele>1910.28</ele>
        <time>2014-03-20T11:44:16Z</time>
      </trkpt>
      <trkpt lat="46.353109739720821" lon="8.298449758440256">
        <ele>1906.9100000000001</ele>
        <time>2014-03-20T11:44:29Z</time>
      </trkpt>
      <trkpt lat="46.353091131895781" lon="8.298431653529406">
        <ele>1906.4300000000001</ele>
        <time>2014-03-20T11:44:31Z</time>
      </trkpt>
      <trkpt lat="46.353009911254048" lon="8.298349259421229">
        <ele>1903.55</ele>
        <time>2014-03-20T11:44:41Z</time>
      </trkpt>
      <trkpt lat="46.352858450263739" lon="8.298248089849949">
        <ele>1900.6600000000001</ele>
        <time>2014-03-20T11:44:56Z</time>
      </trkpt>
      <trkpt lat="46.352742947638035" lon="8.298185979947448">
        <ele>1899.22</ele>
        <time>2014-03-20T11:45:06Z</time>
      </trkpt>
      <trkpt lat="46.352626942098141" lon="8.298096042126417">
        <ele>1897.78</ele>
        <time>2014-03-20T11:45:20Z</time>
      </trkpt>
      <trkpt lat="46.352541614323854" lon="8.298010462895036">
        <ele>1896.8199999999999</ele>
        <time>2014-03-20T11:45:35Z</time>
      </trkpt>
      <trkpt lat="46.352475564926863" lon="8.297967379912734">
        <ele>1896.8199999999999</ele>
        <time>2014-03-20T11:45:42Z</time>
      </trkpt>
      <trkpt lat="46.352340113371611" lon="8.297935612499714">
        <ele>1895.8599999999999</ele>
        <time>2014-03-20T11:45:56Z</time>
      </trkpt>
      <trkpt lat="46.352206338196993" lon="8.297868808731437">
        <ele>1894.9000000000001</ele>
        <time>2014-03-20T11:46:11Z</time>
      </trkpt>
      <trkpt lat="46.352080274373293" lon="8.297816589474678">
        <ele>1892.97</ele>
        <time>2014-03-20T11:46:23Z</time>
      </trkpt>
      <trkpt lat="46.351962257176638" lon="8.297759592533112">
        <ele>1889.6099999999999</ele>
        <time>2014-03-20T11:46:35Z</time>
      </trkpt>
      <trkpt lat="46.351831164211035" lon="8.297705613076687">
        <ele>1886.72</ele>
        <time>2014-03-20T11:46:46Z</time>
      </trkpt>
      <trkpt lat="46.351748183369637" lon="8.297665379941464">
        <ele>1885.28</ele>
        <time>2014-03-20T11:46:53Z</time>
      </trkpt>
      <trkpt lat="46.351603092625737" lon="8.297601342201233">
        <ele>1882.8800000000001</ele>
        <time>2014-03-20T11:47:06Z</time>
      </trkpt>
      <trkpt lat="46.351477447897196" lon="8.2975581753999">
        <ele>1881.9200000000001</ele>
        <time>2014-03-20T11:47:19Z</time>
      </trkpt>
      <trkpt lat="46.351339062675834" lon="8.297502268105745">
        <ele>1880</ele>
        <time>2014-03-20T11:47:32Z</time>
      </trkpt>
      <trkpt lat="46.35120696388185" lon="8.297460358589888">
        <ele>1878.0699999999999</ele>
        <time>2014-03-20T11:47:44Z</time>
      </trkpt>
      <trkpt lat="46.351091712713242" lon="8.297426160424948">
        <ele>1877.1099999999999</ele>
        <time>2014-03-20T11:47:55Z</time>
      </trkpt>
      <trkpt lat="46.351078636944294" lon="8.297418616712093">
        <ele>1876.6300000000001</ele>
        <time>2014-03-20T11:48:05Z</time>
      </trkpt>
      <trkpt lat="46.35108676739037" lon="8.297374192625284">
        <ele>1876.6300000000001</ele>
        <time>2014-03-20T11:48:25Z</time>
      </trkpt>
      <trkpt lat="46.351088443771005" lon="8.297448456287384">
        <ele>1876.6300000000001</ele>
        <time>2014-03-20T11:48:44Z</time>
      </trkpt>
      <trkpt lat="46.351084839552641" lon="8.297472009435296">
        <ele>1876.1500000000001</ele>
        <time>2014-03-20T11:49:03Z</time>
      </trkpt>
      <trkpt lat="46.351069584488869" lon="8.297432782128453">
        <ele>1875.6700000000001</ele>
        <time>2014-03-20T11:49:14Z</time>
      </trkpt>
      <trkpt lat="46.351059777662158" lon="8.29741601832211">
        <ele>1876.6300000000001</ele>
        <time>2014-03-20T11:49:31Z</time>
      </trkpt>
      <trkpt lat="46.351082324981689" lon="8.297412414103746">
        <ele>1876.6300000000001</ele>
        <time>2014-03-20T11:49:50Z</time>
      </trkpt>
      <trkpt lat="46.351119456812739" lon="8.297416856512427">
        <ele>1876.6300000000001</ele>
        <time>2014-03-20T11:50:11Z</time>
      </trkpt>
      <trkpt lat="46.351088443771005" lon="8.297458598390222">
        <ele>1877.1099999999999</ele>
        <time>2014-03-20T11:50:39Z</time>
      </trkpt>
      <trkpt lat="46.35105399414897" lon="8.297437811270356">
        <ele>1876.6300000000001</ele>
        <time>2014-03-20T11:51:03Z</time>
      </trkpt>
      <trkpt lat="46.351069919764996" lon="8.297486174851656">
        <ele>1876.6300000000001</ele>
        <time>2014-03-20T11:51:32Z</time>
      </trkpt>
      <trkpt lat="46.351083414629102" lon="8.297430854290724">
        <ele>1876.6300000000001</ele>
        <time>2014-03-20T11:51:51Z</time>
      </trkpt>
      <trkpt lat="46.351091545075178" lon="8.297434458509088">
        <ele>1877.1099999999999</ele>
        <time>2014-03-20T11:52:12Z</time>
      </trkpt>
      <trkpt lat="46.351084504276514" lon="8.297435129061341">
        <ele>1877.1099999999999</ele>
        <time>2014-03-20T11:52:37Z</time>
      </trkpt>
      <trkpt lat="46.351092802360654" lon="8.297429597005248">
        <ele>1876.6300000000001</ele>
        <time>2014-03-20T11:52:57Z</time>
      </trkpt>
      <trkpt lat="46.35106380097568" lon="8.297428926452994">
        <ele>1876.1500000000001</ele>
        <time>2014-03-20T11:53:15Z</time>
      </trkpt>
      <trkpt lat="46.35104569606483" lon="8.297423142939806">
        <ele>1876.1500000000001</ele>
        <time>2014-03-20T11:53:22Z</time>
      </trkpt>
      <trkpt lat="46.350901275873184" lon="8.297395063564181">
        <ele>1874.71</ele>
        <time>2014-03-20T11:53:36Z</time>
      </trkpt>
      <trkpt lat="46.350836483761668" lon="8.297386262565851">
        <ele>1873.75</ele>
        <time>2014-03-20T11:53:42Z</time>
      </trkpt>
      <trkpt lat="46.350771943107247" lon="8.29736715182662">
        <ele>1872.79</ele>
        <time>2014-03-20T11:53:48Z</time>
      </trkpt>
      <trkpt lat="46.350744953379035" lon="8.297373941168189">
        <ele>1872.79</ele>
        <time>2014-03-20T11:53:51Z</time>
      </trkpt>
      <trkpt lat="46.35060790926218" lon="8.297321135178208">
        <ele>1871.8199999999999</ele>
        <time>2014-03-20T11:54:05Z</time>
      </trkpt>
      <trkpt lat="46.350475391373038" lon="8.297269754111767">
        <ele>1870.3800000000001</ele>
        <time>2014-03-20T11:54:19Z</time>
      </trkpt>
      <trkpt lat="46.350345555692911" lon="8.297221474349499">
        <ele>1869.9000000000001</ele>
        <time>2014-03-20T11:54:33Z</time>
      </trkpt>
      <trkpt lat="46.350178588181734" lon="8.297138242051005">
        <ele>1868.46</ele>
        <time>2014-03-20T11:54:48Z</time>
      </trkpt>
      <trkpt lat="46.35006308555603" lon="8.297066828235984">
        <ele>1867.98</ele>
        <time>2014-03-20T11:55:02Z</time>
      </trkpt>
      <trkpt lat="46.349955378100276" lon="8.297016369178891">
        <ele>1867.5</ele>
        <time>2014-03-20T11:55:15Z</time>
      </trkpt>
      <trkpt lat="46.349838534370065" lon="8.296939004212618">
        <ele>1866.0599999999999</ele>
        <time>2014-03-20T11:55:29Z</time>
      </trkpt>
      <trkpt lat="46.34982755407691" lon="8.296909248456359">
        <ele>1866.0599999999999</ele>
        <time>2014-03-20T11:55:46Z</time>
      </trkpt>
      <trkpt lat="46.349806264042854" lon="8.296904470771551">
        <ele>1865.0899999999999</ele>
        <time>2014-03-20T11:57:18Z</time>
      </trkpt>
      <trkpt lat="46.349845826625824" lon="8.29698015935719">
        <ele>1864.6099999999999</ele>
        <time>2014-03-20T11:57:26Z</time>
      </trkpt>
      <trkpt lat="46.349866278469563" lon="8.296923162415624">
        <ele>1861.25</ele>
        <time>2014-03-20T11:57:39Z</time>
      </trkpt>
      <trkpt lat="46.349844904616475" lon="8.296921402215958">
        <ele>1860.29</ele>
        <time>2014-03-20T11:58:01Z</time>
      </trkpt>
      <trkpt lat="46.34966678917408" lon="8.296822076663375">
        <ele>1859.8099999999999</ele>
        <time>2014-03-20T11:58:17Z</time>
      </trkpt>
      <trkpt lat="46.349508538842201" lon="8.296743622049689">
        <ele>1859.3299999999999</ele>
        <time>2014-03-20T11:58:31Z</time>
      </trkpt>
      <trkpt lat="46.349334949627519" lon="8.296631472185254">
        <ele>1857.8900000000001</ele>
        <time>2014-03-20T11:58:46Z</time>
      </trkpt>
      <trkpt lat="46.349152307957411" lon="8.296536924317479">
        <ele>1856.9200000000001</ele>
        <time>2014-03-20T11:59:01Z</time>
      </trkpt>
      <trkpt lat="46.349006630480289" lon="8.296425947919488">
        <ele>1856.4400000000001</ele>
        <time>2014-03-20T11:59:15Z</time>
      </trkpt>
      <trkpt lat="46.348837064579129" lon="8.296323688700795">
        <ele>1855.96</ele>
        <time>2014-03-20T11:59:30Z</time>
      </trkpt>
      <trkpt lat="46.34868023917079" lon="8.29624674282968">
        <ele>1854.52</ele>
        <time>2014-03-20T11:59:44Z</time>
      </trkpt>
      <trkpt lat="46.348544452339411" lon="8.296172562986612">
        <ele>1854.52</ele>
        <time>2014-03-20T11:59:57Z</time>
      </trkpt>
      <trkpt lat="46.34837388060987" lon="8.296101568266749">
        <ele>1854.04</ele>
        <time>2014-03-20T12:00:13Z</time>
      </trkpt>
      <trkpt lat="46.348230466246605" lon="8.296037362888455">
        <ele>1853.0799999999999</ele>
        <time>2014-03-20T12:00:27Z</time>
      </trkpt>
      <trkpt lat="46.34809878654778" lon="8.295972067862749">
        <ele>1853.0799999999999</ele>
        <time>2014-03-20T12:00:40Z</time>
      </trkpt>
      <trkpt lat="46.347978003323078" lon="8.295916579663754">
        <ele>1853.0799999999999</ele>
        <time>2014-03-20T12:00:52Z</time>
      </trkpt>
      <trkpt lat="46.347832744941115" lon="8.295857822522521">
        <ele>1853.0799999999999</ele>
        <time>2014-03-20T12:01:06Z</time>
      </trkpt>
      <trkpt lat="46.347663681954145" lon="8.295790599659085">
        <ele>1852.5999999999999</ele>
        <time>2014-03-20T12:01:22Z</time>
      </trkpt>
      <trkpt lat="46.347522279247642" lon="8.295735195279121">
        <ele>1852.1199999999999</ele>
        <time>2014-03-20T12:01:36Z</time>
      </trkpt>
      <trkpt lat="46.34739562869072" lon="8.295690352097154">
        <ele>1853.0799999999999</ele>
        <time>2014-03-20T12:01:49Z</time>
      </trkpt>
      <trkpt lat="46.347382720559835" lon="8.295696470886469">
        <ele>1852.5999999999999</ele>
        <time>2014-03-20T12:01:51Z</time>
      </trkpt>
      <trkpt lat="46.347263362258673" lon="8.295628409832716">
        <ele>1852.1199999999999</ele>
        <time>2014-03-20T12:02:03Z</time>
      </trkpt>
      <trkpt lat="46.347118858247995" lon="8.295563785359263">
        <ele>1852.1199999999999</ele>
        <time>2014-03-20T12:02:17Z</time>
      </trkpt>
      <trkpt lat="46.346963290125132" lon="8.295505531132221">
        <ele>1852.5999999999999</ele>
        <time>2014-03-20T12:02:31Z</time>
      </trkpt>
      <trkpt lat="46.346805123612285" lon="8.295449372380972">
        <ele>1852.5999999999999</ele>
        <time>2014-03-20T12:02:45Z</time>
      </trkpt>
      <trkpt lat="46.346659697592258" lon="8.29539162106812">
        <ele>1852.1199999999999</ele>
        <time>2014-03-20T12:02:59Z</time>
      </trkpt>
      <trkpt lat="46.346524329856038" lon="8.295340910553932">
        <ele>1852.1199999999999</ele>
        <time>2014-03-20T12:03:12Z</time>
      </trkpt>
      <trkpt lat="46.346377395093441" lon="8.295301012694836">
        <ele>1851.6400000000001</ele>
        <time>2014-03-20T12:03:26Z</time>
      </trkpt>
      <trkpt lat="46.346219815313816" lon="8.295246362686157">
        <ele>1851.6400000000001</ele>
        <time>2014-03-20T12:03:41Z</time>
      </trkpt>
      <trkpt lat="46.346062403172255" lon="8.29518592916429">
        <ele>1851.6400000000001</ele>
        <time>2014-03-20T12:03:56Z</time>
      </trkpt>
      <trkpt lat="46.345928041264415" lon="8.295117868110538">
        <ele>1851.6400000000001</ele>
        <time>2014-03-20T12:04:10Z</time>
      </trkpt>
      <trkpt lat="46.345792757347226" lon="8.295085346326232">
        <ele>1851.6400000000001</ele>
        <time>2014-03-20T12:04:23Z</time>
      </trkpt>
      <trkpt lat="46.345615815371275" lon="8.295015776529908">
        <ele>1851.6400000000001</ele>
        <time>2014-03-20T12:04:39Z</time>
      </trkpt>
      <trkpt lat="46.345460331067443" lon="8.294945284724236">
        <ele>1851.6400000000001</ele>
        <time>2014-03-20T12:04:55Z</time>
      </trkpt>
      <trkpt lat="46.345305517315865" lon="8.294868590310216">
        <ele>1852.1199999999999</ele>
        <time>2014-03-20T12:05:11Z</time>
      </trkpt>
      <trkpt lat="46.345161013305187" lon="8.29481746070087">
        <ele>1851.6400000000001</ele>
        <time>2014-03-20T12:05:24Z</time>
      </trkpt>
      <trkpt lat="46.345020951703191" lon="8.294750656932592">
        <ele>1851.6400000000001</ele>
        <time>2014-03-20T12:05:38Z</time>
      </trkpt>
      <trkpt lat="46.344863036647439" lon="8.294696593657136">
        <ele>1851.6400000000001</ele>
        <time>2014-03-20T12:05:54Z</time>
      </trkpt>
      <trkpt lat="46.344704618677497" lon="8.294621240347624">
        <ele>1851.6400000000001</ele>
        <time>2014-03-20T12:06:09Z</time>
      </trkpt>
      <trkpt lat="46.344609651714563" lon="8.294575391337276">
        <ele>1851.6400000000001</ele>
        <time>2014-03-20T12:06:21Z</time>
      </trkpt>
      <trkpt lat="46.344491550698876" lon="8.294512191787362">
        <ele>1851.6400000000001</ele>
        <time>2014-03-20T12:06:34Z</time>
      </trkpt>
      <trkpt lat="46.344414688646793" lon="8.294463492929936">
        <ele>1852.1199999999999</ele>
        <time>2014-03-20T12:06:47Z</time>
      </trkpt>
      <trkpt lat="46.344325505197048" lon="8.294435329735279">
        <ele>1852.1199999999999</ele>
        <time>2014-03-20T12:07:04Z</time>
      </trkpt>
      <trkpt lat="46.344185611233115" lon="8.294382775202394">
        <ele>1852.5999999999999</ele>
        <time>2014-03-20T12:07:17Z</time>
      </trkpt>
      <trkpt lat="46.344048148021102" lon="8.294293256476522">
        <ele>1852.5999999999999</ele>
        <time>2014-03-20T12:07:31Z</time>
      </trkpt>
      <trkpt lat="46.343910852447152" lon="8.294235169887543">
        <ele>1853.0799999999999</ele>
        <time>2014-03-20T12:07:44Z</time>
      </trkpt>
      <trkpt lat="46.343778586015105" lon="8.294188231229782">
        <ele>1853.5599999999999</ele>
        <time>2014-03-20T12:07:57Z</time>
      </trkpt>
      <trkpt lat="46.343635087832808" lon="8.294118661433458">
        <ele>1854.04</ele>
        <time>2014-03-20T12:08:11Z</time>
      </trkpt>
      <trkpt lat="46.343483375385404" lon="8.294063424691558">
        <ele>1855</ele>
        <time>2014-03-20T12:08:26Z</time>
      </trkpt>
      <trkpt lat="46.343350019305944" lon="8.294005002826452">
        <ele>1855.48</ele>
        <time>2014-03-20T12:08:40Z</time>
      </trkpt>
      <trkpt lat="46.343224877491593" lon="8.293956136330962">
        <ele>1855.96</ele>
        <time>2014-03-20T12:08:53Z</time>
      </trkpt>
      <trkpt lat="46.343205431476235" lon="8.293942641466856">
        <ele>1856.4400000000001</ele>
        <time>2014-03-20T12:08:56Z</time>
      </trkpt>
      <trkpt lat="46.343031339347363" lon="8.293894194066525">
        <ele>1856.4400000000001</ele>
        <time>2014-03-20T12:09:12Z</time>
      </trkpt>
      <trkpt lat="46.342883985489607" lon="8.29384122043848">
        <ele>1857.4000000000001</ele>
        <time>2014-03-20T12:09:26Z</time>
      </trkpt>
      <trkpt lat="46.34272531606257" lon="8.293769722804427">
        <ele>1857.4000000000001</ele>
        <time>2014-03-20T12:09:41Z</time>
      </trkpt>
      <trkpt lat="46.342552229762077" lon="8.293712390586734">
        <ele>1857.4000000000001</ele>
        <time>2014-03-20T12:09:57Z</time>
      </trkpt>
      <trkpt lat="46.342394733801484" lon="8.293649610131979">
        <ele>1857.8900000000001</ele>
        <time>2014-03-20T12:10:12Z</time>
      </trkpt>
      <trkpt lat="46.342271100729704" lon="8.293585069477558">
        <ele>1858.8499999999999</ele>
        <time>2014-03-20T12:10:26Z</time>
      </trkpt>
      <trkpt lat="46.342081585898995" lon="8.293512985110283">
        <ele>1858.3699999999999</ele>
        <time>2014-03-20T12:10:46Z</time>
      </trkpt>
      <trkpt lat="46.341938758268952" lon="8.293469315394759">
        <ele>1857.8900000000001</ele>
        <time>2014-03-20T12:11:01Z</time>
      </trkpt>
      <trkpt lat="46.341808503493667" lon="8.293406199663878">
        <ele>1858.3699999999999</ele>
        <time>2014-03-20T12:11:15Z</time>
      </trkpt>
      <trkpt lat="46.341689145192504" lon="8.293352723121643">
        <ele>1857.8900000000001</ele>
        <time>2014-03-20T12:11:29Z</time>
      </trkpt>
      <trkpt lat="46.341594010591507" lon="8.293317100033164">
        <ele>1856.9200000000001</ele>
        <time>2014-03-20T12:11:43Z</time>
      </trkpt>
      <trkpt lat="46.341440621763468" lon="8.293245434761047">
        <ele>1855.96</ele>
        <time>2014-03-20T12:11:57Z</time>
      </trkpt>
      <trkpt lat="46.341302739456296" lon="8.29322062432766">
        <ele>1855.96</ele>
        <time>2014-03-20T12:12:12Z</time>
      </trkpt>
      <trkpt lat="46.341203078627586" lon="8.293214170262218">
        <ele>1855.48</ele>
        <time>2014-03-20T12:12:26Z</time>
      </trkpt>
      <trkpt lat="46.341158151626587" lon="8.29320059157908">
        <ele>1855</ele>
        <time>2014-03-20T12:12:44Z</time>
      </trkpt>
      <trkpt lat="46.341011468321085" lon="8.293155077844858">
        <ele>1854.52</ele>
        <time>2014-03-20T12:12:57Z</time>
      </trkpt>
      <trkpt lat="46.340837627649307" lon="8.293094057589769">
        <ele>1853.5599999999999</ele>
        <time>2014-03-20T12:13:12Z</time>
      </trkpt>
      <trkpt lat="46.34066479280591" lon="8.292999844998121">
        <ele>1853.0799999999999</ele>
        <time>2014-03-20T12:13:27Z</time>
      </trkpt>
      <trkpt lat="46.34057778865099" lon="8.292965898290277">
        <ele>1852.5999999999999</ele>
        <time>2014-03-20T12:13:39Z</time>
      </trkpt>
      <trkpt lat="46.340578878298402" lon="8.29297143034637">
        <ele>1852.5999999999999</ele>
        <time>2014-03-20T12:13:41Z</time>
      </trkpt>
      <trkpt lat="46.340421885251999" lon="8.292875373736024">
        <ele>1852.1199999999999</ele>
        <time>2014-03-20T12:13:58Z</time>
      </trkpt>
      <trkpt lat="46.340298252180219" lon="8.292805720120668">
        <ele>1852.1199999999999</ele>
        <time>2014-03-20T12:14:11Z</time>
      </trkpt>
      <trkpt lat="46.340138996019959" lon="8.292706562206149">
        <ele>1851.6400000000001</ele>
        <time>2014-03-20T12:14:28Z</time>
      </trkpt>
      <trkpt lat="46.340020475909114" lon="8.292635232210159">
        <ele>1851.6400000000001</ele>
        <time>2014-03-20T12:14:43Z</time>
      </trkpt>
      <trkpt lat="46.339885527268052" lon="8.292555687949061">
        <ele>1851.6400000000001</ele>
        <time>2014-03-20T12:14:58Z</time>
      </trkpt>
      <trkpt lat="46.339782848954201" lon="8.2925018761307">
        <ele>1851.6400000000001</ele>
        <time>2014-03-20T12:15:10Z</time>
      </trkpt>
      <trkpt lat="46.339618312194943" lon="8.292388301342726">
        <ele>1852.1199999999999</ele>
        <time>2014-03-20T12:15:27Z</time>
      </trkpt>
      <trkpt lat="46.339575815945864" lon="8.292357204481959">
        <ele>1851.6400000000001</ele>
        <time>2014-03-20T12:15:34Z</time>
      </trkpt>
      <trkpt lat="46.339504821226001" lon="8.292295597493649">
        <ele>1851.1600000000001</ele>
        <time>2014-03-20T12:15:50Z</time>
      </trkpt>
      <trkpt lat="46.339461235329509" lon="8.292230302467942">
        <ele>1850.6800000000001</ele>
        <time>2014-03-20T12:16:03Z</time>
      </trkpt>
      <trkpt lat="46.339454781264067" lon="8.292215717956424">
        <ele>1851.1600000000001</ele>
        <time>2014-03-20T12:16:25Z</time>
      </trkpt>
      <trkpt lat="46.339449500665069" lon="8.29221404157579">
        <ele>1851.1600000000001</ele>
        <time>2014-03-20T12:16:45Z</time>
      </trkpt>
      <trkpt lat="46.339450171217322" lon="8.292236672714353">
        <ele>1851.1600000000001</ele>
        <time>2014-03-20T12:17:04Z</time>
      </trkpt>
      <trkpt lat="46.339444052428007" lon="8.292227620258927">
        <ele>1851.1600000000001</ele>
        <time>2014-03-20T12:17:23Z</time>
      </trkpt>
      <trkpt lat="46.339443046599627" lon="8.292239271104336">
        <ele>1851.6400000000001</ele>
        <time>2014-03-20T12:17:42Z</time>
      </trkpt>
      <trkpt lat="46.339443800970912" lon="8.292242120951414">
        <ele>1851.1600000000001</ele>
        <time>2014-03-20T12:17:56Z</time>
      </trkpt>
      <trkpt lat="46.339340452104807" lon="8.292130474001169">
        <ele>1851.1600000000001</ele>
        <time>2014-03-20T12:18:10Z</time>
      </trkpt>
      <trkpt lat="46.339284628629684" lon="8.292021676898003">
        <ele>1851.6400000000001</ele>
        <time>2014-03-20T12:18:21Z</time>
      </trkpt>
      <trkpt lat="46.339158313348889" lon="8.29189988784492">
        <ele>1851.6400000000001</ele>
        <time>2014-03-20T12:18:36Z</time>
      </trkpt>
      <trkpt lat="46.339076673611999" lon="8.29172101803124">
        <ele>1851.6400000000001</ele>
        <time>2014-03-20T12:18:51Z</time>
      </trkpt>
      <trkpt lat="46.338997213169932" lon="8.291576597839594">
        <ele>1852.1199999999999</ele>
        <time>2014-03-20T12:19:05Z</time>
      </trkpt>
      <trkpt lat="46.338992267847061" lon="8.291564444079995">
        <ele>1852.1199999999999</ele>
        <time>2014-03-20T12:19:06Z</time>
      </trkpt>
      <trkpt lat="46.33890962228179" lon="8.291417425498366">
        <ele>1852.5999999999999</ele>
        <time>2014-03-20T12:19:20Z</time>
      </trkpt>
      <trkpt lat="46.3388607557863" lon="8.29133553430438">
        <ele>1852.1199999999999</ele>
        <time>2014-03-20T12:19:31Z</time>
      </trkpt>
      <trkpt lat="46.338787078857422" lon="8.291176278144121">
        <ele>1852.1199999999999</ele>
        <time>2014-03-20T12:19:44Z</time>
      </trkpt>
      <trkpt lat="46.338688675314188" lon="8.290987014770508">
        <ele>1851.6400000000001</ele>
        <time>2014-03-20T12:19:58Z</time>
      </trkpt>
      <trkpt lat="46.3385896012187" lon="8.290764642879367">
        <ele>1851.6400000000001</ele>
        <time>2014-03-20T12:20:14Z</time>
      </trkpt>
      <trkpt lat="46.338515672832727" lon="8.290588790550828">
        <ele>1851.6400000000001</ele>
        <time>2014-03-20T12:20:27Z</time>
      </trkpt>
      <trkpt lat="46.338449288159609" lon="8.290398940443993">
        <ele>1851.6400000000001</ele>
        <time>2014-03-20T12:20:39Z</time>
      </trkpt>
      <trkpt lat="46.338371336460114" lon="8.290193919092417">
        <ele>1851.1600000000001</ele>
        <time>2014-03-20T12:20:53Z</time>
      </trkpt>
      <trkpt lat="46.338299252092838" lon="8.290002727881074">
        <ele>1851.6400000000001</ele>
        <time>2014-03-20T12:21:07Z</time>
      </trkpt>
      <trkpt lat="46.338231442496181" lon="8.289834670722485">
        <ele>1851.6400000000001</ele>
        <time>2014-03-20T12:21:19Z</time>
      </trkpt>
      <trkpt lat="46.338161621242762" lon="8.289642557501793">
        <ele>1852.1199999999999</ele>
        <time>2014-03-20T12:21:33Z</time>
      </trkpt>
      <trkpt lat="46.338088782504201" lon="8.289469638839364">
        <ele>1851.6400000000001</ele>
        <time>2014-03-20T12:21:45Z</time>
      </trkpt>
      <trkpt lat="46.338014686480165" lon="8.289292193949223">
        <ele>1852.1199999999999</ele>
        <time>2014-03-20T12:21:58Z</time>
      </trkpt>
      <trkpt lat="46.337936986237764" lon="8.289092034101486">
        <ele>1852.1199999999999</ele>
        <time>2014-03-20T12:22:11Z</time>
      </trkpt>
      <trkpt lat="46.337865404784679" lon="8.288889527320862">
        <ele>1852.5999999999999</ele>
        <time>2014-03-20T12:22:25Z</time>
      </trkpt>
      <trkpt lat="46.337796673178673" lon="8.28869104385376">
        <ele>1852.1199999999999</ele>
        <time>2014-03-20T12:22:38Z</time>
      </trkpt>
      <trkpt lat="46.337737496942282" lon="8.288467079401016">
        <ele>1852.1199999999999</ele>
        <time>2014-03-20T12:22:52Z</time>
      </trkpt>
      <trkpt lat="46.337670609354973" lon="8.288229955360293">
        <ele>1852.5999999999999</ele>
        <time>2014-03-20T12:23:07Z</time>
      </trkpt>
      <trkpt lat="46.337603135034442" lon="8.288003308698535">
        <ele>1853.0799999999999</ele>
        <time>2014-03-20T12:23:22Z</time>
      </trkpt>
      <trkpt lat="46.337542785331607" lon="8.287821756675839">
        <ele>1852.1199999999999</ele>
        <time>2014-03-20T12:23:34Z</time>
      </trkpt>
      <trkpt lat="46.337460139766335" lon="8.287617405876517">
        <ele>1852.5999999999999</ele>
        <time>2014-03-20T12:23:50Z</time>
      </trkpt>
      <trkpt lat="46.3374188169837" lon="8.28751883469522">
        <ele>1852.5999999999999</ele>
        <time>2014-03-20T12:23:57Z</time>
      </trkpt>
      <trkpt lat="46.337332064285874" lon="8.287344155833125">
        <ele>1852.5999999999999</ele>
        <time>2014-03-20T12:24:11Z</time>
      </trkpt>
      <trkpt lat="46.337336925789714" lon="8.287343317642808">
        <ele>1853.0799999999999</ele>
        <time>2014-03-20T12:24:41Z</time>
      </trkpt>
      <trkpt lat="46.337246652692556" lon="8.287101164460182">
        <ele>1852.5999999999999</ele>
        <time>2014-03-20T12:24:57Z</time>
      </trkpt>
      <trkpt lat="46.337149925529957" lon="8.286878205835819">
        <ele>1853.5599999999999</ele>
        <time>2014-03-20T12:25:12Z</time>
      </trkpt>
      <trkpt lat="46.337086139246821" lon="8.286696234717965">
        <ele>1853.0799999999999</ele>
        <time>2014-03-20T12:25:25Z</time>
      </trkpt>
      <trkpt lat="46.337026292458177" lon="8.286495236679912">
        <ele>1853.5599999999999</ele>
        <time>2014-03-20T12:25:38Z</time>
      </trkpt>
      <trkpt lat="46.336953872814775" lon="8.28633782453835">
        <ele>1853.0799999999999</ele>
        <time>2014-03-20T12:25:49Z</time>
      </trkpt>
      <trkpt lat="46.336871478706598" lon="8.286140346899629">
        <ele>1853.5599999999999</ele>
        <time>2014-03-20T12:26:03Z</time>
      </trkpt>
      <trkpt lat="46.336790090426803" lon="8.285974385216832">
        <ele>1853.0799999999999</ele>
        <time>2014-03-20T12:26:15Z</time>
      </trkpt>
      <trkpt lat="46.336711551994085" lon="8.285791408270598">
        <ele>1852.5999999999999</ele>
        <time>2014-03-20T12:26:27Z</time>
      </trkpt>
      <trkpt lat="46.336622033268213" lon="8.285598456859589">
        <ele>1853.0799999999999</ele>
        <time>2014-03-20T12:26:41Z</time>
      </trkpt>
      <trkpt lat="46.336527233943343" lon="8.285438278689981">
        <ele>1853.5599999999999</ele>
        <time>2014-03-20T12:26:54Z</time>
      </trkpt>
      <trkpt lat="46.336456658318639" lon="8.285303916782141">
        <ele>1853.5599999999999</ele>
        <time>2014-03-20T12:27:05Z</time>
      </trkpt>
      <trkpt lat="46.336368229240179" lon="8.285175338387489">
        <ele>1853.5599999999999</ele>
        <time>2014-03-20T12:27:19Z</time>
      </trkpt>
      <trkpt lat="46.336364960297942" lon="8.285137368366122">
        <ele>1853.0799999999999</ele>
        <time>2014-03-20T12:27:26Z</time>
      </trkpt>
      <trkpt lat="46.336272843182087" lon="8.284954475238919">
        <ele>1853.5599999999999</ele>
        <time>2014-03-20T12:27:40Z</time>
      </trkpt>
      <trkpt lat="46.336205368861556" lon="8.284845007583499">
        <ele>1854.04</ele>
        <time>2014-03-20T12:27:49Z</time>
      </trkpt>
      <trkpt lat="46.336096152663231" lon="8.284682566300035">
        <ele>1854.04</ele>
        <time>2014-03-20T12:28:03Z</time>
      </trkpt>
      <trkpt lat="46.335989870131016" lon="8.28453135676682">
        <ele>1852.5999999999999</ele>
        <time>2014-03-20T12:28:17Z</time>
      </trkpt>
      <trkpt lat="46.335899764671922" lon="8.284390373155475">
        <ele>1853.0799999999999</ele>
        <time>2014-03-20T12:28:29Z</time>
      </trkpt>
      <trkpt lat="46.335802534595132" lon="8.284232625737786">
        <ele>1853.5599999999999</ele>
        <time>2014-03-20T12:28:42Z</time>
      </trkpt>
      <trkpt lat="46.335686612874269" lon="8.284075884148479">
        <ele>1853.5599999999999</ele>
        <time>2014-03-20T12:28:56Z</time>
      </trkpt>
      <trkpt lat="46.335572116076946" lon="8.283904725685716">
        <ele>1853.5599999999999</ele>
        <time>2014-03-20T12:29:11Z</time>
      </trkpt>
      <trkpt lat="46.33546625263989" lon="8.283730885013938">
        <ele>1853.5599999999999</ele>
        <time>2014-03-20T12:29:26Z</time>
      </trkpt>
      <trkpt lat="46.335358964279294" lon="8.283579424023628">
        <ele>1853.5599999999999</ele>
        <time>2014-03-20T12:29:39Z</time>
      </trkpt>
      <trkpt lat="46.335246982052922" lon="8.283438691869378">
        <ele>1854.04</ele>
        <time>2014-03-20T12:29:54Z</time>
      </trkpt>
      <trkpt lat="46.335204401984811" lon="8.283384796231985">
        <ele>1854.52</ele>
        <time>2014-03-20T12:30:00Z</time>
      </trkpt>
      <trkpt lat="46.335156289860606" lon="8.283214895054698">
        <ele>1855.48</ele>
        <time>2014-03-20T12:30:15Z</time>
      </trkpt>
      <trkpt lat="46.335122510790825" lon="8.283047089353204">
        <ele>1857.4000000000001</ele>
        <time>2014-03-20T12:30:30Z</time>
      </trkpt>
      <trkpt lat="46.335109686478972" lon="8.283018171787262">
        <ele>1857.8900000000001</ele>
        <time>2014-03-20T12:30:33Z</time>
      </trkpt>
      <trkpt lat="46.335069872438908" lon="8.282923456281424">
        <ele>1859.3299999999999</ele>
        <time>2014-03-20T12:30:48Z</time>
      </trkpt>
      <trkpt lat="46.335050594061613" lon="8.282840726897121">
        <ele>1859.8099999999999</ele>
        <time>2014-03-20T12:31:02Z</time>
      </trkpt>
      <trkpt lat="46.335005834698677" lon="8.282675938680768">
        <ele>1860.77</ele>
        <time>2014-03-20T12:31:16Z</time>
      </trkpt>
      <trkpt lat="46.334946323186159" lon="8.282512659206986">
        <ele>1862.6900000000001</ele>
        <time>2014-03-20T12:31:33Z</time>
      </trkpt>
      <trkpt lat="46.334934001788497" lon="8.28246203251183">
        <ele>1864.1300000000001</ele>
        <time>2014-03-20T12:31:38Z</time>
      </trkpt>
      <trkpt lat="46.334906928241253" lon="8.282310822978616">
        <ele>1865.5799999999999</ele>
        <time>2014-03-20T12:31:54Z</time>
      </trkpt>
      <trkpt lat="46.334840459749103" lon="8.28217419795692">
        <ele>1867.98</ele>
        <time>2014-03-20T12:32:08Z</time>
      </trkpt>
      <trkpt lat="46.334812799468637" lon="8.28210529871285">
        <ele>1868.46</ele>
        <time>2014-03-20T12:32:22Z</time>
      </trkpt>
      <trkpt lat="46.334793353453279" lon="8.281933469697833">
        <ele>1869.9000000000001</ele>
        <time>2014-03-20T12:32:37Z</time>
      </trkpt>
      <trkpt lat="46.334754377603531" lon="8.281756611540914">
        <ele>1871.8199999999999</ele>
        <time>2014-03-20T12:32:54Z</time>
      </trkpt>
      <trkpt lat="46.334731411188841" lon="8.281594421714544">
        <ele>1873.75</ele>
        <time>2014-03-20T12:33:07Z</time>
      </trkpt>
      <trkpt lat="46.334693608805537" lon="8.28142418526113">
        <ele>1875.1900000000001</ele>
        <time>2014-03-20T12:33:23Z</time>
      </trkpt>
      <trkpt lat="46.334676258265972" lon="8.281386215239763">
        <ele>1876.1500000000001</ele>
        <time>2014-03-20T12:33:40Z</time>
      </trkpt>
      <trkpt lat="46.33461456745863" lon="8.281346065923572">
        <ele>1876.1500000000001</ele>
        <time>2014-03-20T12:33:53Z</time>
      </trkpt>
      <trkpt lat="46.334624541923404" lon="8.281334834173322">
        <ele>1874.71</ele>
        <time>2014-03-20T12:34:04Z</time>
      </trkpt>
      <trkpt lat="46.334619680419564" lon="8.281356878578663">
        <ele>1875.6700000000001</ele>
        <time>2014-03-20T12:34:23Z</time>
      </trkpt>
      <trkpt lat="46.334590511396527" lon="8.281369283795357">
        <ele>1876.1500000000001</ele>
        <time>2014-03-20T12:34:42Z</time>
      </trkpt>
      <trkpt lat="46.334603168070316" lon="8.281372720375657">
        <ele>1875.6700000000001</ele>
        <time>2014-03-20T12:34:58Z</time>
      </trkpt>
      <trkpt lat="46.33460870012641" lon="8.281387640163302">
        <ele>1876.1500000000001</ele>
        <time>2014-03-20T12:35:14Z</time>
      </trkpt>
      <trkpt lat="46.334594283252954" lon="8.281368194147945">
        <ele>1874.71</ele>
        <time>2014-03-20T12:35:47Z</time>
      </trkpt>
      <trkpt lat="46.334604760631919" lon="8.281327709555626">
        <ele>1873.75</ele>
        <time>2014-03-20T12:35:54Z</time>
      </trkpt>
      <trkpt lat="46.334607694298029" lon="8.281373223289847">
        <ele>1873.27</ele>
        <time>2014-03-20T12:36:15Z</time>
      </trkpt>
      <trkpt lat="46.334626553580165" lon="8.281378336250782">
        <ele>1873.75</ele>
        <time>2014-03-20T12:36:36Z</time>
      </trkpt>
      <trkpt lat="46.3346351031214" lon="8.281372133642435">
        <ele>1873.75</ele>
        <time>2014-03-20T12:36:57Z</time>
      </trkpt>
      <trkpt lat="46.334622446447611" lon="8.281352436169982">
        <ele>1873.75</ele>
        <time>2014-03-20T12:37:18Z</time>
      </trkpt>
      <trkpt lat="46.334617417305708" lon="8.281348999589682">
        <ele>1873.75</ele>
        <time>2014-03-20T12:37:38Z</time>
      </trkpt>
      <trkpt lat="46.334636779502034" lon="8.281358052045107">
        <ele>1874.23</ele>
        <time>2014-03-20T12:38:11Z</time>
      </trkpt>
      <trkpt lat="46.334651531651616" lon="8.281343635171652">
        <ele>1873.75</ele>
        <time>2014-03-20T12:38:28Z</time>
      </trkpt>
      <trkpt lat="46.334659997373819" lon="8.281338019296527">
        <ele>1873.75</ele>
        <time>2014-03-20T12:38:52Z</time>
      </trkpt>
      <trkpt lat="46.334641808643937" lon="8.281315639615059">
        <ele>1874.23</ele>
        <time>2014-03-20T12:39:15Z</time>
      </trkpt>
      <trkpt lat="46.334637282416224" lon="8.281330894678831">
        <ele>1874.23</ele>
        <time>2014-03-20T12:39:34Z</time>
      </trkpt>
      <trkpt lat="46.334620099514723" lon="8.281353944912553">
        <ele>1874.23</ele>
        <time>2014-03-20T12:39:57Z</time>
      </trkpt>
      <trkpt lat="46.334617668762803" lon="8.281362745910883">
        <ele>1874.23</ele>
        <time>2014-03-20T12:40:21Z</time>
      </trkpt>
      <trkpt lat="46.334588415920734" lon="8.281375486403704">
        <ele>1873.75</ele>
        <time>2014-03-20T12:40:35Z</time>
      </trkpt>
      <trkpt lat="46.334530916064978" lon="8.281408678740263">
        <ele>1872.79</ele>
        <time>2014-03-20T12:40:50Z</time>
      </trkpt>
      <trkpt lat="46.334463525563478" lon="8.281457209959626">
        <ele>1870.8599999999999</ele>
        <time>2014-03-20T12:40:59Z</time>
      </trkpt>
      <trkpt lat="46.334383981302381" lon="8.281496772542596">
        <ele>1869.9000000000001</ele>
        <time>2014-03-20T12:41:07Z</time>
      </trkpt>
      <trkpt lat="46.334363529458642" lon="8.28151504509151">
        <ele>1869.4200000000001</ele>
        <time>2014-03-20T12:41:09Z</time>
      </trkpt>
      <trkpt lat="46.334261856973171" lon="8.281510854139924">
        <ele>1867.98</ele>
        <time>2014-03-20T12:41:19Z</time>
      </trkpt>
      <trkpt lat="46.334080975502729" lon="8.281387807801366">
        <ele>1866.0599999999999</ele>
        <time>2014-03-20T12:41:36Z</time>
      </trkpt>
      <trkpt lat="46.33400771766901" lon="8.281345143914223">
        <ele>1865.0899999999999</ele>
        <time>2014-03-20T12:41:42Z</time>
      </trkpt>
      <trkpt lat="46.333849048241973" lon="8.281260905787349">
        <ele>1863.6500000000001</ele>
        <time>2014-03-20T12:41:56Z</time>
      </trkpt>
      <trkpt lat="46.333654085174203" lon="8.28123651444912">
        <ele>1861.73</ele>
        <time>2014-03-20T12:42:11Z</time>
      </trkpt>
      <trkpt lat="46.333504300564528" lon="8.281229641288519">
        <ele>1859.3299999999999</ele>
        <time>2014-03-20T12:42:24Z</time>
      </trkpt>
      <trkpt lat="46.333336411044002" lon="8.28116811811924">
        <ele>1856.9200000000001</ele>
        <time>2014-03-20T12:42:38Z</time>
      </trkpt>
      <trkpt lat="46.333136335015297" lon="8.281083377078176">
        <ele>1855</ele>
        <time>2014-03-20T12:42:55Z</time>
      </trkpt>
      <trkpt lat="46.333076320588589" lon="8.281057979911566">
        <ele>1855</ele>
        <time>2014-03-20T12:43:00Z</time>
      </trkpt>
      <trkpt lat="46.332880100235343" lon="8.280927976593375">
        <ele>1851.1600000000001</ele>
        <time>2014-03-20T12:43:17Z</time>
      </trkpt>
      <trkpt lat="46.332742301747203" lon="8.28089109621942">
        <ele>1848.27</ele>
        <time>2014-03-20T12:43:28Z</time>
      </trkpt>
      <trkpt lat="46.33271723985672" lon="8.280882379040122">
        <ele>1847.79</ele>
        <time>2014-03-20T12:43:30Z</time>
      </trkpt>
      <trkpt lat="46.332602072507143" lon="8.280858155339956">
        <ele>1844.4300000000001</ele>
        <time>2014-03-20T12:43:38Z</time>
      </trkpt>
      <trkpt lat="46.332453712821007" lon="8.280820520594716">
        <ele>1842.02</ele>
        <time>2014-03-20T12:43:50Z</time>
      </trkpt>
      <trkpt lat="46.332434350624681" lon="8.280810965225101">
        <ele>1841.54</ele>
        <time>2014-03-20T12:43:52Z</time>
      </trkpt>
      <trkpt lat="46.332269059494138" lon="8.280662940815091">
        <ele>1838.6600000000001</ele>
        <time>2014-03-20T12:44:08Z</time>
      </trkpt>
      <trkpt lat="46.332152970135212" lon="8.280575936660171">
        <ele>1835.77</ele>
        <time>2014-03-20T12:44:18Z</time>
      </trkpt>
      <trkpt lat="46.332131512463093" lon="8.280557915568352">
        <ele>1835.29</ele>
        <time>2014-03-20T12:44:20Z</time>
      </trkpt>
      <trkpt lat="46.331973178312182" lon="8.280444089323282">
        <ele>1830.97</ele>
        <time>2014-03-20T12:44:34Z</time>
      </trkpt>
      <trkpt lat="46.331813670694828" lon="8.280286425724626">
        <ele>1827.5999999999999</ele>
        <time>2014-03-20T12:44:51Z</time>
      </trkpt>
      <trkpt lat="46.331664975732565" lon="8.280255328863859">
        <ele>1824.24</ele>
        <time>2014-03-20T12:45:03Z</time>
      </trkpt>
      <trkpt lat="46.33156556636095" lon="8.280255747959018">
        <ele>1822.3199999999999</ele>
        <time>2014-03-20T12:45:11Z</time>
      </trkpt>
      <trkpt lat="46.331457691267133" lon="8.280214508995414">
        <ele>1818.47</ele>
        <time>2014-03-20T12:45:21Z</time>
      </trkpt>
      <trkpt lat="46.331397844478488" lon="8.280199253931642">
        <ele>1816.55</ele>
        <time>2014-03-20T12:45:26Z</time>
      </trkpt>
      <trkpt lat="46.331320814788342" lon="8.28018207103014">
        <ele>1815.1099999999999</ele>
        <time>2014-03-20T12:45:32Z</time>
      </trkpt>
      <trkpt lat="46.331153595820069" lon="8.280134880915284">
        <ele>1811.74</ele>
        <time>2014-03-20T12:45:45Z</time>
      </trkpt>
      <trkpt lat="46.331061143428087" lon="8.280101856216788">
        <ele>1809.3399999999999</ele>
        <time>2014-03-20T12:45:52Z</time>
      </trkpt>
      <trkpt lat="46.330893002450466" lon="8.280074363574386">
        <ele>1805.97</ele>
        <time>2014-03-20T12:46:05Z</time>
      </trkpt>
      <trkpt lat="46.330712372437119" lon="8.279980402439833">
        <ele>1802.6099999999999</ele>
        <time>2014-03-20T12:46:18Z</time>
      </trkpt>
      <trkpt lat="46.330545656383038" lon="8.27990647405386">
        <ele>1799.73</ele>
        <time>2014-03-20T12:46:30Z</time>
      </trkpt>
      <trkpt lat="46.330347340553999" lon="8.279854254797101">
        <ele>1796.3599999999999</ele>
        <time>2014-03-20T12:46:45Z</time>
      </trkpt>
      <trkpt lat="46.330143325030804" lon="8.279790887609124">
        <ele>1794.4400000000001</ele>
        <time>2014-03-20T12:47:01Z</time>
      </trkpt>
      <trkpt lat="46.329959174618125" lon="8.279717294499278">
        <ele>1793.96</ele>
        <time>2014-03-20T12:47:17Z</time>
      </trkpt>
      <trkpt lat="46.329746525734663" lon="8.279632804915309">
        <ele>1792.52</ele>
        <time>2014-03-20T12:47:34Z</time>
      </trkpt>
      <trkpt lat="46.329642841592431" lon="8.279624925926328">
        <ele>1791.0699999999999</ele>
        <time>2014-03-20T12:47:42Z</time>
      </trkpt>
      <trkpt lat="46.329455254599452" lon="8.27961964532733">
        <ele>1789.6300000000001</ele>
        <time>2014-03-20T12:47:57Z</time>
      </trkpt>
      <trkpt lat="46.329460619017482" lon="8.279622076079249">
        <ele>1789.6300000000001</ele>
        <time>2014-03-20T12:48:00Z</time>
      </trkpt>
      <trkpt lat="46.329278061166406" lon="8.27957421541214">
        <ele>1788.6700000000001</ele>
        <time>2014-03-20T12:48:16Z</time>
      </trkpt>
      <trkpt lat="46.329126013442874" lon="8.279524091631174">
        <ele>1788.1900000000001</ele>
        <time>2014-03-20T12:48:30Z</time>
      </trkpt>
      <trkpt lat="46.328955022618175" lon="8.279448486864567">
        <ele>1787.23</ele>
        <time>2014-03-20T12:48:46Z</time>
      </trkpt>
      <trkpt lat="46.328774895519018" lon="8.279439182952046">
        <ele>1786.27</ele>
        <time>2014-03-20T12:49:01Z</time>
      </trkpt>
      <trkpt lat="46.328565431758761" lon="8.279467849060893">
        <ele>1783.8599999999999</ele>
        <time>2014-03-20T12:49:16Z</time>
      </trkpt>
      <trkpt lat="46.328458562493324" lon="8.279494168236852">
        <ele>1782.9000000000001</ele>
        <time>2014-03-20T12:49:26Z</time>
      </trkpt>
      <trkpt lat="46.328407013788819" lon="8.279534066095948">
        <ele>1782.9000000000001</ele>
        <time>2014-03-20T12:49:31Z</time>
      </trkpt>
      <trkpt lat="46.328254966065288" lon="8.279555439949036">
        <ele>1782.4200000000001</ele>
        <time>2014-03-20T12:49:43Z</time>
      </trkpt>
      <trkpt lat="46.328037204220891" lon="8.279466759413481">
        <ele>1781.9400000000001</ele>
        <time>2014-03-20T12:50:01Z</time>
      </trkpt>
      <trkpt lat="46.327951541170478" lon="8.279473213478923">
        <ele>1781.9400000000001</ele>
        <time>2014-03-20T12:50:09Z</time>
      </trkpt>
      <trkpt lat="46.327931340783834" lon="8.279537167400122">
        <ele>1781.9400000000001</ele>
        <time>2014-03-20T12:50:14Z</time>
      </trkpt>
      <trkpt lat="46.327904183417559" lon="8.279561642557383">
        <ele>1781.9400000000001</ele>
        <time>2014-03-20T12:50:17Z</time>
      </trkpt>
      <trkpt lat="46.327790692448616" lon="8.27954638749361">
        <ele>1780.98</ele>
        <time>2014-03-20T12:50:30Z</time>
      </trkpt>
      <trkpt lat="46.327615594491363" lon="8.279524510726333">
        <ele>1780.5</ele>
        <time>2014-03-20T12:50:43Z</time>
      </trkpt>
      <trkpt lat="46.327464887872338" lon="8.279461646452546">
        <ele>1780.02</ele>
        <time>2014-03-20T12:50:57Z</time>
      </trkpt>
      <trkpt lat="46.327398251742125" lon="8.279429543763399">
        <ele>1779.54</ele>
        <time>2014-03-20T12:51:09Z</time>
      </trkpt>
      <trkpt lat="46.327281659469008" lon="8.279419150203466">
        <ele>1779.0599999999999</ele>
        <time>2014-03-20T12:51:23Z</time>
      </trkpt>
      <trkpt lat="46.327256681397557" lon="8.279424430802465">
        <ele>1778.5799999999999</ele>
        <time>2014-03-20T12:51:26Z</time>
      </trkpt>
      <trkpt lat="46.327235391363502" lon="8.279480757191777">
        <ele>1777.6099999999999</ele>
        <time>2014-03-20T12:51:42Z</time>
      </trkpt>
      <trkpt lat="46.327227344736457" lon="8.279499700292945">
        <ele>1779.0599999999999</ele>
        <time>2014-03-20T12:52:04Z</time>
      </trkpt>
      <trkpt lat="46.327223405241966" lon="8.279487462714315">
        <ele>1779.0599999999999</ele>
        <time>2014-03-20T12:52:23Z</time>
      </trkpt>
      <trkpt lat="46.327225249260664" lon="8.279473800212145">
        <ele>1778.5799999999999</ele>
        <time>2014-03-20T12:52:44Z</time>
      </trkpt>
      <trkpt lat="46.327108070254326" lon="8.279441362246871">
        <ele>1778.5799999999999</ele>
        <time>2014-03-20T12:52:55Z</time>
      </trkpt>
      <trkpt lat="46.326936576515436" lon="8.279413282871246">
        <ele>1778.5799999999999</ele>
        <time>2014-03-20T12:53:09Z</time>
      </trkpt>
      <trkpt lat="46.326815709471703" lon="8.279447816312313">
        <ele>1777.6099999999999</ele>
        <time>2014-03-20T12:53:19Z</time>
      </trkpt>
      <trkpt lat="46.326657878234982" lon="8.279529875144362">
        <ele>1777.1300000000001</ele>
        <time>2014-03-20T12:53:33Z</time>
      </trkpt>
      <trkpt lat="46.32652536034584" lon="8.279598690569401">
        <ele>1777.6099999999999</ele>
        <time>2014-03-20T12:53:46Z</time>
      </trkpt>
      <trkpt lat="46.326353447511792" lon="8.279638253152371">
        <ele>1777.6099999999999</ele>
        <time>2014-03-20T12:54:01Z</time>
      </trkpt>
      <trkpt lat="46.32627465762198" lon="8.279661890119314">
        <ele>1776.6500000000001</ele>
        <time>2014-03-20T12:54:09Z</time>
      </trkpt>
      <trkpt lat="46.326237944886088" lon="8.279683431610465">
        <ele>1777.1300000000001</ele>
        <time>2014-03-20T12:54:14Z</time>
      </trkpt>
      <trkpt lat="46.326176756992936" lon="8.279729951173067">
        <ele>1777.1300000000001</ele>
        <time>2014-03-20T12:54:22Z</time>
      </trkpt>
      <trkpt lat="46.326132416725159" lon="8.279924411326647">
        <ele>1777.1300000000001</ele>
        <time>2014-03-20T12:54:36Z</time>
      </trkpt>
      <trkpt lat="46.326099224388599" lon="8.280036812648177">
        <ele>1777.6099999999999</ele>
        <time>2014-03-20T12:54:44Z</time>
      </trkpt>
      <trkpt lat="46.326073575764894" lon="8.280057515949011">
        <ele>1777.1300000000001</ele>
        <time>2014-03-20T12:54:49Z</time>
      </trkpt>
      <trkpt lat="46.32602202706039" lon="8.280052654445171">
        <ele>1777.1300000000001</ele>
        <time>2014-03-20T12:54:54Z</time>
      </trkpt>
      <trkpt lat="46.325984727591276" lon="8.28001644462347">
        <ele>1777.1300000000001</ele>
        <time>2014-03-20T12:55:07Z</time>
      </trkpt>
      <trkpt lat="46.325988415628672" lon="8.280043015256524">
        <ele>1776.6500000000001</ele>
        <time>2014-03-20T12:55:19Z</time>
      </trkpt>
      <trkpt lat="46.325987577438354" lon="8.280057432129979">
        <ele>1776.6500000000001</ele>
        <time>2014-03-20T12:55:46Z</time>
      </trkpt>
      <trkpt lat="46.325985230505466" lon="8.280071765184403">
        <ele>1776.6500000000001</ele>
        <time>2014-03-20T12:56:17Z</time>
      </trkpt>
      <trkpt lat="46.325991433113813" lon="8.280026502907276">
        <ele>1776.6500000000001</ele>
        <time>2014-03-20T12:56:50Z</time>
      </trkpt>
      <trkpt lat="46.32598196156323" lon="8.280042847618461">
        <ele>1776.1700000000001</ele>
        <time>2014-03-20T12:57:24Z</time>
      </trkpt>
      <trkpt lat="46.325985984876752" lon="8.280076710507274">
        <ele>1776.1700000000001</ele>
        <time>2014-03-20T12:57:56Z</time>
      </trkpt>
      <trkpt lat="46.32601716555655" lon="8.280074950307608">
        <ele>1776.6500000000001</ele>
        <time>2014-03-20T12:58:33Z</time>
      </trkpt>
      <trkpt lat="46.326012220233679" lon="8.280081991106272">
        <ele>1776.6500000000001</ele>
        <time>2014-03-20T12:58:54Z</time>
      </trkpt>
      <trkpt lat="46.326005179435015" lon="8.280091043561697">
        <ele>1777.1300000000001</ele>
        <time>2014-03-20T12:59:23Z</time>
      </trkpt>
      <trkpt lat="46.326013058423996" lon="8.280107472091913">
        <ele>1777.1300000000001</ele>
        <time>2014-03-20T12:59:54Z</time>
      </trkpt>
      <trkpt lat="46.32598296739161" lon="8.280078303068876">
        <ele>1777.1300000000001</ele>
        <time>2014-03-20T13:00:22Z</time>
      </trkpt>
      <trkpt lat="46.325999647378922" lon="8.280061958357692">
        <ele>1777.1300000000001</ele>
        <time>2014-03-20T13:00:55Z</time>
      </trkpt>
      <trkpt lat="46.326007694005966" lon="8.280083248391748">
        <ele>1777.1300000000001</ele>
        <time>2014-03-20T13:01:24Z</time>
      </trkpt>
      <trkpt lat="46.32600006647408" lon="8.280035639181733">
        <ele>1777.6099999999999</ele>
        <time>2014-03-20T13:01:37Z</time>
      </trkpt>
      <trkpt lat="46.325981710106134" lon="8.280007811263204">
        <ele>1777.6099999999999</ele>
        <time>2014-03-20T13:02:00Z</time>
      </trkpt>
      <trkpt lat="46.325959749519825" lon="8.27999833971262">
        <ele>1777.6099999999999</ele>
        <time>2014-03-20T13:02:21Z</time>
      </trkpt>
      <trkpt lat="46.325949020683765" lon="8.279981575906277">
        <ele>1777.6099999999999</ele>
        <time>2014-03-20T13:02:36Z</time>
      </trkpt>
      <trkpt lat="46.325974836945534" lon="8.279954921454191">
        <ele>1778.5799999999999</ele>
        <time>2014-03-20T13:02:52Z</time>
      </trkpt>
      <trkpt lat="46.325987493619323" lon="8.279927764087915">
        <ele>1777.6099999999999</ele>
        <time>2014-03-20T13:03:16Z</time>
      </trkpt>
      <trkpt lat="46.325985146686435" lon="8.27993581071496">
        <ele>1778.0999999999999</ele>
        <time>2014-03-20T13:03:41Z</time>
      </trkpt>
      <trkpt lat="46.325980704277754" lon="8.279925165697932">
        <ele>1778.0999999999999</ele>
        <time>2014-03-20T13:04:00Z</time>
      </trkpt>
      <trkpt lat="46.325932592153549" lon="8.280005464330316">
        <ele>1778.0999999999999</ele>
        <time>2014-03-20T13:04:17Z</time>
      </trkpt>
      <trkpt lat="46.325945165008307" lon="8.279994148761034">
        <ele>1777.6099999999999</ele>
        <time>2014-03-20T13:04:36Z</time>
      </trkpt>
      <trkpt lat="46.325960336253047" lon="8.279906138777733">
        <ele>1778.0999999999999</ele>
        <time>2014-03-20T13:04:49Z</time>
      </trkpt>
      <trkpt lat="46.325950445607305" lon="8.279725844040513">
        <ele>1778.5799999999999</ele>
        <time>2014-03-20T13:05:03Z</time>
      </trkpt>
      <trkpt lat="46.325949104502797" lon="8.279625596478581">
        <ele>1778.0999999999999</ele>
        <time>2014-03-20T13:05:09Z</time>
      </trkpt>
      <trkpt lat="46.325930412858725" lon="8.27961478382349">
        <ele>1778.0999999999999</ele>
        <time>2014-03-20T13:05:25Z</time>
      </trkpt>
      <trkpt lat="46.325930245220661" lon="8.279615454375744">
        <ele>1778.0999999999999</ele>
        <time>2014-03-20T13:05:36Z</time>
      </trkpt>
      <trkpt lat="46.325879450887442" lon="8.279492994770408">
        <ele>1777.6099999999999</ele>
        <time>2014-03-20T13:05:53Z</time>
      </trkpt>
      <trkpt lat="46.325834859162569" lon="8.279403559863567">
        <ele>1777.6099999999999</ele>
        <time>2014-03-20T13:06:02Z</time>
      </trkpt>
      <trkpt lat="46.325750956311822" lon="8.279334409162402">
        <ele>1777.1300000000001</ele>
        <time>2014-03-20T13:06:14Z</time>
      </trkpt>
      <trkpt lat="46.325608044862747" lon="8.279183115810156">
        <ele>1776.1700000000001</ele>
        <time>2014-03-20T13:06:31Z</time>
      </trkpt>
      <trkpt lat="46.325496733188629" lon="8.279023692011833">
        <ele>1775.21</ele>
        <time>2014-03-20T13:06:46Z</time>
      </trkpt>
      <trkpt lat="46.325403610244393" lon="8.278841469436884">
        <ele>1775.21</ele>
        <time>2014-03-20T13:07:02Z</time>
      </trkpt>
      <trkpt lat="46.325314594432712" lon="8.278649942949414">
        <ele>1774.73</ele>
        <time>2014-03-20T13:07:17Z</time>
      </trkpt>
      <trkpt lat="46.325263381004333" lon="8.278589425608516">
        <ele>1774.25</ele>
        <time>2014-03-20T13:07:33Z</time>
      </trkpt>
      <trkpt lat="46.325196577236056" lon="8.278413070365787">
        <ele>1774.25</ele>
        <time>2014-03-20T13:07:48Z</time>
      </trkpt>
      <trkpt lat="46.325106304138899" lon="8.278226740658283">
        <ele>1773.29</ele>
        <time>2014-03-20T13:08:02Z</time>
      </trkpt>
      <trkpt lat="46.325001697987318" lon="8.2781015150249">
        <ele>1772.8099999999999</ele>
        <time>2014-03-20T13:08:16Z</time>
      </trkpt>
      <trkpt lat="46.324983760714531" lon="8.278073184192181">
        <ele>1772.8099999999999</ele>
        <time>2014-03-20T13:08:19Z</time>
      </trkpt>
      <trkpt lat="46.324898349121213" lon="8.277956340461969">
        <ele>1773.29</ele>
        <time>2014-03-20T13:08:34Z</time>
      </trkpt>
      <trkpt lat="46.324896588921547" lon="8.277956759557128">
        <ele>1773.29</ele>
        <time>2014-03-20T13:08:35Z</time>
      </trkpt>
      <trkpt lat="46.324770776554942" lon="8.277765903621912">
        <ele>1772.8099999999999</ele>
        <time>2014-03-20T13:08:53Z</time>
      </trkpt>
      <trkpt lat="46.324748732149601" lon="8.277737991884351">
        <ele>1772.3299999999999</ele>
        <time>2014-03-20T13:08:56Z</time>
      </trkpt>
      <trkpt lat="46.324671870097518" lon="8.277701530605555">
        <ele>1773.77</ele>
        <time>2014-03-20T13:09:11Z</time>
      </trkpt>
      <trkpt lat="46.324582016095519" lon="8.277672110125423">
        <ele>1774.73</ele>
        <time>2014-03-20T13:09:25Z</time>
      </trkpt>
      <trkpt lat="46.324547398835421" lon="8.277620058506727">
        <ele>1775.21</ele>
        <time>2014-03-20T13:09:39Z</time>
      </trkpt>
      <trkpt lat="46.324537256732583" lon="8.277574796229601">
        <ele>1775.6900000000001</ele>
        <time>2014-03-20T13:09:52Z</time>
      </trkpt>
      <trkpt lat="46.324535831809044" lon="8.277575550600886">
        <ele>1775.21</ele>
        <time>2014-03-20T13:10:08Z</time>
      </trkpt>
      <trkpt lat="46.324531640857458" lon="8.27757814899087">
        <ele>1775.21</ele>
        <time>2014-03-20T13:10:09Z</time>
      </trkpt>
      <trkpt lat="46.324518816545606" lon="8.277569683268666">
        <ele>1775.21</ele>
        <time>2014-03-20T13:10:11Z</time>
      </trkpt>
      <trkpt lat="46.324443463236094" lon="8.277528947219253">
        <ele>1775.6900000000001</ele>
        <time>2014-03-20T13:10:26Z</time>
      </trkpt>
      <trkpt lat="46.324411863461137" lon="8.277480415999889">
        <ele>1775.6900000000001</ele>
        <time>2014-03-20T13:10:30Z</time>
      </trkpt>
      <trkpt lat="46.32424590177834" lon="8.277319986373186">
        <ele>1772.8099999999999</ele>
        <time>2014-03-20T13:10:46Z</time>
      </trkpt>
      <trkpt lat="46.324204076081514" lon="8.277268940582871">
        <ele>1771.3699999999999</ele>
        <time>2014-03-20T13:11:00Z</time>
      </trkpt>
      <trkpt lat="46.324135093018413" lon="8.277212530374527">
        <ele>1770.8900000000001</ele>
        <time>2014-03-20T13:11:12Z</time>
      </trkpt>
      <trkpt lat="46.323962761089206" lon="8.277076911181212">
        <ele>1769.9200000000001</ele>
        <time>2014-03-20T13:11:29Z</time>
      </trkpt>
      <trkpt lat="46.323911882936954" lon="8.277094094082713">
        <ele>1769.9200000000001</ele>
        <time>2014-03-20T13:11:41Z</time>
      </trkpt>
      <trkpt lat="46.323857316747308" lon="8.277229126542807">
        <ele>1769.4400000000001</ele>
        <time>2014-03-20T13:11:56Z</time>
      </trkpt>
      <trkpt lat="46.323885647580028" lon="8.277212865650654">
        <ele>1769.4400000000001</ele>
        <time>2014-03-20T13:12:25Z</time>
      </trkpt>
      <trkpt lat="46.32386377081275" lon="8.277238262817264">
        <ele>1769.9200000000001</ele>
        <time>2014-03-20T13:12:38Z</time>
      </trkpt>
      <trkpt lat="46.323906686156988" lon="8.27734362334013">
        <ele>1770.8900000000001</ele>
        <time>2014-03-20T13:12:51Z</time>
      </trkpt>
      <trkpt lat="46.323910793289542" lon="8.27746189199388">
        <ele>1772.3299999999999</ele>
        <time>2014-03-20T13:13:01Z</time>
      </trkpt>
      <trkpt lat="46.32389847189188" lon="8.277533557265997">
        <ele>1772.3299999999999</ele>
        <time>2014-03-20T13:13:11Z</time>
      </trkpt>
      <trkpt lat="46.323819011449814" lon="8.277676636353135">
        <ele>1773.77</ele>
        <time>2014-03-20T13:13:27Z</time>
      </trkpt>
      <trkpt lat="46.323746424168348" lon="8.277726843953133">
        <ele>1776.1700000000001</ele>
        <time>2014-03-20T13:13:39Z</time>
      </trkpt>
      <trkpt lat="46.323666460812092" lon="8.277693903073669">
        <ele>1777.1300000000001</ele>
        <time>2014-03-20T13:13:49Z</time>
      </trkpt>
      <trkpt lat="46.323546683415771" lon="8.277642941102386">
        <ele>1777.6099999999999</ele>
        <time>2014-03-20T13:14:02Z</time>
      </trkpt>
      <trkpt lat="46.32347334176302" lon="8.277591560035944">
        <ele>1779.0599999999999</ele>
        <time>2014-03-20T13:14:11Z</time>
      </trkpt>
      <trkpt lat="46.323432689532638" lon="8.277589548379183">
        <ele>1779.54</ele>
        <time>2014-03-20T13:14:16Z</time>
      </trkpt>
      <trkpt lat="46.323396898806095" lon="8.277642773464322">
        <ele>1779.54</ele>
        <time>2014-03-20T13:14:22Z</time>
      </trkpt>
      <trkpt lat="46.323340823873878" lon="8.277715863659978">
        <ele>1779.54</ele>
        <time>2014-03-20T13:14:31Z</time>
      </trkpt>
      <trkpt lat="46.323198331519961" lon="8.277588123455644">
        <ele>1776.6500000000001</ele>
        <time>2014-03-20T13:14:45Z</time>
      </trkpt>
      <trkpt lat="46.323178801685572" lon="8.277572365477681">
        <ele>1776.6500000000001</ele>
        <time>2014-03-20T13:14:47Z</time>
      </trkpt>
      <trkpt lat="46.323091294616461" lon="8.277552165091038">
        <ele>1775.6900000000001</ele>
        <time>2014-03-20T13:14:54Z</time>
      </trkpt>
      <trkpt lat="46.322925919666886" lon="8.277455354109407">
        <ele>1774.25</ele>
        <time>2014-03-20T13:15:08Z</time>
      </trkpt>
      <trkpt lat="46.32278049364686" lon="8.277331972494721">
        <ele>1771.8499999999999</ele>
        <time>2014-03-20T13:15:21Z</time>
      </trkpt>
      <trkpt lat="46.322628948837519" lon="8.277239603921771">
        <ele>1768.48</ele>
        <time>2014-03-20T13:15:34Z</time>
      </trkpt>
      <trkpt lat="46.322596929967403" lon="8.277203142642975">
        <ele>1767.04</ele>
        <time>2014-03-20T13:15:38Z</time>
      </trkpt>
      <trkpt lat="46.322573125362396" lon="8.277157293632627">
        <ele>1766.5599999999999</ele>
        <time>2014-03-20T13:15:42Z</time>
      </trkpt>
      <trkpt lat="46.322430800646544" lon="8.276998708024621">
        <ele>1766.0799999999999</ele>
        <time>2014-03-20T13:15:58Z</time>
      </trkpt>
      <trkpt lat="46.322312783449888" lon="8.276867112144828">
        <ele>1766.0799999999999</ele>
        <time>2014-03-20T13:16:13Z</time>
      </trkpt>
      <trkpt lat="46.322281267493963" lon="8.276871051639319">
        <ele>1765.1199999999999</ele>
        <time>2014-03-20T13:16:16Z</time>
      </trkpt>
      <trkpt lat="46.322186551988125" lon="8.276865435764194">
        <ele>1763.2</ele>
        <time>2014-03-20T13:16:24Z</time>
      </trkpt>
      <trkpt lat="46.322057219222188" lon="8.276771642267704">
        <ele>1761.27</ele>
        <time>2014-03-20T13:16:39Z</time>
      </trkpt>
      <trkpt lat="46.321922857314348" lon="8.27668153680861">
        <ele>1760.79</ele>
        <time>2014-03-20T13:16:53Z</time>
      </trkpt>
      <trkpt lat="46.321804756298661" lon="8.276580199599266">
        <ele>1760.79</ele>
        <time>2014-03-20T13:17:06Z</time>
      </trkpt>
      <trkpt lat="46.321709621697664" lon="8.276428319513798">
        <ele>1761.27</ele>
        <time>2014-03-20T13:17:23Z</time>
      </trkpt>
      <trkpt lat="46.321610966697335" lon="8.27638640999794">
        <ele>1761.75</ele>
        <time>2014-03-20T13:17:37Z</time>
      </trkpt>
      <trkpt lat="46.321514490991831" lon="8.276477521285415">
        <ele>1760.3099999999999</ele>
        <time>2014-03-20T13:17:50Z</time>
      </trkpt>
      <trkpt lat="46.32137032225728" lon="8.276511551812291">
        <ele>1758.8699999999999</ele>
        <time>2014-03-20T13:18:08Z</time>
      </trkpt>
      <trkpt lat="46.321320701390505" lon="8.276483556255698">
        <ele>1757.4300000000001</ele>
        <time>2014-03-20T13:18:14Z</time>
      </trkpt>
      <trkpt lat="46.321206958964467" lon="8.276319522410631">
        <ele>1756.95</ele>
        <time>2014-03-20T13:18:30Z</time>
      </trkpt>
      <trkpt lat="46.32114065811038" lon="8.276157332584262">
        <ele>1756.47</ele>
        <time>2014-03-20T13:18:45Z</time>
      </trkpt>
      <trkpt lat="46.32105516269803" lon="8.275998160243034">
        <ele>1756.47</ele>
        <time>2014-03-20T13:19:01Z</time>
      </trkpt>
      <trkpt lat="46.321035381406546" lon="8.27585524879396">
        <ele>1756.47</ele>
        <time>2014-03-20T13:19:15Z</time>
      </trkpt>
      <trkpt lat="46.321009984239936" lon="8.275741254910827">
        <ele>1757.4300000000001</ele>
        <time>2014-03-20T13:19:26Z</time>
      </trkpt>
      <trkpt lat="46.320919124409556" lon="8.275591973215342">
        <ele>1758.8699999999999</ele>
        <time>2014-03-20T13:19:43Z</time>
      </trkpt>
      <trkpt lat="46.320843854919076" lon="8.275487283244729">
        <ele>1759.3499999999999</ele>
        <time>2014-03-20T13:19:57Z</time>
      </trkpt>
      <trkpt lat="46.320752743631601" lon="8.275343868881464">
        <ele>1759.8299999999999</ele>
        <time>2014-03-20T13:20:13Z</time>
      </trkpt>
      <trkpt lat="46.320661464706063" lon="8.275173464789987">
        <ele>1758.3900000000001</ele>
        <time>2014-03-20T13:20:30Z</time>
      </trkpt>
      <trkpt lat="46.320553421974182" lon="8.275059890002012">
        <ele>1755.5</ele>
        <time>2014-03-20T13:20:45Z</time>
      </trkpt>
      <trkpt lat="46.320514865219593" lon="8.275012699887157">
        <ele>1754.54</ele>
        <time>2014-03-20T13:20:50Z</time>
      </trkpt>
      <trkpt lat="46.320455856621265" lon="8.274798458442092">
        <ele>1753.0999999999999</ele>
        <time>2014-03-20T13:21:07Z</time>
      </trkpt>
      <trkpt lat="46.320414617657661" lon="8.274620091542602">
        <ele>1752.1400000000001</ele>
        <time>2014-03-20T13:21:20Z</time>
      </trkpt>
      <trkpt lat="46.320339012891054" lon="8.274490591138601">
        <ele>1752.1400000000001</ele>
        <time>2014-03-20T13:21:32Z</time>
      </trkpt>
      <trkpt lat="46.320214876905084" lon="8.274295376613736">
        <ele>1750.7</ele>
        <time>2014-03-20T13:21:51Z</time>
      </trkpt>
      <trkpt lat="46.320134662091732" lon="8.274204013869166">
        <ele>1750.7</ele>
        <time>2014-03-20T13:22:06Z</time>
      </trkpt>
      <trkpt lat="46.320081185549498" lon="8.274137293919921">
        <ele>1747.3299999999999</ele>
        <time>2014-03-20T13:22:18Z</time>
      </trkpt>
      <trkpt lat="46.320001222193241" lon="8.274022210389376">
        <ele>1744.45</ele>
        <time>2014-03-20T13:22:31Z</time>
      </trkpt>
      <trkpt lat="46.319925198331475" lon="8.273883070796728">
        <ele>1741.0799999999999</ele>
        <time>2014-03-20T13:22:48Z</time>
      </trkpt>
      <trkpt lat="46.319864764809608" lon="8.273722222074866">
        <ele>1738.2</ele>
        <time>2014-03-20T13:23:03Z</time>
      </trkpt>
      <trkpt lat="46.319838864728808" lon="8.273671846836805">
        <ele>1736.28</ele>
        <time>2014-03-20T13:23:08Z</time>
      </trkpt>
      <trkpt lat="46.31976761855185" lon="8.273522397503257">
        <ele>1732.9100000000001</ele>
        <time>2014-03-20T13:23:23Z</time>
      </trkpt>
      <trkpt lat="46.319720847532153" lon="8.273468250408769">
        <ele>1731.95</ele>
        <time>2014-03-20T13:23:35Z</time>
      </trkpt>
      <trkpt lat="46.319703245535493" lon="8.273434052243829">
        <ele>1730.99</ele>
        <time>2014-03-20T13:23:49Z</time>
      </trkpt>
      <trkpt lat="46.319680949673057" lon="8.273312933743">
        <ele>1728.1099999999999</ele>
        <time>2014-03-20T13:23:58Z</time>
      </trkpt>
      <trkpt lat="46.319652367383242" lon="8.273269515484572">
        <ele>1726.1800000000001</ele>
        <time>2014-03-20T13:24:10Z</time>
      </trkpt>
      <trkpt lat="46.31959511898458" lon="8.273254176601768">
        <ele>1723.3</ele>
        <time>2014-03-20T13:24:26Z</time>
      </trkpt>
      <trkpt lat="46.319539127871394" lon="8.27298017218709">
        <ele>1719.9400000000001</ele>
        <time>2014-03-20T13:24:41Z</time>
      </trkpt>
      <trkpt lat="46.319509036839008" lon="8.27271630987525">
        <ele>1718.97</ele>
        <time>2014-03-20T13:24:58Z</time>
      </trkpt>
      <trkpt lat="46.319449190050364" lon="8.272511372342706">
        <ele>1718.01</ele>
        <time>2014-03-20T13:25:13Z</time>
      </trkpt>
      <trkpt lat="46.31936939433217" lon="8.272340381518006">
        <ele>1717.53</ele>
        <time>2014-03-20T13:25:28Z</time>
      </trkpt>
      <trkpt lat="46.319307368248701" lon="8.272184561938047">
        <ele>1717.05</ele>
        <time>2014-03-20T13:25:43Z</time>
      </trkpt>
      <trkpt lat="46.319226818159223" lon="8.272044584155083">
        <ele>1716.5699999999999</ele>
        <time>2014-03-20T13:25:57Z</time>
      </trkpt>
      <trkpt lat="46.319207875058055" lon="8.272024216130376">
        <ele>1716.0899999999999</ele>
        <time>2014-03-20T13:25:59Z</time>
      </trkpt>
      <trkpt lat="46.319129420444369" lon="8.271801844239235">
        <ele>1715.6099999999999</ele>
        <time>2014-03-20T13:26:18Z</time>
      </trkpt>
      <trkpt lat="46.319093881174922" lon="8.271643510088325">
        <ele>1712.73</ele>
        <time>2014-03-20T13:26:32Z</time>
      </trkpt>
      <trkpt lat="46.319091198965907" lon="8.271602774038911">
        <ele>1711.76</ele>
        <time>2014-03-20T13:26:35Z</time>
      </trkpt>
      <trkpt lat="46.319036213681102" lon="8.271351484581828">
        <ele>1709.3599999999999</ele>
        <time>2014-03-20T13:26:53Z</time>
      </trkpt>
      <trkpt lat="46.319016432389617" lon="8.271308653056622">
        <ele>1709.3599999999999</ele>
        <time>2014-03-20T13:26:57Z</time>
      </trkpt>
      <trkpt lat="46.319003691896796" lon="8.271264564245939">
        <ele>1709.3599999999999</ele>
        <time>2014-03-20T13:27:00Z</time>
      </trkpt>
      <trkpt lat="46.318928925320506" lon="8.271086616441608">
        <ele>1708.4000000000001</ele>
        <time>2014-03-20T13:27:15Z</time>
      </trkpt>
      <trkpt lat="46.318882405757904" lon="8.270865082740784">
        <ele>1706.96</ele>
        <time>2014-03-20T13:27:32Z</time>
      </trkpt>
      <trkpt lat="46.318830689415336" lon="8.270666263997555">
        <ele>1706.48</ele>
        <time>2014-03-20T13:27:46Z</time>
      </trkpt>
      <trkpt lat="46.318767992779613" lon="8.270478090271354">
        <ele>1705.04</ele>
        <time>2014-03-20T13:28:01Z</time>
      </trkpt>
      <trkpt lat="46.318707307800651" lon="8.270315648987889">
        <ele>1704.0699999999999</ele>
        <time>2014-03-20T13:28:16Z</time>
      </trkpt>
      <trkpt lat="46.318628517910838" lon="8.270116997882724">
        <ele>1704.55</ele>
        <time>2014-03-20T13:28:33Z</time>
      </trkpt>
      <trkpt lat="46.31860957480967" lon="8.270070310682058">
        <ele>1704.55</ele>
        <time>2014-03-20T13:28:37Z</time>
      </trkpt>
      <trkpt lat="46.318599851801991" lon="8.270038291811943">
        <ele>1704.0699999999999</ele>
        <time>2014-03-20T13:28:39Z</time>
      </trkpt>
      <trkpt lat="46.318549476563931" lon="8.269857242703438">
        <ele>1703.5899999999999</ele>
        <time>2014-03-20T13:28:54Z</time>
      </trkpt>
      <trkpt lat="46.318496754392982" lon="8.269775686785579">
        <ele>1703.1099999999999</ele>
        <time>2014-03-20T13:29:07Z</time>
      </trkpt>
      <trkpt lat="46.318391477689147" lon="8.269624728709459">
        <ele>1701.6700000000001</ele>
        <time>2014-03-20T13:29:22Z</time>
      </trkpt>
      <trkpt lat="46.318341689184308" lon="8.269504699856043">
        <ele>1699.75</ele>
        <time>2014-03-20T13:29:38Z</time>
      </trkpt>
      <trkpt lat="46.318319728597999" lon="8.269394561648369">
        <ele>1697.8299999999999</ele>
        <time>2014-03-20T13:29:57Z</time>
      </trkpt>
      <trkpt lat="46.318325093016028" lon="8.2693359721452">
        <ele>1696.3800000000001</ele>
        <time>2014-03-20T13:30:01Z</time>
      </trkpt>
      <trkpt lat="46.318315034732223" lon="8.26928710564971">
        <ele>1696.3800000000001</ele>
        <time>2014-03-20T13:30:05Z</time>
      </trkpt>
      <trkpt lat="46.318281255662441" lon="8.269228097051382">
        <ele>1695.4200000000001</ele>
        <time>2014-03-20T13:30:10Z</time>
      </trkpt>
      <trkpt lat="46.318278992548585" lon="8.269004635512829">
        <ele>1693.98</ele>
        <time>2014-03-20T13:30:23Z</time>
      </trkpt>
      <trkpt lat="46.31828460842371" lon="8.268887205049396">
        <ele>1693.5</ele>
        <time>2014-03-20T13:30:32Z</time>
      </trkpt>
      <trkpt lat="46.318248230963945" lon="8.26868461444974">
        <ele>1693.5</ele>
        <time>2014-03-20T13:30:46Z</time>
      </trkpt>
      <trkpt lat="46.318224929273129" lon="8.268496273085475">
        <ele>1693.98</ele>
        <time>2014-03-20T13:31:00Z</time>
      </trkpt>
      <trkpt lat="46.318237166851759" lon="8.268443048000336">
        <ele>1693.02</ele>
        <time>2014-03-20T13:31:18Z</time>
      </trkpt>
      <trkpt lat="46.31820154376328" lon="8.268306842073798">
        <ele>1692.54</ele>
        <time>2014-03-20T13:31:45Z</time>
      </trkpt>
      <trkpt lat="46.31818100810051" lon="8.268174827098846">
        <ele>1691.5799999999999</ele>
        <time>2014-03-20T13:31:56Z</time>
      </trkpt>
      <trkpt lat="46.318059638142586" lon="8.267983803525567">
        <ele>1692.0599999999999</ele>
        <time>2014-03-20T13:32:14Z</time>
      </trkpt>
      <trkpt lat="46.318054609000683" lon="8.267975673079491">
        <ele>1692.0599999999999</ele>
        <time>2014-03-20T13:32:15Z</time>
      </trkpt>
      <trkpt lat="46.31803005002439" lon="8.267907947301865">
        <ele>1691.0999999999999</ele>
        <time>2014-03-20T13:32:20Z</time>
      </trkpt>
      <trkpt lat="46.318005574867129" lon="8.267878443002701">
        <ele>1691.5799999999999</ele>
        <time>2014-03-20T13:32:23Z</time>
      </trkpt>
      <trkpt lat="46.317970622330904" lon="8.267835276201367">
        <ele>1691.0999999999999</ele>
        <time>2014-03-20T13:32:40Z</time>
      </trkpt>
      <trkpt lat="46.317918570712209" lon="8.267751289531589">
        <ele>1690.1400000000001</ele>
        <time>2014-03-20T13:32:53Z</time>
      </trkpt>
      <trkpt lat="46.317897196859121" lon="8.267693119123578">
        <ele>1690.6199999999999</ele>
        <time>2014-03-20T13:32:57Z</time>
      </trkpt>
      <trkpt lat="46.317872637882829" lon="8.267629249021411">
        <ele>1690.6199999999999</ele>
        <time>2014-03-20T13:33:02Z</time>
      </trkpt>
      <trkpt lat="46.317801978439093" lon="8.267409056425095">
        <ele>1691.0999999999999</ele>
        <time>2014-03-20T13:33:19Z</time>
      </trkpt>
      <trkpt lat="46.317694522440434" lon="8.267245274037123">
        <ele>1691.5799999999999</ele>
        <time>2014-03-20T13:33:35Z</time>
      </trkpt>
      <trkpt lat="46.317683542147279" lon="8.267225995659828">
        <ele>1691.5799999999999</ele>
        <time>2014-03-20T13:33:37Z</time>
      </trkpt>
      <trkpt lat="46.317600728943944" lon="8.267084257677198">
        <ele>1692.0599999999999</ele>
        <time>2014-03-20T13:33:50Z</time>
      </trkpt>
      <trkpt lat="46.31754188798368" lon="8.266992894932628">
        <ele>1692.0599999999999</ele>
        <time>2014-03-20T13:34:05Z</time>
      </trkpt>
      <trkpt lat="46.317480448633432" lon="8.266879823058844">
        <ele>1691.0999999999999</ele>
        <time>2014-03-20T13:34:21Z</time>
      </trkpt>
      <trkpt lat="46.317473826929927" lon="8.266870267689228">
        <ele>1691.0999999999999</ele>
        <time>2014-03-20T13:34:22Z</time>
      </trkpt>
      <trkpt lat="46.317409118637443" lon="8.266716795042157">
        <ele>1689.6500000000001</ele>
        <time>2014-03-20T13:34:37Z</time>
      </trkpt>
      <trkpt lat="46.317341225221753" lon="8.266553515568376">
        <ele>1688.21</ele>
        <time>2014-03-20T13:34:51Z</time>
      </trkpt>
      <trkpt lat="46.317318426445127" lon="8.266399037092924">
        <ele>1688.6900000000001</ele>
        <time>2014-03-20T13:35:03Z</time>
      </trkpt>
      <trkpt lat="46.317285150289536" lon="8.266200302168727">
        <ele>1685.8099999999999</ele>
        <time>2014-03-20T13:35:19Z</time>
      </trkpt>
      <trkpt lat="46.317326053977013" lon="8.265994945541024">
        <ele>1684.8499999999999</ele>
        <time>2014-03-20T13:35:35Z</time>
      </trkpt>
      <trkpt lat="46.31728632375598" lon="8.265859493985772">
        <ele>1683.8900000000001</ele>
        <time>2014-03-20T13:35:44Z</time>
      </trkpt>
      <trkpt lat="46.317261848598719" lon="8.265683641657233">
        <ele>1682.4400000000001</ele>
        <time>2014-03-20T13:35:59Z</time>
      </trkpt>
      <trkpt lat="46.317218765616417" lon="8.265550453215838">
        <ele>1681</ele>
        <time>2014-03-20T13:36:13Z</time>
      </trkpt>
      <trkpt lat="46.317214909940958" lon="8.265513237565756">
        <ele>1681.48</ele>
        <time>2014-03-20T13:36:41Z</time>
      </trkpt>
      <trkpt lat="46.317173168063164" lon="8.265405362471938">
        <ele>1681</ele>
        <time>2014-03-20T13:36:54Z</time>
      </trkpt>
      <trkpt lat="46.317096222192049" lon="8.26523688621819">
        <ele>1680.52</ele>
        <time>2014-03-20T13:37:10Z</time>
      </trkpt>
      <trkpt lat="46.317024556919932" lon="8.265132531523705">
        <ele>1680.04</ele>
        <time>2014-03-20T13:37:20Z</time>
      </trkpt>
      <trkpt lat="46.316950125619769" lon="8.264943435788155">
        <ele>1680.04</ele>
        <time>2014-03-20T13:37:35Z</time>
      </trkpt>
      <trkpt lat="46.316835964098573" lon="8.264791052788496">
        <ele>1678.5999999999999</ele>
        <time>2014-03-20T13:37:51Z</time>
      </trkpt>
      <trkpt lat="46.316781230270863" lon="8.2646060641855">
        <ele>1677.1600000000001</ele>
        <time>2014-03-20T13:38:05Z</time>
      </trkpt>
      <trkpt lat="46.316765723749995" lon="8.264364413917065">
        <ele>1676.2</ele>
        <time>2014-03-20T13:38:22Z</time>
      </trkpt>
      <trkpt lat="46.316728927195072" lon="8.264195518568158">
        <ele>1674.75</ele>
        <time>2014-03-20T13:38:35Z</time>
      </trkpt>
      <trkpt lat="46.316628679633141" lon="8.264036262407899">
        <ele>1673.79</ele>
        <time>2014-03-20T13:38:51Z</time>
      </trkpt>
      <trkpt lat="46.316517703235149" lon="8.263881448656321">
        <ele>1673.79</ele>
        <time>2014-03-20T13:39:06Z</time>
      </trkpt>
      <trkpt lat="46.316480319947004" lon="8.263691598549485">
        <ele>1672.3499999999999</ele>
        <time>2014-03-20T13:39:20Z</time>
      </trkpt>
      <trkpt lat="46.316448301076889" lon="8.263506274670363">
        <ele>1670.9100000000001</ele>
        <time>2014-03-20T13:39:35Z</time>
      </trkpt>
      <trkpt lat="46.316421311348677" lon="8.263351209461689">
        <ele>1668.02</ele>
        <time>2014-03-20T13:39:50Z</time>
      </trkpt>
      <trkpt lat="46.316417204216123" lon="8.263343833386898">
        <ele>1668.02</ele>
        <time>2014-03-20T13:39:51Z</time>
      </trkpt>
      <trkpt lat="46.316298935562372" lon="8.26318415813148">
        <ele>1665.6199999999999</ele>
        <time>2014-03-20T13:40:08Z</time>
      </trkpt>
      <trkpt lat="46.316190389916301" lon="8.263077707961202">
        <ele>1663.22</ele>
        <time>2014-03-20T13:40:25Z</time>
      </trkpt>
      <trkpt lat="46.316183852031827" lon="8.262995481491089">
        <ele>1661.78</ele>
        <time>2014-03-20T13:40:31Z</time>
      </trkpt>
      <trkpt lat="46.316164825111628" lon="8.262886684387922">
        <ele>1660.3299999999999</ele>
        <time>2014-03-20T13:40:44Z</time>
      </trkpt>
      <trkpt lat="46.316178236156702" lon="8.262863634154201">
        <ele>1660.3299999999999</ele>
        <time>2014-03-20T13:41:04Z</time>
      </trkpt>
      <trkpt lat="46.31611218675971" lon="8.262693313881755">
        <ele>1659.8499999999999</ele>
        <time>2014-03-20T13:41:20Z</time>
      </trkpt>
      <trkpt lat="46.31606038659811" lon="8.262596754357219">
        <ele>1658.4100000000001</ele>
        <time>2014-03-20T13:41:32Z</time>
      </trkpt>
      <trkpt lat="46.316076312214136" lon="8.262527687475085">
        <ele>1658.8900000000001</ele>
        <time>2014-03-20T13:41:46Z</time>
      </trkpt>
      <trkpt lat="46.316080503165722" lon="8.262514108791947">
        <ele>1658.4100000000001</ele>
        <time>2014-03-20T13:42:09Z</time>
      </trkpt>
      <trkpt lat="46.316060302779078" lon="8.262482928112149">
        <ele>1658.4100000000001</ele>
        <time>2014-03-20T13:42:15Z</time>
      </trkpt>
      <trkpt lat="46.315969778224826" lon="8.262359630316496">
        <ele>1657.9300000000001</ele>
        <time>2014-03-20T13:42:30Z</time>
      </trkpt>
      <trkpt lat="46.31591621786356" lon="8.262136755511165">
        <ele>1656.97</ele>
        <time>2014-03-20T13:42:46Z</time>
      </trkpt>
      <trkpt lat="46.315846228972077" lon="8.26196844689548">
        <ele>1656.49</ele>
        <time>2014-03-20T13:43:01Z</time>
      </trkpt>
      <trkpt lat="46.315735839307308" lon="8.261933997273445">
        <ele>1655.05</ele>
        <time>2014-03-20T13:43:15Z</time>
      </trkpt>
      <trkpt lat="46.315697869285941" lon="8.261918658390641">
        <ele>1654.0899999999999</ele>
        <time>2014-03-20T13:43:32Z</time>
      </trkpt>
      <trkpt lat="46.315681524574757" lon="8.261869372799993">
        <ele>1653.1199999999999</ele>
        <time>2014-03-20T13:43:48Z</time>
      </trkpt>
      <trkpt lat="46.315679764375091" lon="8.261847998946905">
        <ele>1653.1199999999999</ele>
        <time>2014-03-20T13:43:51Z</time>
      </trkpt>
      <trkpt lat="46.315663084387779" lon="8.261756552383304">
        <ele>1651.6800000000001</ele>
        <time>2014-03-20T13:43:57Z</time>
      </trkpt>
      <trkpt lat="46.315674316138029" lon="8.261684468016028">
        <ele>1650.72</ele>
        <time>2014-03-20T13:44:08Z</time>
      </trkpt>
      <trkpt lat="46.315687475726008" lon="8.261648761108518">
        <ele>1651.2</ele>
        <time>2014-03-20T13:44:16Z</time>
      </trkpt>
      <trkpt lat="46.315707340836525" lon="8.261559661477804">
        <ele>1650.24</ele>
        <time>2014-03-20T13:44:21Z</time>
      </trkpt>
      <trkpt lat="46.315721338614821" lon="8.261457150802016">
        <ele>1649.76</ele>
        <time>2014-03-20T13:44:27Z</time>
      </trkpt>
      <trkpt lat="46.315763164311647" lon="8.261300073936582">
        <ele>1648.8</ele>
        <time>2014-03-20T13:44:40Z</time>
      </trkpt>
      <trkpt lat="46.315821837633848" lon="8.261215751990676">
        <ele>1649.28</ele>
        <time>2014-03-20T13:44:48Z</time>
      </trkpt>
      <trkpt lat="46.31584195420146" lon="8.261161269620061">
        <ele>1648.8</ele>
        <time>2014-03-20T13:44:52Z</time>
      </trkpt>
      <trkpt lat="46.315819742158055" lon="8.261078707873821">
        <ele>1647.8399999999999</ele>
        <time>2014-03-20T13:45:06Z</time>
      </trkpt>
      <trkpt lat="46.315816137939692" lon="8.261073511093855">
        <ele>1647.3599999999999</ele>
        <time>2014-03-20T13:45:07Z</time>
      </trkpt>
      <trkpt lat="46.315779592841864" lon="8.261044174432755">
        <ele>1647.3599999999999</ele>
        <time>2014-03-20T13:45:16Z</time>
      </trkpt>
      <trkpt lat="46.315626790747046" lon="8.260895311832428">
        <ele>1647.3599999999999</ele>
        <time>2014-03-20T13:45:32Z</time>
      </trkpt>
      <trkpt lat="46.315512713044882" lon="8.260814845561981">
        <ele>1647.3599999999999</ele>
        <time>2014-03-20T13:45:44Z</time>
      </trkpt>
      <trkpt lat="46.315429983660579" lon="8.260783413425088">
        <ele>1646.8800000000001</ele>
        <time>2014-03-20T13:45:51Z</time>
      </trkpt>
      <trkpt lat="46.315403915941715" lon="8.260777043178678">
        <ele>1646.8800000000001</ele>
        <time>2014-03-20T13:45:53Z</time>
      </trkpt>
      <trkpt lat="46.315322360023856" lon="8.260758183896542">
        <ele>1647.3599999999999</ele>
        <time>2014-03-20T13:46:01Z</time>
      </trkpt>
      <trkpt lat="46.315220184624195" lon="8.260760111734271">
        <ele>1647.3599999999999</ele>
        <time>2014-03-20T13:46:11Z</time>
      </trkpt>
      <trkpt lat="46.315112309530377" lon="8.260809564962983">
        <ele>1646.4000000000001</ele>
        <time>2014-03-20T13:46:27Z</time>
      </trkpt>
      <trkpt lat="46.315099317580462" lon="8.260815180838108">
        <ele>1646.4000000000001</ele>
        <time>2014-03-20T13:46:46Z</time>
      </trkpt>
      <trkpt lat="46.315112225711346" lon="8.260857006534934">
        <ele>1646.4000000000001</ele>
        <time>2014-03-20T13:47:02Z</time>
      </trkpt>
      <trkpt lat="46.315083224326372" lon="8.260811911895871">
        <ele>1646.8800000000001</ele>
        <time>2014-03-20T13:47:15Z</time>
      </trkpt>
      <trkpt lat="46.315106777474284" lon="8.260844852775335">
        <ele>1646.4000000000001</ele>
        <time>2014-03-20T13:47:29Z</time>
      </trkpt>
      <trkpt lat="46.315122032538056" lon="8.260823730379343">
        <ele>1646.8800000000001</ele>
        <time>2014-03-20T13:47:42Z</time>
      </trkpt>
      <trkpt lat="46.315111638978124" lon="8.260806798934937">
        <ele>1646.4000000000001</ele>
        <time>2014-03-20T13:47:49Z</time>
      </trkpt>
      <trkpt lat="46.315079787746072" lon="8.260837811976671">
        <ele>1645.9100000000001</ele>
        <time>2014-03-20T13:48:00Z</time>
      </trkpt>
      <trkpt lat="46.314931679517031" lon="8.260848037898541">
        <ele>1644.95</ele>
        <time>2014-03-20T13:48:13Z</time>
      </trkpt>
      <trkpt lat="46.314746858552098" lon="8.260827669873834">
        <ele>1643.99</ele>
        <time>2014-03-20T13:48:29Z</time>
      </trkpt>
      <trkpt lat="46.314665470272303" lon="8.260837979614735">
        <ele>1643.99</ele>
        <time>2014-03-20T13:48:39Z</time>
      </trkpt>
      <trkpt lat="46.314527085050941" lon="8.260960942134261">
        <ele>1642.55</ele>
        <time>2014-03-20T13:48:54Z</time>
      </trkpt>
      <trkpt lat="46.314469082280993" lon="8.260839488357306">
        <ele>1642.55</ele>
        <time>2014-03-20T13:49:07Z</time>
      </trkpt>
      <trkpt lat="46.314482660964131" lon="8.260813085362315">
        <ele>1642.0699999999999</ele>
        <time>2014-03-20T13:49:19Z</time>
      </trkpt>
      <trkpt lat="46.314472267404199" lon="8.260808223858476">
        <ele>1641.5899999999999</ele>
        <time>2014-03-20T13:49:35Z</time>
      </trkpt>
      <trkpt lat="46.314498586580157" lon="8.260745527222753">
        <ele>1642.55</ele>
        <time>2014-03-20T13:49:53Z</time>
      </trkpt>
    </trkseg>
  </trk>

</gpx>